GEFSGL_500_meanwind_000.txt.gz
Wind_Speed
37 35 29 29 27 32 37 35 32 26 22 21 21 18 21 25 29 31 30 28 28 28 29 28 30 31 30 32 31 33 32 31 34 35 34 35 35 37 38 38 39 42 42
36 29 25 21 22 23 23 23 21 28 29 26 22 23 26 26 27 28 28 27 27 27 28 29 30 30 30 32 34 35 36 36 36 36 34 33 32 31 30 33 35 37 40
29 16 17 17 16 18 20 24 28 29 28 27 25 26 27 24 23 23 24 26 27 28 29 29 30 30 32 34 35 36 39 41 41 40 38 36 32 29 26 27 32 32 34
29 35 29 23 19 17 22 27 33 34 30 24 23 23 24 23 23 24 24 25 26 28 29 30 30 31 33 33 35 37 39 41 41 41 41 37 34 32 29 26 24 27 27
32 31 31 28 25 17 10 17 24 25 25 20 19 19 19 21 23 23 23 25 27 29 29 29 30 31 33 33 34 35 36 38 38 38 39 37 35 33 32 28 25 21 21
27 22 20 21 17 15 11 9 12 15 17 19 21 18 19 21 21 22 23 25 25 26 28 29 31 32 34 34 34 34 33 34 34 34 35 35 34 33 33 31 30 26 24
20 15 15 18 21 18 16 15 15 18 19 20 21 20 19 19 20 21 20 21 22 24 27 30 31 32 33 34 34 34 35 35 35 34 34 33 32 32 33 34 33 32 30
16 12 11 14 17 18 16 18 20 17 17 18 19 17 17 16 15 15 15 17 19 21 23 25 28 30 31 31 32 32 34 35 37 37 36 36 35 34 34 36 35 36 37
14 13 12 13 14 16 17 21 22 22 21 18 20 18 17 15 15 15 16 18 19 20 21 23 25 27 28 29 29 31 32 33 34 36 37 39 41 40 39 38 38 38 40
12 14 17 18 20 21 20 22 26 26 23 20 18 17 17 17 17 17 17 17 19 21 23 25 26 26 27 26 26 26 27 28 30 32 34 36 38 40 40 40 40 41 42
8 10 14 16 17 16 16 20 23 22 20 19 16 16 17 15 15 16 17 21 23 22 20 19 19 19 21 22 25 28 31 34 35 36 37 38 39 39 39 39 40 41 42
12 12 13 13 13 12 12 13 13 11 11 10 9 10 12 13 14 18 20 20 16 14 15 15 16 18 22 26 29 31 34 37 38 37 37 38 40 40 40 39 37 37 38
14 12 11 10 9 8 7 6 7 9 9 7 8 10 11 13 16 16 15 14 13 14 16 17 18 22 25 24 24 26 30 32 32 31 32 33 36 37 38 39 38 36 36
14 11 8 6 5 5 5 5 7 8 9 9 10 11 12 13 13 13 14 13 14 16 16 17 19 22 21 21 24 25 26 26 26 24 23 23 25 28 31 35 37 38 37
16 13 10 7 6 5 6 7 7 8 9 9 10 11 12 14 15 15 13 12 14 14 14 17 19 19 19 21 23 23 22 20 19 19 19 19 19 21 23 26 29 32 34
20 17 16 13 11 10 10 9 9 10 10 11 11 12 13 13 13 12 11 12 13 13 14 16 16 17 19 22 23 21 19 20 22 23 22 21 20 21 21 21 23 26 27
24 22 20 19 18 17 17 16 16 15 15 17 17 16 15 12 11 11 11 12 13 13 14 14 14 17 20 23 24 22 20 20 22 23 21 20 20 20 19 19 20 22 26
29 27 24 22 21 21 21 21 21 20 19 19 20 21 18 15 13 13 13 13 12 12 13 12 13 16 21 25 26 25 24 23 23 23 20 19 19 18 17 17 17 19 21
34 32 28 26 24 23 23 23 22 22 21 19 20 20 18 15 14 14 14 14 13 12 13 12 13 16 21 25 25 24 25 25 26 25 23 21 20 20 20 21 22 22 23
37 35 33 30 28 27 26 24 24 23 22 20 19 19 18 16 16 16 15 13 12 12 12 13 15 18 22 25 25 25 26 27 29 27 25 24 23 23 24 24 24 25 26
34 33 30 28 27 27 27 26 24 23 23 21 21 21 20 19 18 17 16 14 13 14 13 14 17 20 22 24 26 26 28 30 33 31 28 26 26 26 25 25 25 26 27
25 26 25 23 24 25 25 24 22 22 22 22 22 22 21 21 20 18 17 16 15 16 15 15 16 19 22 23 25 27 28 31 33 32 30 29 28 28 26 26 25 26 27
24 24 24 23 22 23 23 22 21 20 20 20 21 22 22 22 20 18 18 18 17 16 16 15 16 20 22 23 24 26 29 31 33 33 32 32 30 28 26 27 27 26 26
24 23 22 21 20 21 21 20 20 19 19 19 19 21 22 21 20 19 19 18 17 17 15 14 16 19 21 22 23 24 27 30 32 33 33 34 31 29 29 28 26 25 24
22 22 21 20 20 20 19 19 18 18 18 19 20 19 19 19 20 20 19 18 17 17 16 15 16 18 19 20 22 24 26 30 32 33 34 34 33 31 31 29 27 25 23
22 22 22 20 19 19 18 17 16 16 16 18 19 18 17 17 19 20 18 17 16 15 15 16 17 18 18 19 21 24 26 29 32 33 35 36 34 33 32 30 27 26 26

GEFSGL_500_meanwind_006.txt.gz
Wind_Speed
43 42 42 43 43 43 44 44 43 39 37 34 32 30 28 27 27 28 27 27 27 26 26 26 27 27 27 27 28 29 31 31 32 33 33 34 36 36 35 36 35 34 34
40 40 39 39 39 39 39 36 33 31 29 26 26 26 26 26 26 26 24 22 22 22 21 20 21 22 24 25 27 28 30 31 32 33 34 35 36 37 38 39 39 39 39
36 36 35 35 34 33 31 28 26 24 22 22 23 24 25 24 22 21 21 21 21 22 23 23 24 25 26 27 28 28 29 30 31 32 33 33 34 35 35 37 38 38 37
32 31 31 30 29 26 23 21 20 20 18 20 21 22 22 22 21 21 21 22 22 22 22 22 24 25 25 26 26 27 27 28 29 30 31 31 33 33 34 35 36 36 35
28 27 26 25 23 19 18 17 15 14 15 18 21 22 20 20 21 23 24 23 22 22 21 21 21 22 22 23 23 24 25 27 28 29 30 31 33 34 35 36 36 35 34
26 24 23 22 18 16 15 14 13 11 10 12 16 18 18 19 21 22 22 22 22 21 20 20 19 19 19 20 21 23 25 27 28 29 31 33 34 36 37 37 36 35 34
27 24 22 20 17 15 15 14 13 10 9 7 8 11 13 15 17 18 19 19 18 18 17 17 17 17 18 20 21 23 25 27 28 30 32 33 34 35 36 37 37 37 37
28 26 23 19 16 14 14 14 13 10 9 9 9 10 12 14 16 17 17 17 16 16 16 16 16 17 17 19 20 22 24 25 25 27 28 29 31 32 34 35 36 36 37
28 26 22 18 15 14 14 13 12 13 12 13 12 12 12 14 14 15 16 15 14 14 14 14 14 15 16 17 18 18 18 19 21 23 25 28 31 34 36 38 38 37 36
28 24 21 17 15 13 13 13 13 14 16 17 17 16 15 14 14 14 14 14 14 13 12 13 14 15 14 13 12 14 16 19 22 24 27 30 34 36 39 40 39 39 38
27 22 19 17 16 14 13 13 13 14 15 16 17 16 14 13 14 14 14 14 12 11 12 13 11 8 9 10 13 16 19 22 24 27 30 33 35 36 37 36 35 34 34
27 23 20 18 17 16 15 13 12 12 11 11 11 10 10 9 10 10 10 10 10 10 11 10 8 8 10 12 14 17 20 23 26 29 32 34 34 33 31 29 28 28 28
30 27 24 21 19 17 15 13 12 10 9 9 8 7 7 6 6 6 7 8 9 9 9 9 9 11 11 13 16 19 22 25 28 31 33 33 32 30 27 26 26 26 25
33 32 29 25 22 19 16 14 12 10 10 9 8 7 6 6 6 6 6 7 8 8 9 10 11 11 11 13 16 20 23 26 29 31 32 32 31 29 27 26 26 26 25
34 35 32 29 25 21 17 15 14 12 11 10 9 8 7 7 7 8 8 9 10 10 10 11 11 11 12 13 16 18 21 24 27 29 30 30 29 28 26 25 24 25 24
35 37 35 31 28 24 20 17 15 14 13 12 10 9 8 9 9 10 10 11 12 12 12 12 11 11 12 14 15 16 20 25 27 28 28 27 26 25 23 21 21 22 22
35 37 38 35 31 28 25 21 18 16 15 14 13 11 11 11 12 12 12 13 14 14 13 12 11 12 13 14 15 17 20 24 26 27 27 26 25 24 22 20 19 21 22
36 36 39 38 34 31 29 27 24 21 19 17 17 16 15 15 16 16 17 16 16 16 14 13 12 12 13 14 14 16 19 23 25 26 27 27 26 25 23 21 20 20 22
37 34 38 40 37 34 31 29 27 25 23 21 21 20 20 19 19 19 19 18 18 17 16 15 13 13 14 14 14 15 18 21 24 26 27 27 27 27 26 24 22 21 21
37 33 34 39 40 38 34 31 28 25 22 20 20 21 22 22 21 20 20 19 18 18 18 17 16 16 15 14 13 13 15 18 21 25 27 28 28 28 28 26 25 24 23
39 33 31 36 40 40 38 34 30 26 23 21 20 21 22 22 21 21 20 20 21 20 19 19 18 18 17 15 14 13 14 16 20 23 27 28 29 30 30 30 29 28 27
40 32 28 30 36 39 40 39 34 29 25 23 22 21 22 21 21 21 22 22 22 22 21 20 21 20 18 16 15 14 13 14 17 21 25 28 29 30 32 33 33 31 29
39 31 26 28 31 36 39 39 36 31 28 26 23 20 20 20 20 22 23 23 23 22 21 21 22 21 19 17 16 14 14 14 15 19 23 26 28 30 31 33 33 32 30
36 29 25 25 26 29 32 33 32 29 27 23 20 18 17 18 19 20 21 22 22 21 20 20 22 21 19 18 16 15 15 15 16 18 21 24 28 30 32 33 33 33 31
35 29 25 21 21 24 27 28 27 25 23 20 18 16 15 16 16 17 19 19 19 18 18 19 20 20 20 18 16 15 16 17 18 19 21 24 28 31 33 33 34 33 32
33 28 23 21 22 25 25 25 24 23 20 17 15 14 14 14 15 15 16 16 16 16 16 17 18 19 19 18 16 16 17 17 19 21 23 26 29 31 33 34 35 35 34

GEFSGL_500_meanwind_012.txt.gz
Wind_Speed
41 41 40 38 37 37 38 38 38 37 38 39 39 39 38 36 34 32 29 27 26 24 23 23 23 23 25 26 27 28 29 29 29 28 28 27 26 24 23 23 25 26 27
42 41 40 38 36 34 34 34 33 34 34 34 33 33 32 30 28 25 24 23 22 21 21 21 22 23 24 24 23 22 22 21 20 19 20 20 21 21 22 23 25 27 28
41 41 39 37 35 32 30 29 29 29 29 29 29 28 27 26 23 21 21 21 21 22 21 20 19 19 18 18 17 16 15 14 14 15 16 17 19 21 23 25 26 28 29
40 39 38 36 35 32 30 28 27 26 26 25 25 24 22 20 19 19 20 22 23 22 22 19 17 15 14 14 14 14 14 14 15 16 17 18 20 22 24 25 27 29 30
39 38 36 35 34 32 30 28 26 24 23 23 22 20 18 17 18 19 20 22 22 21 19 17 15 14 14 13 13 13 14 15 16 18 19 20 22 24 26 27 29 31 32
39 36 35 34 32 31 30 28 25 23 22 21 19 17 15 15 15 17 18 19 19 18 17 15 14 13 12 12 12 13 14 15 17 18 20 21 23 24 26 27 29 30 31
39 36 34 32 31 30 29 27 25 22 21 19 17 14 12 11 14 16 17 16 16 15 14 13 12 12 12 13 13 14 14 15 16 17 19 21 22 22 23 24 25 27 28
39 37 34 32 30 28 27 26 24 22 20 18 15 13 11 10 11 12 13 14 14 14 13 12 12 12 12 12 12 12 12 13 14 14 15 16 17 18 19 21 24 26 29
39 38 35 32 29 28 27 25 23 21 18 17 16 15 13 12 11 11 12 13 12 12 12 11 10 10 10 10 10 11 12 12 12 11 12 13 16 18 21 24 27 29 31
40 38 36 34 31 28 26 25 23 21 18 17 16 16 16 15 13 12 12 13 13 12 11 10 10 9 9 10 10 9 9 8 9 10 12 15 18 21 24 26 28 30 32
45 41 37 36 33 30 27 25 23 20 18 16 16 17 16 14 13 12 11 12 13 12 11 11 10 9 9 9 8 8 8 8 9 10 13 16 20 22 24 26 27 28 28
48 44 40 37 36 32 28 26 23 20 18 16 15 15 14 13 12 12 13 12 13 13 12 11 10 9 9 9 9 8 7 8 9 11 15 18 20 22 24 25 25 25 25
52 49 44 39 37 34 31 28 24 20 18 17 15 13 11 11 11 12 12 12 12 13 12 11 11 10 10 9 8 8 8 9 11 13 16 18 20 22 24 24 24 23 22
54 51 47 42 38 36 33 30 26 21 18 17 15 13 12 12 12 12 12 12 12 12 12 12 11 10 10 10 9 9 9 10 11 14 16 18 21 22 23 23 22 21 20
53 52 47 42 40 37 35 33 28 24 20 19 17 16 15 14 14 13 13 13 13 13 13 12 12 11 11 11 10 10 10 10 12 14 15 17 19 21 22 23 23 22 21
48 49 47 44 41 39 37 35 31 26 22 21 20 19 18 16 14 13 13 14 14 14 13 13 12 12 11 11 11 10 10 11 13 13 14 16 18 20 22 24 25 24 23
44 46 44 43 41 39 38 36 33 29 25 23 23 22 20 17 15 14 13 12 13 13 12 12 12 11 11 12 11 10 10 12 12 11 11 13 16 18 21 24 26 27 26
41 43 42 41 41 41 39 37 35 31 28 26 25 24 22 19 17 14 12 11 11 11 11 11 12 12 12 12 11 11 11 12 11 9 8 10 13 16 20 23 26 28 29
38 40 40 38 40 41 40 39 37 33 30 30 28 26 23 20 18 15 13 12 12 11 11 11 12 12 13 13 12 12 12 12 10 8 6 7 10 13 17 21 24 27 30
37 39 39 37 37 39 41 40 38 35 32 30 28 26 24 22 20 18 16 15 14 13 13 13 13 13 14 14 14 14 13 12 11 9 6 6 8 11 15 19 22 26 29
37 38 38 37 37 38 39 40 38 35 33 31 30 28 25 23 21 19 17 16 16 15 15 15 15 15 15 16 16 16 15 14 13 11 9 8 9 12 15 19 22 25 27
37 38 36 36 36 36 37 39 39 37 34 32 30 27 25 22 20 18 16 16 17 17 17 17 17 17 16 16 17 18 17 16 15 14 13 12 13 15 17 19 22 24 27
37 37 35 35 35 35 36 37 39 38 35 32 29 26 24 21 19 17 16 17 18 18 18 18 18 17 17 17 18 18 18 18 18 17 16 16 16 17 18 19 22 25 28
36 35 35 35 33 34 34 35 37 38 36 33 29 26 24 21 19 18 17 18 18 19 19 19 18 18 17 17 17 18 18 19 19 19 18 18 18 19 19 21 23 26 29
35 34 34 33 33 32 32 33 35 36 35 33 31 28 25 21 20 19 19 19 18 18 18 18 18 17 16 17 17 17 18 18 19 20 20 20 20 21 21 23 25 27 30
35 34 34 33 31 29 28 29 31 33 34 34 31 28 25 22 21 20 18 18 17 17 17 17 16 15 15 15 16 17 18 18 19 20 20 20 21 22 23 25 27 30 33

GEFSGL_500_meanwind_018.txt.gz
Wind_Speed
41 41 41 42 42 42 42 40 39 37 36 36 34 31 29 28 29 29 30 31 31 32 32 32 31 31 30 29 27 27 27 26 26 27 29 28 29 30 32 32 31 32 33
45 44 44 44 44 43 43 41 39 37 36 35 34 32 29 28 27 27 26 26 26 26 26 27 27 26 25 25 24 24 24 25 26 28 28 28 30 30 31 31 31 31 31
50 48 48 47 45 44 43 41 39 37 35 34 34 32 29 27 26 25 23 23 22 22 22 23 24 24 23 23 24 24 24 25 26 26 26 27 28 27 27 27 27 27 28
54 53 52 50 49 46 44 42 40 38 35 34 33 31 28 27 26 24 22 21 20 20 21 22 22 22 22 22 23 23 24 24 25 23 22 22 21 21 21 21 21 21 22
58 58 56 54 53 50 47 44 42 39 35 33 32 31 28 26 24 23 21 19 18 19 19 20 21 22 22 21 22 22 21 20 19 19 18 18 18 18 18 18 18 19 19
63 62 61 59 57 55 52 48 44 40 36 33 32 30 28 25 23 22 20 18 18 18 19 20 20 20 19 19 19 19 18 17 17 18 18 17 17 16 16 16 16 17 19
69 68 66 64 62 59 55 50 46 42 38 34 32 29 27 24 21 20 20 19 19 19 18 17 17 17 15 16 17 17 16 16 15 15 14 13 13 13 13 15 16 18 19
76 74 72 70 67 63 57 50 46 42 38 35 32 29 26 23 20 19 18 16 17 18 18 16 15 15 15 15 15 15 15 13 12 12 11 11 11 11 12 13 14 15 17
80 77 74 71 67 63 56 49 46 43 40 36 32 29 26 23 20 18 16 15 14 15 15 15 14 14 15 14 14 13 13 12 11 10 9 9 9 10 10 12 13 15 17
71 67 63 61 59 57 54 49 47 44 41 38 33 30 27 24 21 19 16 15 14 14 14 14 13 13 14 14 13 12 12 11 10 9 8 8 7 8 9 10 12 14 16
52 49 46 46 47 48 50 49 48 45 43 39 34 31 28 25 22 19 17 15 15 14 14 14 13 13 14 13 12 12 11 10 9 8 7 6 6 7 8 9 11 13 15
35 33 33 33 34 38 44 48 48 46 44 40 35 31 29 26 22 20 18 16 14 14 15 15 15 15 14 13 12 11 10 10 9 8 7 6 6 6 7 8 10 11 12
31 30 30 30 30 31 38 47 50 46 44 41 36 32 30 26 23 20 18 16 15 14 15 16 16 15 14 13 12 11 11 10 9 8 6 5 5 5 6 7 7 9 11
34 33 32 31 30 30 34 45 50 47 44 42 37 33 30 27 23 21 19 17 17 16 16 16 16 15 14 13 12 12 11 10 9 7 6 5 4 4 4 4 5 7 10
38 35 33 31 30 30 33 44 50 45 42 41 37 32 29 26 24 22 20 19 18 18 18 17 16 15 15 14 13 13 11 10 8 7 6 5 4 4 2 1 4 6 9
38 35 33 32 30 31 33 42 49 46 42 41 37 33 31 29 27 24 22 21 20 19 19 18 17 16 15 14 13 13 12 10 9 8 6 6 5 4 3 1 3 6 9
36 33 32 31 29 28 31 40 46 46 43 43 38 36 33 30 27 25 24 22 21 20 19 18 17 16 15 14 14 13 12 11 10 9 7 7 6 6 4 2 3 6 9
34 31 29 28 27 25 29 38 43 43 43 42 40 37 34 31 29 27 25 22 21 19 18 17 16 15 14 14 14 14 13 12 11 9 9 8 8 8 7 5 5 6 8
30 27 26 25 23 23 29 36 40 42 44 43 40 37 34 32 30 28 24 22 21 20 18 17 16 15 14 14 14 14 13 13 12 11 10 10 11 10 10 9 8 9 10
26 24 23 21 21 25 31 36 39 43 45 44 41 37 34 31 28 26 24 22 20 19 17 15 14 13 13 13 13 14 14 13 13 12 12 13 14 14 13 13 13 13 13
23 22 20 20 23 27 33 36 38 42 43 42 39 36 33 31 29 28 26 23 20 18 16 14 13 12 12 12 13 14 14 15 15 15 15 15 16 17 17 17 17 17 17
22 21 21 23 26 30 33 36 39 42 42 40 39 36 34 33 31 29 26 23 20 17 14 13 13 13 13 13 14 15 16 16 16 17 17 18 18 19 19 20 20 20 20
22 22 24 28 30 32 35 37 38 40 40 38 37 34 32 31 29 27 24 21 18 15 15 14 14 15 15 15 15 15 16 17 18 19 19 20 20 21 22 22 22 22 22
23 27 30 32 33 33 35 37 37 38 39 37 35 32 31 30 28 26 23 20 17 15 14 15 15 16 16 16 17 17 17 18 18 19 20 20 21 22 23 24 23 23 23
31 34 34 34 33 34 35 36 36 36 36 35 32 30 29 28 26 24 21 19 17 15 14 15 16 17 17 17 17 17 17 17 18 19 20 21 22 22 23 24 23 23 24
36 36 35 34 34 34 34 33 32 32 34 33 30 28 27 25 23 22 20 18 16 15 14 15 16 16 17 17 17 17 16 17 17 18 19 20 21 22 22 22 22 23 24

GEFSGL_500_meanwind_024.txt.gz
Wind_Speed
51 50 50 49 48 46 44 42 39 37 34 32 30 28 27 26 27 27 28 28 27 27 26 26 26 26 28 30 31 32 33 34 34 34 34 33 31 30 29 29 29 29 29
56 56 56 56 54 52 50 47 43 40 37 34 31 29 28 27 27 27 28 28 28 27 26 25 25 24 25 27 29 31 32 33 33 33 33 32 31 29 29 28 29 29 28
62 62 62 62 60 58 55 52 49 45 42 38 34 32 30 29 28 28 28 28 28 27 26 25 24 24 24 25 26 28 29 30 31 31 31 31 30 30 29 29 28 29 28
67 68 68 68 67 65 63 59 55 52 48 43 39 36 34 32 30 29 29 29 28 27 26 25 23 22 23 24 24 25 26 27 27 27 28 29 29 29 29 29 29 27 27
73 74 74 75 74 72 69 66 62 58 53 48 44 41 38 35 33 31 31 30 28 27 25 24 22 21 21 21 21 23 24 25 26 27 27 28 28 28 28 27 27 25 24
80 80 80 81 81 78 74 70 67 63 59 55 50 47 43 40 37 34 33 32 29 27 26 24 22 21 20 21 22 24 25 25 25 26 27 27 28 27 26 25 23 21 20
84 84 85 85 85 84 81 78 75 71 67 61 55 52 48 45 41 37 35 34 31 28 26 24 23 21 21 21 22 23 25 25 25 26 26 27 27 25 23 21 20 19 17
69 72 75 79 80 81 81 80 78 76 72 67 62 57 53 49 45 40 38 35 32 29 26 24 22 22 20 20 21 22 24 24 24 24 23 22 22 21 19 18 17 16 16
47 49 52 56 60 64 67 69 71 72 71 68 63 58 55 50 46 42 39 37 33 30 27 24 22 21 20 19 20 20 20 20 20 19 19 18 18 17 17 16 15 14 13
41 41 40 41 43 46 49 53 56 59 62 62 60 56 53 49 45 42 40 37 34 30 27 24 21 21 21 20 21 21 20 19 18 17 17 17 17 16 15 14 13 12 11
42 40 38 36 35 34 35 37 40 44 48 53 54 52 50 48 45 43 40 37 34 30 27 24 22 21 21 20 21 21 20 19 18 17 17 16 15 14 13 12 11 11 10
44 41 38 35 33 31 29 28 29 31 35 41 47 50 49 46 45 43 40 37 34 30 27 25 22 21 21 21 20 20 19 18 17 17 16 16 14 13 12 11 11 10 9
44 42 39 36 34 31 28 26 25 26 28 33 43 50 49 46 45 43 39 37 34 30 28 25 23 23 22 22 21 20 19 18 18 17 16 15 14 13 12 11 10 9 8
44 42 41 38 34 31 28 27 25 24 23 27 39 47 50 45 43 42 39 36 32 29 27 25 24 24 24 23 22 21 20 19 18 17 16 15 14 13 11 11 10 9 8
44 43 41 37 34 32 29 27 26 25 24 25 35 45 44 42 42 40 37 34 30 28 26 25 25 25 25 24 23 22 21 20 19 18 16 15 14 13 12 11 11 10 9
41 39 36 36 34 32 30 28 26 25 25 26 32 41 43 42 41 39 37 34 32 29 27 26 26 26 26 25 24 23 21 20 19 18 16 15 14 13 13 13 12 12 11
35 33 31 31 31 31 29 27 26 24 23 24 28 37 42 42 41 40 38 34 32 29 27 26 26 27 26 25 24 23 22 20 19 18 16 16 15 14 14 14 14 14 13
27 25 25 27 28 28 27 26 24 24 23 22 27 34 40 43 42 40 37 34 31 29 28 27 26 27 26 25 24 23 21 20 19 18 17 16 16 16 16 16 16 16 15
18 18 19 24 26 27 26 25 23 23 22 23 28 34 40 43 42 40 36 32 30 28 28 28 27 26 25 24 23 22 21 20 19 18 17 17 17 17 18 18 18 18 17
9 12 17 22 24 25 24 23 23 22 22 25 30 35 41 44 43 39 36 33 31 30 30 28 27 26 25 24 22 22 21 20 19 19 18 18 18 19 19 20 20 20 20
6 11 18 22 23 22 22 22 22 23 24 29 34 38 42 42 39 36 34 32 31 29 28 27 26 25 23 22 22 21 20 20 19 19 18 18 18 19 20 21 21 21 22
11 16 20 21 21 21 21 22 23 25 29 35 38 41 42 39 36 34 32 31 30 28 28 26 25 23 22 21 20 19 19 19 19 19 19 19 19 19 20 21 22 23 23
17 19 20 20 21 22 23 24 27 30 35 37 39 40 40 38 35 33 32 30 29 28 27 25 23 22 20 19 18 17 17 17 18 18 19 19 20 20 21 22 23 23 24
22 22 23 23 24 26 28 29 32 36 37 38 38 38 38 36 34 32 31 29 28 26 25 23 21 20 18 17 16 15 15 16 16 17 18 19 20 21 21 22 22 23 23
27 28 29 29 31 31 32 33 36 38 37 37 36 36 35 33 31 30 29 28 26 24 22 20 18 17 16 15 14 14 14 15 16 17 17 18 19 20 20 21 21 22 22
32 32 32 32 32 32 33 34 35 35 35 34 34 33 31 30 29 28 27 25 23 21 19 17 15 14 14 13 14 14 14 15 16 16 17 17 18 19 20 20 21 21 21

GEFSGL_500_meanwind_030.txt.gz
Wind_Speed
59 59 59 59 59 59 58 57 56 55 54 52 49 47 45 42 40 39 37 35 34 33 31 30 28 27 25 24 22 22 21 21 21 22 24 26 26 26 26 26 26 25 25
64 64 63 63 63 63 63 63 62 61 59 57 55 53 50 47 44 42 39 37 35 33 32 30 28 27 26 24 22 21 21 20 21 22 23 25 26 26 26 26 26 26 25
70 70 70 69 69 69 68 67 66 65 64 62 60 57 54 52 49 45 42 40 37 35 33 31 29 27 25 24 22 21 20 20 20 21 23 24 25 26 26 26 26 25 25
75 75 74 74 75 74 74 73 72 71 70 68 66 63 59 55 51 49 46 42 40 37 35 32 29 27 26 24 22 21 20 19 20 20 22 24 25 26 26 25 25 24 24
65 64 64 65 67 69 71 73 75 75 75 74 72 69 65 61 56 53 50 46 43 39 37 35 31 28 26 24 22 21 20 20 19 20 21 22 23 23 23 24 24 24 24
47 45 44 45 46 49 52 57 62 67 71 73 75 74 71 67 63 59 55 51 47 43 38 36 33 30 27 25 23 22 21 20 19 19 21 21 22 22 23 24 24 23 23
40 40 40 40 40 39 40 42 45 49 55 62 67 70 72 72 69 64 60 56 51 46 42 37 34 31 28 26 24 23 21 20 18 19 20 21 22 22 22 23 23 22 22
43 43 43 42 41 40 40 39 38 39 42 46 53 59 64 67 70 68 64 59 53 49 45 41 36 33 29 27 24 23 21 20 19 19 20 20 22 23 22 22 22 22 21
45 45 45 44 44 43 42 40 39 38 37 38 39 45 52 57 62 66 65 60 55 51 47 42 38 34 30 28 26 24 21 20 19 19 19 21 23 23 22 22 21 19 18
48 47 47 46 45 44 42 40 39 37 36 35 34 35 39 45 52 57 60 59 55 51 47 43 39 35 32 29 27 25 22 20 19 18 18 19 20 20 20 19 17 15 16
51 49 48 47 46 44 42 39 38 36 35 34 32 32 33 36 43 49 52 54 53 49 46 42 39 36 34 30 28 26 23 21 20 19 18 18 18 18 17 16 16 15 15
51 50 48 46 44 42 39 37 36 34 33 32 30 30 30 31 36 43 48 50 49 48 45 43 39 37 34 31 28 26 23 21 20 19 18 17 17 17 16 17 16 14 13
49 48 45 42 41 38 36 35 34 33 31 30 28 27 27 29 32 39 46 49 48 47 45 42 39 36 33 30 27 25 23 21 19 18 17 17 17 17 17 15 14 13 13
45 43 41 38 36 35 33 32 31 30 29 28 27 26 26 27 29 35 45 50 48 46 45 42 39 36 32 29 27 24 22 21 19 18 17 18 17 16 15 14 14 13 13
38 36 35 34 33 31 30 29 28 28 27 26 25 24 24 25 27 33 44 49 48 47 44 41 38 34 31 29 27 24 22 20 19 17 17 17 16 16 15 15 14 13 13
31 29 27 26 25 25 25 25 25 25 24 23 22 22 21 22 26 33 43 47 48 47 43 39 36 33 31 29 27 24 22 20 19 18 18 17 17 16 16 15 14 13 13
23 21 20 18 18 18 19 20 21 21 20 19 19 20 20 21 25 32 39 45 45 43 41 38 35 33 31 28 27 25 23 21 21 20 19 19 18 17 16 15 14 13 13
16 14 11 10 11 13 14 16 18 18 17 16 15 16 17 19 24 31 37 44 44 42 40 38 35 33 30 28 27 25 24 23 22 20 19 19 18 17 16 15 14 13 13
12 8 3 3 7 10 12 15 15 14 13 12 12 12 16 20 25 30 37 41 41 40 38 36 34 32 30 28 27 26 25 23 22 21 19 18 17 16 15 14 13 13 13
12 8 6 7 9 11 13 14 14 13 13 12 12 15 18 23 28 33 37 38 37 36 35 33 32 30 29 27 27 26 25 24 22 20 19 18 16 15 14 13 13 13 13
16 13 13 13 14 14 14 14 14 14 13 13 15 19 22 27 31 34 36 36 35 34 32 31 29 28 28 27 27 26 25 23 21 19 18 17 15 14 13 13 13 14 15
18 16 15 15 15 15 15 15 14 14 16 19 20 22 25 29 32 34 34 35 34 32 30 28 27 27 27 26 26 25 23 22 20 18 17 16 15 14 13 13 14 15 17
18 17 16 15 15 15 16 16 17 18 20 21 22 25 28 31 33 33 33 33 31 29 27 26 26 26 26 25 24 23 22 20 18 17 16 15 14 14 14 15 16 17 19
21 18 16 15 15 15 16 18 19 20 21 22 24 27 30 32 33 32 31 29 27 25 24 24 24 24 23 22 21 20 19 17 16 15 15 15 15 15 16 16 17 19 20
26 24 22 20 19 19 21 22 23 24 26 27 29 30 31 31 31 30 29 27 25 23 23 22 22 21 20 19 18 17 16 15 15 15 15 15 16 16 17 18 19 20 21
29 28 27 27 27 27 28 28 29 29 30 30 29 29 29 28 28 27 25 24 23 22 21 20 19 18 17 16 14 13 13 14 14 14 15 16 17 17 18 19 20 21 22

GEFSGL_500_meanwind_036.txt.gz
Wind_Speed
65 64 64 63 62 61 61 60 59 58 58 57 56 56 55 54 52 50 49 47 45 43 41 39 36 34 33 32 30 28 25 23 22 22 21 20 20 20 21 22 23 25 25
68 67 65 64 63 62 62 63 63 63 63 62 62 61 59 58 57 55 53 51 49 47 45 43 40 37 35 33 31 29 27 24 22 21 21 20 20 20 21 23 24 26 26
64 62 60 57 55 54 55 56 58 61 63 65 66 65 65 63 62 59 58 55 53 51 48 46 43 40 37 35 33 31 29 26 23 22 21 20 21 20 21 22 24 25 25
56 54 51 48 46 44 43 44 46 50 54 60 64 67 68 68 67 64 62 59 56 54 51 48 46 43 40 37 35 32 30 27 24 23 21 21 21 21 21 21 22 23 24
51 50 48 46 44 42 40 39 39 40 43 47 51 57 63 67 68 68 66 64 60 57 53 50 48 45 42 39 36 34 31 29 26 24 22 21 20 20 20 20 20 21 22
52 51 50 48 46 43 41 39 38 38 39 40 42 44 49 55 61 65 66 66 63 60 56 53 50 47 45 41 39 36 33 30 27 25 23 22 21 21 19 19 19 19 20
55 54 53 51 49 47 45 42 41 40 40 39 38 38 40 43 47 52 58 62 63 61 58 55 52 49 46 43 40 37 34 31 28 25 23 21 20 20 19 19 19 19 19
56 55 54 52 50 49 47 45 43 40 38 38 38 37 36 37 40 42 46 52 57 59 59 57 54 51 48 44 41 38 35 32 29 25 23 21 20 20 20 19 20 19 19
55 54 52 51 50 49 47 45 43 42 40 39 38 37 37 36 36 37 39 43 48 53 56 56 55 53 50 46 42 38 35 32 29 26 23 21 20 19 19 19 19 19 19
51 50 50 49 48 47 46 45 43 42 41 39 38 37 37 36 36 36 35 37 41 47 51 54 54 53 51 47 44 40 35 32 29 26 23 21 20 20 19 19 19 19 18
48 46 44 43 43 43 43 43 43 42 41 39 39 38 37 36 35 34 34 33 36 40 46 51 52 52 51 48 45 41 37 33 29 26 23 21 20 20 20 19 19 18 18
44 41 39 37 37 38 38 39 40 39 39 38 38 37 36 35 34 33 32 31 32 36 41 47 49 49 48 48 45 42 38 34 30 27 24 22 20 19 19 19 18 18 18
38 35 32 30 29 30 31 33 35 35 35 35 35 34 33 33 32 32 30 29 30 33 39 45 47 46 47 47 45 41 38 33 29 26 24 22 20 19 19 19 18 18 19
34 30 27 24 23 22 23 25 27 28 29 29 30 30 30 30 30 30 29 29 29 33 40 44 46 46 46 45 43 41 38 33 29 27 24 21 20 19 19 19 19 19 19
31 26 22 18 16 15 15 17 19 21 24 25 25 25 26 27 27 27 27 28 30 34 41 46 47 48 47 45 42 40 36 32 28 26 23 21 20 20 20 20 20 19 19
30 25 19 14 9 6 7 9 13 16 19 21 22 23 23 24 25 25 25 27 30 34 43 47 47 49 47 44 40 36 33 30 27 25 23 22 21 21 20 20 20 19 19
30 26 20 14 8 3 1 5 8 12 15 17 19 20 21 22 23 24 23 25 29 34 42 47 49 50 47 42 39 34 31 29 27 24 23 23 22 21 21 20 20 19 19
29 26 22 17 13 9 6 5 7 8 11 13 15 17 18 19 20 21 22 23 28 33 40 46 50 48 44 40 37 34 31 28 26 24 24 23 22 22 21 21 21 20 20
29 26 23 20 17 13 10 8 7 7 8 10 12 14 15 17 19 19 19 22 28 36 42 44 46 45 42 40 36 33 31 28 26 25 25 24 23 23 23 22 22 21 20
29 26 23 21 18 16 13 11 9 8 8 9 10 12 13 15 17 18 19 24 32 38 40 41 42 42 41 39 36 34 31 28 27 26 25 24 24 24 24 23 22 21 20
30 28 25 22 20 18 16 15 13 11 11 11 11 13 15 17 19 21 24 27 31 34 38 40 39 39 39 37 35 33 31 29 28 26 26 25 25 24 23 22 22 21 20
30 28 26 24 22 20 19 18 17 16 16 16 17 18 20 22 24 26 28 29 32 34 37 37 36 36 35 34 32 31 29 28 27 26 25 25 24 23 23 22 21 20 20
30 28 26 25 24 22 21 20 20 19 19 19 20 22 24 25 27 28 30 31 31 32 33 33 33 33 32 31 30 30 29 28 27 26 25 24 24 23 22 22 21 21 20
31 29 27 26 24 23 21 21 20 20 21 22 24 26 26 27 29 30 30 31 30 30 30 30 30 29 28 28 28 28 28 27 26 25 24 23 23 22 21 21 21 20 21
30 29 28 26 25 24 23 23 23 23 24 24 26 28 29 30 30 31 30 29 28 28 28 28 27 26 26 26 26 26 25 25 24 23 22 21 21 20 20 20 20 21 21
30 29 27 27 26 25 25 25 25 25 25 26 27 29 30 31 30 29 28 28 27 27 26 25 24 24 23 23 23 23 23 22 21 20 19 19 19 19 19 19 20 21 22

GEFSGL_500_meanwind_042.txt.gz
Wind_Speed
46 45 45 46 47 47 47 48 50 52 55 58 61 63 64 64 63 62 61 59 57 55 54 51 49 47 44 42 40 38 35 32 30 28 27 24 23 21 20 19 19 19 19
50 50 50 50 50 49 49 49 49 49 51 54 57 60 64 67 68 68 66 65 63 60 59 57 54 52 49 46 43 40 38 35 32 30 28 25 24 22 20 19 19 19 19
54 55 55 55 54 53 51 50 50 49 49 50 53 56 60 64 68 70 70 70 69 66 63 61 59 56 53 50 46 43 40 37 34 31 29 27 24 23 21 20 19 19 19
57 58 58 58 57 56 54 53 51 50 49 49 50 52 54 58 63 67 71 72 72 70 68 64 62 59 57 53 50 46 43 40 36 33 30 28 26 23 22 20 19 20 20
59 60 60 60 59 57 55 53 51 50 49 48 48 48 49 52 55 58 63 69 72 72 71 68 64 61 59 56 53 49 46 43 39 35 32 29 27 24 23 21 20 20 20
61 61 60 58 57 55 54 51 50 49 49 49 48 48 47 48 49 52 55 59 64 69 70 70 68 64 61 59 56 52 48 45 42 38 33 30 28 26 24 22 21 20 20
59 58 57 57 55 54 52 50 48 46 46 47 47 47 47 46 45 45 47 49 53 58 64 68 68 66 63 59 57 55 50 47 43 40 35 32 30 27 25 23 22 21 20
58 58 56 55 52 49 47 46 44 43 43 44 45 45 45 44 43 42 42 43 45 48 52 58 63 65 66 61 56 54 51 48 44 41 37 34 31 29 26 24 23 22 20
57 55 53 51 47 44 42 39 38 38 39 40 42 43 44 43 43 42 40 39 39 41 43 46 52 58 62 62 58 54 52 49 45 42 39 36 33 30 27 25 23 22 21
55 52 49 45 41 39 35 33 31 32 33 36 40 41 42 42 41 41 40 38 36 36 38 39 43 48 53 58 58 55 52 49 46 43 40 37 34 31 28 25 24 22 21
51 49 45 41 38 34 30 27 26 27 29 32 36 38 40 40 40 40 39 37 35 34 34 35 36 41 46 51 54 55 52 50 47 44 41 37 34 31 29 26 24 23 22
49 47 43 38 34 30 25 21 20 21 23 26 30 33 36 37 37 37 37 35 34 33 33 33 33 36 42 47 51 52 51 49 47 45 41 37 34 31 29 27 25 24 23
46 44 40 36 32 28 22 17 14 14 17 21 25 28 31 34 34 35 35 34 33 32 32 32 32 34 38 43 48 51 50 49 47 44 41 38 35 32 30 28 26 25 23
44 42 38 35 31 27 21 15 9 7 11 16 21 24 27 31 32 33 33 33 32 31 31 32 31 32 36 41 46 48 49 48 46 43 41 38 35 32 30 28 27 25 24
43 41 37 34 30 26 21 15 9 3 5 11 16 20 24 27 30 31 32 32 31 31 31 31 31 33 36 39 44 47 48 47 46 43 41 39 36 33 31 29 27 25 24
41 39 37 34 30 26 22 17 12 6 2 8 12 16 19 23 26 28 29 29 30 30 31 31 32 34 36 41 45 46 47 47 45 43 41 38 36 33 31 29 27 26 25
40 38 36 34 30 26 22 18 14 8 3 4 9 12 16 19 22 24 26 27 28 29 30 31 32 33 36 42 47 46 46 46 44 41 39 37 35 33 31 30 28 26 25
39 37 35 33 31 27 23 19 15 10 6 4 6 9 12 15 18 21 23 24 26 27 28 29 31 33 37 42 47 46 45 45 44 41 39 36 34 33 31 29 28 27 26
39 37 35 32 30 27 24 20 16 11 8 6 5 7 10 12 15 18 20 22 23 24 25 27 30 33 37 43 47 46 44 45 44 41 38 36 34 32 31 30 28 27 26
39 37 34 32 30 27 25 21 18 14 10 7 6 7 8 10 13 15 17 20 20 21 23 25 29 33 37 42 45 45 44 45 43 40 37 35 33 32 30 28 27 27 26
38 36 34 32 30 28 25 22 19 15 12 8 7 7 8 10 12 13 15 17 18 19 21 23 26 32 36 39 43 43 43 43 41 38 37 34 32 30 29 28 27 26 25
36 35 33 31 30 28 26 24 20 17 15 13 12 11 11 11 12 13 14 15 17 18 20 22 26 31 35 39 41 41 41 40 38 36 34 33 31 29 28 26 26 25 24
34 33 33 31 30 29 28 26 22 20 18 17 16 15 14 14 15 15 16 18 19 20 21 24 28 34 37 38 38 38 37 36 35 33 31 29 28 27 26 25 24 24 23
32 32 32 31 30 29 28 27 25 23 22 21 20 18 18 17 18 19 20 22 23 24 26 29 32 35 36 36 35 35 34 33 32 30 29 27 26 25 24 23 22 22 21
29 29 29 30 30 29 27 26 26 25 25 24 24 23 22 23 23 24 24 25 27 29 30 31 33 33 33 32 31 30 29 29 27 26 25 25 24 23 22 21 21 20 20
25 26 26 27 28 27 26 26 25 25 26 26 26 26 26 25 25 26 26 28 29 29 29 30 29 29 28 27 26 25 25 24 23 22 22 22 22 21 20 19 19 19 19

GEFSGL_500_meanwind_048.txt.gz
Wind_Speed
38 39 40 42 44 45 46 48 48 49 50 52 53 54 55 58 59 61 63 64 64 62 59 56 54 51 49 48 47 45 43 42 41 39 37 34 31 28 25 23 21 19 18
40 42 43 45 47 48 49 49 50 51 52 53 53 55 56 57 59 62 65 67 68 68 66 63 59 57 55 53 50 48 46 45 43 41 40 37 34 31 28 25 23 21 19
42 44 46 47 48 49 50 51 52 53 53 54 54 54 55 57 58 60 62 66 70 71 71 69 65 62 60 58 55 52 50 48 46 44 42 40 37 34 30 27 24 22 20
44 45 47 49 50 51 51 52 52 53 53 54 54 55 55 56 58 60 61 62 66 70 73 73 71 69 64 61 59 57 54 51 48 46 44 42 39 36 32 29 26 24 22
45 46 48 50 50 51 51 51 51 51 51 52 54 55 56 56 57 59 60 62 63 66 70 74 75 74 70 66 62 60 57 55 51 49 46 43 41 38 35 32 29 26 24
46 48 49 50 50 50 50 50 50 49 49 49 50 52 54 56 57 58 59 61 61 62 64 69 72 74 74 71 68 65 60 57 54 51 48 45 42 40 38 35 32 28 26
47 48 49 50 49 49 49 48 47 45 44 44 45 46 49 52 54 56 57 58 59 59 60 62 67 70 71 72 70 67 63 59 57 54 52 48 44 42 40 38 34 31 28
47 48 50 50 49 48 47 45 42 40 39 38 39 40 43 46 50 53 55 57 57 57 57 58 60 64 66 69 70 69 67 62 59 57 53 50 48 46 43 40 37 33 29
47 49 50 49 47 46 44 41 39 35 33 33 33 35 37 41 44 47 49 51 53 53 54 54 55 57 61 64 66 67 67 64 60 58 56 53 50 48 45 41 37 34 31
48 49 49 48 46 43 41 38 35 31 29 28 27 28 30 35 39 41 44 45 47 48 49 50 51 51 54 57 59 61 62 64 62 59 58 56 52 49 45 43 39 35 32
48 48 48 47 45 42 39 35 32 29 26 23 21 21 23 27 32 36 40 41 42 43 44 45 45 46 48 50 53 56 57 60 61 59 57 56 53 51 47 43 40 36 33
47 47 47 46 43 40 37 33 30 27 23 18 15 15 18 22 26 30 34 36 37 39 39 40 41 41 43 45 47 50 53 56 57 57 56 55 53 50 47 44 41 37 33
46 46 45 44 42 38 34 31 27 24 20 15 10 9 12 16 21 25 28 32 33 35 35 36 38 37 38 40 43 46 49 53 55 56 55 54 52 50 47 43 40 37 34
45 45 44 42 40 37 33 29 26 22 18 13 8 5 7 12 17 21 25 28 30 32 32 32 34 35 34 35 37 41 45 48 51 52 53 53 51 49 45 43 40 37 35
44 43 42 41 39 35 32 28 24 21 17 12 7 2 5 10 15 19 22 24 27 28 30 30 31 32 32 32 32 35 40 45 48 51 50 50 50 49 45 42 39 37 35
43 42 41 40 38 34 31 27 23 21 17 11 6 1 4 9 13 17 20 22 24 26 27 28 29 30 30 30 30 32 37 42 46 48 50 49 47 47 45 42 39 37 35
42 41 40 39 37 34 30 26 22 20 17 12 6 2 4 7 11 14 18 20 22 25 26 27 28 28 29 29 28 30 35 40 43 45 47 48 47 46 44 41 39 37 35
40 39 39 38 36 33 30 25 22 18 16 12 7 2 3 7 10 13 16 18 21 23 25 26 26 27 28 28 27 30 35 39 41 42 45 47 46 45 43 40 38 36 35
39 38 37 37 35 32 29 25 22 19 15 12 8 4 4 7 9 12 15 17 19 21 23 24 25 26 27 27 28 31 36 39 41 42 43 45 45 43 41 39 38 36 34
37 37 37 35 34 32 29 25 23 19 15 12 9 6 5 6 8 11 14 16 18 20 22 23 24 25 26 27 30 33 36 40 41 42 43 44 43 42 40 38 37 35 32
35 36 36 35 33 31 29 26 23 19 15 13 11 8 7 7 8 10 12 14 16 19 21 22 23 24 26 27 30 33 37 40 41 42 44 42 41 40 38 37 36 34 31
32 33 34 33 32 31 29 26 23 20 17 14 12 10 9 8 9 10 11 13 15 16 18 20 22 24 26 28 30 32 35 38 40 41 42 42 41 39 37 35 34 32 30
29 31 31 31 31 30 29 26 23 20 19 17 15 12 10 9 9 10 12 13 14 15 17 20 22 24 25 26 28 32 35 38 39 42 41 39 37 36 34 32 31 31 29
26 27 28 29 28 28 28 27 24 22 19 18 18 17 14 12 12 12 13 14 14 16 18 20 21 23 24 27 29 32 34 35 36 37 36 35 34 34 32 31 30 29 28
23 24 25 26 25 25 26 26 25 23 21 19 17 16 15 15 14 14 13 14 15 17 18 19 21 23 25 27 29 31 33 34 34 32 32 32 32 31 29 28 27 26 26
19 20 21 22 23 22 23 24 24 24 23 21 19 17 17 16 16 15 15 16 17 19 20 21 23 24 26 28 30 31 32 31 30 30 30 30 28 27 26 25 24 24 23

GEFSGL_500_meanwind_054.txt.gz
Wind_Speed
40 39 38 38 39 39 40 41 42 43 44 45 47 48 49 49 49 49 49 49 49 50 50 51 51 50 48 47 45 43 42 44 42 40 40 39 38 37 36 34 32 29 26
40 39 39 39 40 41 42 43 44 45 46 47 48 49 50 51 51 52 52 52 52 52 52 53 54 54 53 51 49 47 46 44 43 42 41 39 39 39 38 37 34 31 29
41 40 40 41 42 43 43 45 45 46 47 48 49 49 50 51 52 53 54 54 54 54 54 55 57 57 57 56 54 51 49 47 45 45 43 41 41 40 39 39 37 34 31
42 41 42 42 43 43 44 45 46 47 49 49 48 48 49 49 50 51 53 54 54 54 54 55 58 59 60 59 58 56 53 51 48 47 46 44 42 42 40 40 39 37 34
43 42 43 43 43 44 45 46 47 47 47 47 47 47 47 47 47 48 49 50 51 53 53 54 56 60 61 61 60 59 58 55 52 49 49 47 44 43 41 41 40 38 36
43 43 43 43 44 45 46 46 46 46 46 46 46 45 44 44 45 46 46 47 48 50 52 53 54 57 60 61 62 61 61 59 57 53 50 49 46 44 43 42 41 40 38
43 43 44 44 44 45 45 46 46 45 45 44 43 42 41 41 41 42 43 44 45 46 49 51 54 54 57 59 61 61 61 61 59 56 53 50 48 46 45 43 42 41 40
43 43 44 44 44 44 45 46 45 44 43 41 40 39 38 37 38 38 39 40 41 42 45 49 51 51 53 56 58 59 60 60 60 59 56 52 49 47 46 45 43 42 41
44 44 44 44 44 44 45 45 44 42 40 38 36 35 34 33 33 33 34 35 37 39 42 45 47 47 49 51 53 55 56 58 59 59 59 58 54 48 46 45 44 42 40
44 44 44 44 44 44 44 44 42 40 37 35 33 32 31 30 29 28 28 30 32 35 39 43 45 45 45 47 49 51 53 54 55 56 57 58 55 51 47 44 43 43 41
44 44 44 44 44 43 43 43 40 38 36 33 32 30 29 28 26 25 24 25 28 31 35 39 42 44 44 43 44 47 49 51 52 53 54 55 54 52 48 45 43 41 41
44 44 44 43 43 43 43 41 38 37 34 32 30 28 27 24 22 19 18 21 24 27 31 34 39 41 42 42 42 43 45 47 48 50 52 53 52 51 48 46 43 40 40
43 44 43 43 43 43 41 39 37 35 33 31 28 26 24 21 18 15 14 16 20 24 27 31 35 37 38 39 40 41 42 43 44 45 47 49 51 51 48 46 43 42 40
43 43 43 42 42 42 40 39 37 34 32 28 25 23 20 17 13 10 9 12 16 20 25 27 30 33 34 36 38 38 39 39 40 41 42 45 47 49 48 46 43 42 40
42 42 42 42 42 41 39 38 37 33 30 26 23 21 16 13 11 7 5 9 14 19 22 25 28 30 32 33 34 35 36 37 38 38 40 42 44 46 47 45 44 43 42
41 41 41 41 40 40 38 36 35 32 28 24 22 19 15 11 8 4 4 9 13 17 21 23 24 27 28 29 31 32 33 34 36 37 39 40 40 42 44 44 43 44 42
41 40 40 40 39 38 37 35 33 30 27 24 20 17 13 9 7 3 3 7 12 16 19 21 23 25 26 27 29 30 30 32 33 36 38 39 40 41 42 42 41 41 41
39 39 39 38 38 37 36 34 31 29 26 23 20 16 12 8 5 3 3 7 11 15 18 20 22 23 24 26 27 28 29 30 32 34 36 38 39 41 41 41 42 41 40
38 37 37 37 37 36 35 33 31 28 26 23 19 15 12 8 5 3 4 7 11 14 17 18 19 21 22 23 24 26 28 29 31 33 35 36 37 39 40 40 41 41 40
36 35 35 35 36 36 34 32 30 27 25 22 18 14 11 9 6 4 5 7 10 12 15 17 18 19 20 20 22 24 26 28 29 32 34 36 36 38 39 40 41 41 40
35 33 33 33 34 34 33 31 29 27 24 22 18 14 10 8 6 4 5 7 9 10 13 15 17 18 19 19 20 23 25 26 28 30 33 35 35 36 38 40 41 41 40
33 32 31 31 32 32 32 30 28 26 24 21 18 14 11 7 5 3 3 6 8 9 12 14 16 17 18 18 19 21 22 24 27 30 32 34 36 37 38 39 39 39 39
32 30 29 28 29 30 30 29 28 26 24 21 19 16 12 9 5 2 2 4 7 9 11 13 15 15 16 16 17 18 20 21 24 28 32 34 35 37 38 38 37 38 37
30 28 27 26 26 27 28 27 26 25 23 21 19 16 13 11 8 4 1 3 6 9 11 13 14 14 15 15 16 18 19 20 23 28 31 32 34 36 37 38 38 37 36
28 26 25 24 24 24 25 24 24 24 22 20 19 17 15 12 10 7 4 4 6 8 10 11 12 14 14 15 15 16 18 21 24 27 30 31 33 35 36 36 37 36 35
26 24 23 21 21 21 22 22 21 21 21 20 19 18 16 15 12 10 8 7 8 8 9 10 11 12 14 15 16 17 19 21 23 26 29 30 31 32 32 33 33 32 32

GEFSGL_500_meanwind_060.txt.gz
Wind_Speed
39 39 39 39 39 39 39 39 39 39 39 39 39 39 40 40 41 41 41 42 41 41 40 40 40 40 41 40 41 41 41 41 41 41 40 39 40 42 43 43 42 40 38
40 40 40 40 40 40 39 39 39 39 39 39 40 40 41 41 42 43 44 44 45 44 44 43 44 44 43 43 43 43 43 43 43 43 42 40 42 43 44 44 43 42 41
40 40 40 40 40 40 40 39 40 39 39 40 40 41 42 42 43 44 45 46 46 46 46 46 46 46 47 46 46 46 45 44 45 44 42 42 43 44 44 45 45 44 43
41 41 41 41 41 40 40 40 40 40 40 40 41 41 42 42 43 44 45 46 46 47 47 46 47 48 48 49 49 49 49 48 48 46 45 45 44 44 45 45 46 45 45
42 42 42 42 41 41 41 40 40 39 40 40 41 41 41 42 43 44 44 45 45 46 46 47 47 48 50 51 52 52 53 53 52 50 48 49 48 46 45 46 46 46 46
43 43 43 42 42 41 41 40 40 40 40 40 40 40 41 42 42 43 43 43 44 44 45 45 47 48 50 51 53 55 56 55 55 55 53 51 49 48 47 47 47 47 46
44 44 43 43 42 41 41 40 40 40 40 40 40 40 40 41 41 40 40 40 40 41 42 43 46 48 50 52 53 55 56 57 58 58 58 55 51 49 48 47 47 47 48
45 45 44 43 42 41 41 40 40 40 40 40 39 39 39 39 38 38 38 37 37 37 39 41 43 46 48 50 53 55 56 57 59 59 59 58 56 53 50 48 48 48 49
45 45 45 44 42 41 41 41 41 41 40 39 39 38 38 37 36 36 36 35 34 35 37 39 41 44 47 49 52 54 56 58 60 60 60 60 59 56 53 51 49 49 49
45 45 45 44 42 41 41 41 41 40 39 38 38 38 36 34 34 33 32 32 33 34 35 37 39 41 44 47 50 53 55 57 59 61 61 61 60 58 57 53 50 49 47
46 45 45 44 43 42 41 41 41 40 39 38 37 36 34 32 31 30 29 28 28 29 30 32 35 37 41 44 46 49 52 54 57 59 60 60 59 58 57 55 52 50 47
47 46 45 44 43 42 41 41 41 40 38 37 36 35 32 30 27 26 24 23 23 23 24 27 30 34 37 41 44 47 49 51 54 56 58 59 59 58 56 56 53 50 48
47 46 45 44 42 42 41 40 40 39 37 36 35 33 30 27 24 22 19 17 17 17 19 22 26 31 34 37 40 44 46 48 50 51 54 57 58 58 56 55 53 50 46
46 45 44 43 42 41 41 40 40 39 36 34 34 31 28 24 21 19 15 12 11 12 14 18 22 27 32 34 37 40 42 44 47 48 51 54 56 57 56 54 53 53 48
46 45 44 43 41 41 40 40 39 38 36 33 31 30 26 23 20 16 12 9 8 9 10 14 19 24 29 32 34 37 39 42 45 46 48 51 53 55 55 55 53 53 50
45 45 43 42 41 40 39 39 38 37 35 32 30 28 25 21 18 14 10 7 5 5 7 12 17 22 25 28 31 35 37 41 43 45 46 48 50 52 53 53 53 51 49
44 44 43 41 40 39 39 38 37 36 33 31 29 27 24 20 17 13 9 6 2 3 6 10 14 19 23 26 29 32 35 38 41 43 45 46 48 49 51 52 51 50 49
44 43 42 40 38 38 38 37 36 34 32 28 27 25 22 19 16 12 8 5 3 2 6 9 12 15 19 25 28 31 33 36 39 41 42 43 45 48 50 50 49 49 48
43 42 41 39 37 37 37 36 35 33 31 28 26 24 20 18 15 11 8 5 3 3 6 8 10 13 17 22 25 28 31 34 36 37 40 41 43 46 48 49 48 47 47
42 41 39 38 36 35 35 35 33 31 30 27 25 22 19 16 14 10 7 5 3 3 5 8 10 12 16 20 23 26 28 32 33 35 38 40 42 44 47 48 48 47 46
40 39 38 36 35 33 33 32 31 30 28 26 24 21 18 15 12 10 7 4 2 3 5 8 11 12 15 18 21 24 26 29 32 33 36 38 41 44 46 46 47 47 47
38 38 37 35 33 32 31 30 29 28 27 25 23 21 17 15 12 9 6 3 2 3 5 8 10 12 14 17 19 21 24 27 30 32 35 37 40 43 45 46 44 45 46
37 36 35 33 31 30 28 27 26 26 26 25 22 21 18 15 12 8 6 3 2 3 5 7 9 11 13 15 16 18 22 26 28 30 33 35 38 40 43 45 44 45 45
34 34 33 31 29 27 26 25 24 24 24 23 22 21 18 16 12 8 5 3 3 4 6 7 9 11 12 13 15 17 19 22 25 27 30 33 35 38 40 42 44 45 45
33 32 30 29 27 25 23 22 21 22 22 21 21 21 19 16 13 9 6 3 3 4 5 7 9 10 11 12 13 15 17 19 21 23 26 30 33 37 39 40 43 45 45
31 29 28 26 25 23 21 20 19 18 19 19 19 20 19 16 14 11 7 4 2 2 4 6 8 9 9 10 11 13 15 17 20 22 25 28 32 34 36 38 41 43 43

GEFSGL_500_meanwind_066.txt.gz
Wind_Speed
32 33 33 33 34 34 35 35 36 36 36 37 37 37 37 37 37 37 37 37 37 37 38 39 40 40 40 40 39 39 38 39 38 39 40 40 41 41 41 43 43 44 43
33 34 34 35 35 36 36 37 37 37 37 37 37 37 37 37 37 37 37 37 37 38 39 40 41 42 42 42 42 41 41 41 41 40 40 42 42 43 43 44 44 44 44
34 35 36 36 37 38 38 38 39 39 39 39 38 38 37 37 37 38 37 37 38 39 40 41 41 43 43 44 44 44 44 44 43 42 42 42 43 44 45 45 46 46 46
35 36 37 38 39 40 40 40 41 41 40 40 40 39 38 38 38 38 38 39 39 39 40 41 42 43 44 44 45 46 47 46 46 45 45 45 44 45 44 47 47 47 47
37 38 39 40 41 41 42 42 42 42 41 41 41 40 39 39 39 39 38 38 39 39 40 42 43 44 45 46 47 47 49 49 48 48 47 47 46 47 46 47 47 48 49
38 39 40 41 42 43 43 43 43 43 42 42 41 40 40 40 40 39 39 39 39 39 40 42 44 45 46 48 48 49 50 51 51 51 50 49 49 48 47 47 47 48 49
39 40 41 42 43 44 44 44 44 44 43 42 41 41 41 41 40 39 39 39 39 39 40 41 42 43 46 48 49 50 51 52 53 54 53 51 52 50 49 48 48 48 48
40 42 43 43 44 45 45 45 45 44 44 42 42 42 41 40 39 38 39 39 38 38 38 39 40 41 43 46 47 49 51 52 54 55 55 54 53 52 50 49 49 50 50
42 43 44 44 45 45 45 45 45 45 44 43 42 42 40 39 39 39 38 37 37 37 37 37 38 39 41 43 46 47 49 51 53 55 56 56 56 54 53 52 51 51 50
43 43 44 45 46 46 46 46 45 45 44 43 43 41 39 38 39 39 38 36 35 35 35 36 36 37 39 41 42 45 47 50 53 55 56 57 58 57 55 53 52 51 52
43 45 45 46 46 46 46 46 46 45 44 43 42 41 39 39 38 37 35 33 32 31 31 32 33 34 36 39 41 43 46 49 52 54 56 58 58 58 58 54 53 51 52
44 45 46 46 47 47 46 46 45 45 43 42 41 40 39 38 37 34 32 31 28 27 27 27 28 30 33 35 38 40 44 48 51 53 54 55 57 58 59 58 55 53 52
45 46 46 47 47 47 46 45 45 44 42 42 41 39 37 36 34 32 29 27 25 23 23 22 22 24 27 30 34 38 41 45 48 50 52 53 55 58 59 59 57 55 54
46 47 47 48 47 47 46 45 44 43 42 41 39 37 35 34 32 30 27 25 22 21 19 17 17 18 21 25 30 34 37 41 44 47 49 51 54 56 57 58 59 57 56
47 48 48 48 46 46 46 45 44 42 41 40 38 36 33 32 30 27 24 22 20 18 16 14 13 14 16 20 25 29 33 36 40 44 46 49 51 54 55 56 57 58 57
48 48 48 47 46 46 45 44 43 42 40 39 37 35 32 30 27 24 22 20 19 16 13 11 10 10 12 15 20 24 29 33 37 40 43 45 47 51 53 54 55 57 57
48 48 47 47 46 46 44 42 40 40 39 38 36 33 30 27 24 23 21 19 17 14 11 9 7 7 9 12 16 20 25 29 34 37 40 41 43 46 50 52 52 54 55
48 47 46 45 44 44 43 41 39 38 36 36 34 32 28 25 23 22 20 17 15 13 10 8 6 4 6 10 15 18 21 24 28 32 35 38 40 42 46 50 51 52 52
48 46 45 43 43 42 41 40 38 37 35 34 33 30 27 24 22 21 19 16 14 11 9 6 4 2 5 8 13 16 19 22 26 28 31 34 36 39 42 46 50 50 50
47 45 43 41 41 40 39 38 37 35 34 33 31 28 26 24 22 20 18 14 12 10 8 6 3 2 3 7 11 14 17 20 23 26 29 32 34 37 40 43 47 48 48
46 43 41 39 39 38 37 36 35 33 32 31 29 27 26 24 22 19 16 13 11 9 7 5 2 2 3 6 9 13 16 18 21 23 26 29 32 35 37 41 44 45 47
44 41 39 38 36 35 35 34 33 31 30 28 28 26 25 24 22 19 16 12 9 7 6 4 2 2 4 6 8 12 14 16 19 21 24 27 31 34 37 40 43 45 46
42 39 37 35 34 33 33 32 31 29 28 26 26 25 24 22 20 18 15 11 9 6 4 2 1 2 4 6 8 11 14 16 18 20 23 26 29 33 36 38 39 42 45
40 36 34 32 32 31 30 29 28 27 25 24 24 23 22 21 18 16 14 11 9 6 4 2 2 3 4 5 7 9 12 15 17 19 21 24 27 29 32 35 38 39 42
37 34 32 30 29 28 27 26 25 24 23 22 21 21 20 19 17 16 13 11 9 7 4 3 2 3 4 6 7 9 11 13 15 18 21 24 26 28 29 31 35 38 40
34 32 29 27 27 26 25 24 23 21 21 19 19 19 19 18 16 14 13 11 10 8 5 3 2 3 5 5 7 8 11 13 14 17 20 23 25 27 28 30 32 35 37

GEFSGL_500_meanwind_072.txt.gz
Wind_Speed
21 22 23 23 24 25 27 28 29 30 31 31 32 33 33 34 34 34 35 35 35 35 35 36 37 38 38 39 40 41 41 41 41 42 43 43 43 42 42 43 43 42 40
22 23 24 25 26 28 29 30 31 32 33 34 34 35 35 36 36 36 35 35 35 35 36 36 37 38 38 39 40 41 42 42 42 42 44 44 43 43 43 43 44 43 42
23 24 25 27 28 30 31 32 33 34 35 36 37 37 37 37 37 37 36 36 36 36 36 36 37 38 39 40 41 41 42 43 43 43 44 45 45 44 44 44 44 44 43
24 25 27 29 31 32 33 34 35 37 37 38 39 39 39 38 38 38 37 37 36 36 37 37 38 39 39 40 42 42 43 44 45 45 45 45 46 45 45 44 44 44 44
26 27 29 31 33 34 35 37 38 39 40 40 40 40 40 39 39 38 37 37 37 37 37 37 37 38 39 40 42 43 44 45 45 46 46 46 47 46 45 45 45 45 45
27 29 31 33 35 36 37 39 40 41 41 42 42 41 41 40 39 38 38 37 37 36 36 36 37 37 38 40 42 43 45 46 46 47 48 48 47 48 47 46 45 45 45
29 31 33 35 36 38 39 40 41 42 43 43 42 42 41 40 39 38 37 37 36 36 36 36 37 37 38 40 42 43 45 47 48 49 49 49 49 49 49 48 47 46 45
30 32 34 36 38 39 41 42 43 44 44 43 43 42 40 39 39 38 37 37 36 35 35 36 36 37 38 39 40 42 44 46 48 50 50 50 50 51 50 50 49 48 47
31 33 35 37 39 41 43 44 45 45 44 44 43 41 40 39 38 38 37 36 35 35 35 35 35 36 37 38 40 41 43 44 47 49 51 52 52 52 53 52 51 49 47
33 35 37 39 41 42 44 45 45 45 44 44 42 41 40 39 38 37 36 35 33 33 33 33 33 33 35 37 38 39 41 42 44 47 50 52 53 53 54 54 52 51 49
34 37 39 41 43 44 46 46 46 45 44 43 41 40 39 38 36 35 34 33 31 30 30 29 29 30 31 32 33 35 38 40 43 44 47 50 52 54 54 55 54 52 50
37 39 41 43 45 46 47 47 46 45 44 42 40 39 38 37 36 34 33 31 29 28 27 27 27 27 28 28 29 32 35 37 40 42 44 47 50 52 53 54 54 54 52
39 41 43 45 46 47 48 47 46 44 43 41 40 38 37 36 35 33 31 29 28 27 26 26 26 26 25 25 26 29 32 35 37 39 42 44 47 50 51 53 54 55 53
42 44 45 47 47 48 48 47 46 44 42 40 39 38 37 36 34 32 30 28 26 26 25 24 24 23 23 23 23 25 28 31 35 37 40 43 45 47 49 51 53 55 53
45 46 47 48 49 48 48 47 46 44 42 40 39 38 36 35 33 31 29 27 25 24 23 23 22 21 21 20 20 20 23 27 31 35 38 41 43 46 48 49 51 53 53
47 48 49 50 49 48 48 46 45 43 41 39 38 37 36 34 32 29 28 27 25 23 22 21 20 19 18 17 16 17 20 24 28 32 35 38 41 44 46 47 49 51 53
48 49 50 50 49 49 48 45 43 41 39 38 37 36 35 33 31 29 28 26 23 22 20 19 19 18 17 15 14 14 16 21 25 29 33 36 39 41 44 45 47 49 51
49 50 50 49 50 49 47 44 41 39 38 37 36 35 34 31 30 29 27 24 21 20 19 18 18 17 16 14 12 12 14 17 22 27 30 33 36 39 41 43 44 47 49
50 49 49 50 50 48 45 42 40 38 36 35 34 34 32 30 28 28 26 23 20 19 18 17 16 15 14 12 10 9 11 15 19 24 27 31 33 36 39 41 42 44 46
51 50 49 49 48 46 44 41 38 36 34 33 32 31 30 28 27 26 24 22 20 18 17 16 15 13 11 10 8 8 10 13 17 21 24 28 31 34 36 38 40 42 43
50 49 48 47 45 44 42 39 36 34 32 31 30 30 28 27 25 24 22 21 19 17 15 14 13 11 9 8 7 7 9 12 15 19 22 25 29 31 34 36 39 41 42
50 49 47 45 44 42 39 37 34 32 30 29 28 27 26 25 23 22 21 20 18 16 14 12 11 10 9 7 7 7 10 12 15 18 21 24 27 30 32 33 36 39 40
49 47 45 44 42 39 37 34 32 29 28 27 26 24 24 23 21 20 20 19 17 16 13 11 10 9 8 7 7 8 10 12 15 18 20 23 26 29 31 33 34 36 39
48 46 44 42 39 36 33 31 29 26 25 25 24 23 22 21 20 19 18 16 15 15 13 11 9 8 8 7 7 8 9 11 14 18 19 22 24 27 30 32 33 35 37
47 44 42 39 36 33 30 27 26 24 23 23 22 21 20 19 18 17 16 15 14 13 12 10 8 8 7 8 8 9 10 11 14 16 19 21 23 26 30 32 33 34 36
44 42 39 35 32 29 27 25 23 22 21 20 20 19 18 17 16 15 15 14 12 12 11 9 7 6 6 7 8 9 11 13 14 16 18 20 22 24 27 30 32 33 36

GEFSGL_500_meanwind_078.txt.gz
Wind_Speed
20 21 21 22 22 23 24 26 27 28 29 30 31 32 33 34 34 35 36 36 36 36 37 37 37 37 38 38 38 38 39 39 39 38 39 40 40 40 40 40 40 41 41
20 21 22 22 23 24 26 27 28 29 30 31 33 34 35 36 36 37 37 37 37 37 38 38 38 38 38 38 39 39 39 39 39 39 39 40 40 40 40 41 40 40 40
20 21 22 22 24 25 27 28 29 30 31 33 34 36 37 38 38 38 38 38 38 39 38 38 38 38 38 38 39 39 39 40 40 40 39 40 40 41 41 41 41 41 41
21 22 23 23 25 26 28 29 30 32 33 35 37 39 39 40 40 39 39 39 39 39 38 37 37 37 37 38 38 39 40 40 41 41 40 40 41 41 41 42 42 41 42
22 23 24 25 26 27 29 30 32 33 35 37 39 40 41 41 41 41 40 40 40 39 38 38 37 37 37 37 37 38 39 40 41 42 41 41 41 41 42 42 42 42 42
24 25 26 26 28 29 30 32 34 35 37 39 41 42 43 43 42 42 41 40 39 39 38 38 37 37 37 37 37 37 37 38 39 40 41 41 41 42 42 42 42 42 42
25 27 28 29 30 31 33 34 36 38 39 41 43 44 44 44 43 42 41 40 39 38 37 36 36 36 35 35 35 35 36 37 38 39 39 40 41 42 43 43 43 43 42
27 29 30 31 32 33 35 36 38 39 41 43 45 45 45 45 44 43 41 40 38 37 37 36 36 35 35 33 33 33 34 35 36 38 39 40 41 42 43 43 43 43 43
30 31 33 34 35 36 37 39 40 41 42 45 46 46 45 45 44 43 41 39 38 37 36 36 35 34 33 32 32 32 33 34 36 37 38 38 40 42 43 44 44 44 44
32 34 36 37 38 38 39 40 41 43 44 45 46 46 46 45 44 43 41 39 38 37 36 35 34 32 32 32 32 32 32 33 35 36 37 38 39 41 42 44 45 45 44
35 37 38 40 41 40 41 42 43 44 45 46 47 46 46 45 43 42 40 39 38 36 35 34 33 31 31 31 31 31 32 32 33 35 36 37 38 40 42 43 44 46 45
38 39 41 42 44 43 44 44 45 46 47 47 47 47 46 45 43 41 39 38 37 35 34 33 32 30 30 29 29 29 30 30 31 32 33 35 36 38 40 42 43 45 46
40 42 43 44 45 46 47 47 47 48 49 49 48 47 46 45 42 40 38 37 37 35 34 33 31 30 29 29 29 29 29 29 29 29 30 31 34 37 39 41 43 45 46
43 44 45 46 46 47 48 49 49 51 51 49 49 48 46 44 42 40 38 37 36 35 33 32 30 29 28 28 28 28 27 27 26 27 28 29 31 34 37 40 42 44 45
46 47 47 48 48 49 49 50 52 51 49 49 49 48 46 43 41 39 38 37 36 34 33 31 29 28 27 26 26 26 25 24 24 25 25 26 28 31 33 37 40 42 44
48 49 49 50 51 51 52 52 52 51 50 48 47 47 45 43 40 38 37 36 35 33 32 30 27 26 26 25 25 24 23 23 23 22 22 23 25 27 30 34 37 40 42
51 51 51 52 52 54 54 54 53 51 50 49 47 45 44 41 39 37 35 34 33 31 30 28 26 26 25 24 23 22 22 22 22 21 21 21 23 25 29 32 35 37 39
52 52 52 53 54 54 54 53 52 51 50 48 46 44 42 39 37 35 33 32 31 30 28 27 26 25 24 23 22 22 21 20 19 18 19 20 21 24 27 30 33 36 37
53 53 54 55 55 54 54 53 52 51 49 47 45 43 41 37 35 33 32 31 29 28 27 26 26 24 24 23 21 21 20 18 16 16 16 18 19 22 25 28 31 33 36
55 55 55 56 55 54 53 52 51 50 47 45 42 40 38 36 33 31 30 29 28 27 26 26 25 24 23 22 21 20 18 16 14 14 15 16 19 21 24 27 29 32 34
57 56 56 57 56 55 53 52 50 48 45 43 40 38 35 33 32 30 29 28 27 26 25 25 24 23 22 20 19 18 16 14 12 12 13 15 17 19 22 25 28 30 33
58 57 57 57 56 55 53 51 49 45 43 40 37 35 33 31 30 29 28 27 26 25 24 24 24 22 21 19 18 17 15 13 12 11 11 13 16 19 21 24 26 28 30
59 59 58 57 55 54 52 49 46 43 40 37 35 33 31 29 29 27 26 25 24 24 23 23 22 21 19 18 17 16 14 12 12 11 11 12 15 18 20 23 25 27 29
59 58 57 55 53 51 49 45 42 40 37 34 32 30 28 28 27 26 25 23 23 23 22 21 20 19 18 16 15 15 14 13 12 12 13 14 15 18 20 22 23 25 28
56 55 53 51 49 46 44 41 38 36 33 31 28 26 26 26 25 24 23 22 22 21 20 19 19 18 17 16 15 14 14 13 13 13 14 15 16 18 20 22 23 25 27
52 50 48 46 43 40 38 35 34 31 29 27 25 24 24 23 23 22 22 21 20 20 19 18 18 18 18 16 15 14 13 13 13 14 14 15 17 19 20 22 23 25 26

GEFSGL_500_meanwind_084.txt.gz
Wind_Speed
7 9 10 11 13 14 15 16 17 18 20 21 22 24 26 28 29 30 30 31 31 32 32 32 32 32 32 33 34 34 35 35 35 36 38 39 39 39 40 41 41 42 42
9 11 12 13 14 15 16 17 19 20 22 23 25 27 28 29 31 32 33 33 33 34 34 34 34 34 34 35 35 36 36 36 35 36 38 40 40 41 41 41 42 42 43
12 13 14 15 16 17 18 19 21 23 25 26 28 29 30 31 33 34 35 35 35 35 35 35 35 36 36 36 36 36 36 36 36 35 37 39 40 41 42 42 42 42 43
14 15 15 16 17 19 20 22 23 25 27 29 30 31 32 33 34 36 36 37 37 37 37 37 37 37 36 36 35 35 35 35 35 35 36 37 39 40 41 42 43 43 44
16 17 17 19 20 21 22 24 25 27 28 30 32 32 33 34 36 37 38 38 38 38 39 38 38 37 37 36 35 35 35 35 35 35 35 36 37 39 40 41 42 43 44
18 19 20 21 22 23 25 26 28 30 31 32 33 34 35 36 38 38 38 39 39 40 39 39 38 38 37 36 36 35 35 35 35 35 34 35 36 38 40 41 42 43 44
20 21 22 23 24 25 27 28 30 31 32 33 35 36 37 37 38 39 40 40 41 41 40 39 38 38 37 37 36 35 35 34 34 34 34 34 35 36 38 39 41 42 43
23 23 24 25 26 27 29 30 32 33 34 36 37 37 37 37 38 40 41 41 41 41 41 39 38 38 37 37 35 34 34 34 34 33 33 33 34 36 37 38 39 40 41
25 26 26 28 29 30 32 33 34 35 37 38 38 38 38 39 40 41 42 42 41 41 41 40 39 38 38 36 35 33 33 33 33 33 32 32 32 34 36 37 38 39 40
28 29 30 31 32 33 34 35 36 38 39 39 39 40 40 41 42 42 42 42 42 41 41 41 39 38 37 36 34 33 33 33 32 32 33 33 33 34 35 37 38 39 39
30 31 33 34 35 36 36 37 38 39 41 41 41 41 42 43 43 43 44 43 42 41 41 40 39 38 36 35 34 33 32 32 32 32 32 33 34 34 35 36 38 39 39
33 35 36 36 37 38 39 40 40 41 42 42 42 43 43 44 45 44 44 44 43 42 40 39 38 37 35 34 33 33 32 31 31 31 31 32 33 34 34 36 37 38 40
36 38 39 39 40 40 42 42 43 43 43 44 44 44 45 45 46 45 45 44 43 41 40 38 37 36 35 33 32 31 30 30 30 30 30 31 32 33 33 34 36 38 40
39 40 41 41 42 43 44 45 45 45 46 46 46 46 47 47 47 46 45 44 43 41 40 38 37 36 34 33 31 30 30 29 29 29 29 30 30 31 32 33 34 36 38
41 42 43 44 45 45 46 47 47 47 48 48 48 48 48 48 47 47 46 44 43 41 39 37 36 35 34 32 31 30 29 28 28 28 28 28 29 29 30 31 32 33 35
44 45 46 46 47 48 49 49 49 49 49 50 49 49 49 49 48 47 45 44 43 41 38 37 36 34 33 31 30 29 28 28 28 27 27 28 28 29 29 30 31 31 33
46 47 48 49 50 50 51 51 51 51 51 51 51 51 50 49 48 47 45 44 42 40 38 36 35 33 31 30 29 28 28 28 27 27 27 27 27 27 28 28 29 30 31
48 49 50 51 52 53 53 54 54 53 53 52 52 51 50 49 48 46 45 43 41 39 37 35 34 32 31 29 28 27 27 27 27 26 25 25 26 26 26 26 27 28 30
51 52 53 53 54 55 55 56 56 55 55 54 52 51 50 49 47 45 43 41 39 37 36 34 32 31 30 29 27 27 26 26 25 24 24 24 24 24 24 24 25 27 28
53 55 56 56 57 57 57 57 57 57 56 55 54 52 50 49 47 44 42 40 37 35 34 32 31 30 28 27 26 26 25 25 24 23 23 22 22 21 21 22 23 25 27
56 57 57 58 58 59 59 59 59 58 57 56 54 52 50 48 46 42 40 38 36 34 32 31 29 28 27 26 25 24 24 24 23 22 22 21 20 19 19 19 20 22 25
57 58 58 58 59 59 59 59 59 57 55 54 52 50 48 46 43 40 37 36 34 32 31 29 28 26 26 25 24 23 23 22 22 21 20 20 19 18 18 18 19 21 23
57 58 58 59 59 59 59 58 57 55 53 51 49 46 43 41 39 36 34 33 31 30 28 26 25 24 24 23 23 22 22 21 20 20 19 18 17 17 16 17 18 19 22
57 57 57 57 57 56 55 54 52 50 48 46 43 40 38 36 33 31 29 28 27 26 24 23 23 23 23 22 21 21 21 20 19 19 18 17 16 16 15 15 17 19 21
54 54 53 53 52 50 48 46 44 42 41 38 36 33 31 29 28 26 24 23 22 21 21 22 22 22 22 21 20 20 20 19 18 17 16 15 15 15 15 16 17 18 20
50 49 47 46 44 43 41 38 36 35 33 31 29 27 26 25 24 22 21 19 19 19 20 21 21 20 19 18 18 18 18 18 16 15 14 14 13 14 15 16 17 19 20

GEFSGL_500_meanwind_090.txt.gz
Wind_Speed
10 10 9 9 9 9 9 9 10 11 13 14 16 17 18 20 22 23 25 26 26 27 28 28 27 28 28 28 28 28 28 27 28 30 33 34 34 35 36 38 39 41 43
12 12 11 11 11 11 11 12 13 14 15 17 18 19 21 22 24 25 26 28 28 29 29 29 29 30 30 30 30 30 29 29 29 30 32 34 35 36 37 38 39 41 43
14 14 13 13 13 13 14 15 16 17 18 19 21 22 23 24 26 27 28 29 30 31 31 31 31 32 32 32 32 32 31 31 31 31 32 34 35 37 37 38 40 41 43
16 16 16 16 16 16 17 18 19 20 21 22 23 24 25 27 28 29 30 31 31 32 32 33 33 33 34 34 34 34 34 33 33 33 33 34 35 37 37 38 39 40 42
18 18 18 18 19 19 20 21 22 23 24 25 26 27 28 29 30 31 32 33 33 34 34 34 35 35 35 35 35 35 35 35 35 35 34 34 35 37 37 37 37 38 40
19 20 20 21 21 22 23 24 25 26 28 29 29 30 31 32 33 34 35 35 35 35 35 36 36 36 36 36 36 36 37 37 37 36 35 35 35 36 37 37 37 37 38
21 22 22 23 24 25 26 27 28 30 31 31 32 33 34 35 36 36 37 36 36 36 37 37 38 38 37 37 38 38 38 38 37 36 35 35 36 36 37 36 37 37 37
23 24 25 26 27 28 29 30 31 32 33 34 35 36 37 37 38 38 38 38 38 38 39 39 40 39 39 39 39 39 39 39 38 36 35 36 36 37 37 36 36 36 36
26 27 27 28 29 30 32 33 34 35 35 36 37 38 39 40 40 40 40 40 40 41 41 41 41 41 41 41 40 40 40 40 39 37 36 36 36 36 37 36 36 36 35
28 29 30 30 32 33 34 35 36 37 38 38 39 40 40 41 42 42 42 42 42 43 43 43 43 43 42 43 42 41 41 40 39 38 37 37 37 37 36 36 36 36 35
30 30 32 33 34 36 37 38 39 40 40 41 41 42 43 43 44 44 45 45 45 45 45 45 45 45 44 44 43 42 42 40 39 38 38 38 37 37 36 35 35 35 35
32 32 34 35 37 38 40 41 41 42 43 44 44 45 45 45 45 46 47 48 47 47 46 46 46 46 46 45 44 43 42 41 39 38 38 38 37 37 36 36 35 35 35
34 36 37 38 40 42 43 43 44 45 46 46 47 47 47 48 48 48 49 49 50 50 49 48 48 47 47 46 45 44 43 41 40 38 37 37 37 37 36 36 36 35 35
36 38 40 41 43 45 45 46 48 48 49 50 49 50 50 50 50 51 51 51 52 52 52 50 49 48 48 46 45 44 43 41 40 38 37 37 36 36 36 35 35 35 34
40 41 43 44 45 47 48 49 50 51 52 52 52 53 53 53 53 54 54 54 54 55 54 52 51 50 49 48 46 45 43 42 40 38 37 36 35 35 35 35 35 34 33
42 44 45 47 48 49 50 51 52 53 54 55 56 56 57 57 57 57 57 57 57 56 55 53 52 50 49 47 46 44 43 42 40 38 36 35 35 34 34 34 34 33 33
44 45 47 49 50 51 52 54 55 55 57 58 59 60 60 60 60 60 59 59 58 57 56 53 51 50 49 47 46 43 42 40 39 37 35 34 34 33 33 32 33 32 32
46 48 49 51 52 54 55 57 58 58 59 60 61 62 63 63 63 62 62 61 59 57 56 54 52 50 48 46 45 42 41 39 37 36 35 34 33 33 32 32 32 32 31
49 50 52 54 55 57 58 59 61 62 62 63 63 63 63 63 63 63 62 61 59 57 55 54 52 50 47 44 42 41 39 37 36 35 34 33 32 32 31 31 31 30 30
52 54 55 57 58 59 60 61 62 63 64 64 64 64 64 64 63 62 61 60 59 57 55 53 50 48 44 41 39 38 37 36 34 34 33 32 31 31 30 30 29 29 29
55 56 57 58 59 60 61 62 63 64 64 64 64 64 64 63 62 60 59 57 55 53 50 48 45 42 40 38 36 35 34 33 33 32 31 30 30 30 30 29 29 28 28
56 57 57 58 59 60 60 61 61 61 61 61 60 59 59 58 57 56 54 51 49 46 44 41 38 36 34 33 32 32 32 31 31 30 29 29 29 29 29 28 27 27 27
56 56 57 57 57 57 57 57 57 57 56 55 54 52 51 50 49 47 45 43 41 38 36 34 32 30 29 29 29 30 29 29 29 28 28 28 28 27 27 26 26 26 25
54 54 54 54 54 53 53 52 50 49 48 47 47 45 44 43 41 39 37 34 32 30 28 27 26 26 25 26 25 25 26 26 26 26 26 26 25 25 25 24 24 24 23
52 51 50 50 49 47 46 45 44 43 43 41 40 39 38 36 35 33 30 27 24 23 22 21 21 20 20 20 20 21 22 23 23 23 23 23 23 23 23 23 22 22 21
47 46 46 45 44 42 41 41 40 39 38 37 36 35 33 30 28 25 22 20 18 17 16 16 16 16 16 17 18 19 19 19 20 20 21 21 21 21 20 20 20 20 19

GEFSGL_500_meanwind_096.txt.gz
Wind_Speed
13 13 13 13 13 13 13 13 14 14 14 15 15 15 16 16 16 17 18 19 19 20 21 21 22 22 22 23 23 23 23 24 25 25 26 26 26 26 26 28 29 31 32
14 15 15 15 15 16 16 16 17 17 17 18 18 19 19 19 20 20 21 21 22 23 23 24 24 25 25 25 25 25 25 26 26 26 27 27 28 28 28 28 29 30 32
16 17 17 18 18 19 19 19 20 20 21 21 22 22 23 23 23 23 24 24 25 25 26 27 27 27 27 27 27 27 27 27 28 28 28 29 30 30 30 30 30 30 31
18 18 19 20 21 22 22 23 23 24 24 25 25 26 26 26 26 26 27 27 27 28 28 29 29 29 29 29 29 29 30 30 29 29 30 31 31 32 32 32 32 32 32
20 21 22 23 24 25 25 26 27 27 28 28 28 29 29 29 29 29 29 30 30 30 30 30 31 31 31 32 32 32 32 32 32 32 32 33 33 33 33 33 33 33 34
23 24 25 26 26 27 28 29 29 30 31 31 31 31 31 31 31 31 32 32 32 32 32 32 33 33 33 34 34 34 34 34 34 34 34 35 35 35 35 35 35 34 35
25 26 28 29 29 30 30 31 32 32 32 32 32 32 32 32 33 33 34 34 34 34 34 34 35 35 35 35 36 36 37 37 37 37 37 37 37 37 37 37 36 36 36
28 29 30 31 32 33 34 34 34 34 34 33 33 33 33 34 34 35 35 35 35 35 36 37 37 37 38 38 38 38 38 39 39 39 39 38 38 39 38 38 38 37 37
30 32 32 33 34 35 36 35 36 35 34 34 34 34 35 35 36 37 38 38 38 38 38 39 40 40 40 40 41 41 41 41 42 41 41 40 40 40 40 40 40 39 38
34 34 35 35 36 36 36 36 37 36 36 36 36 36 37 37 38 40 41 41 41 41 41 42 42 42 43 43 44 44 44 44 44 44 43 43 42 42 42 42 41 41 40
36 36 36 37 38 38 38 38 38 38 38 38 39 39 39 40 41 42 44 44 45 45 44 45 46 46 46 47 47 47 46 47 46 46 45 45 44 44 44 44 43 42 41
37 38 38 37 38 39 39 39 40 40 40 40 42 42 42 43 44 46 47 47 48 47 47 48 49 49 49 50 50 50 50 50 49 48 47 47 47 47 46 45 44 43 41
39 38 39 39 40 41 41 41 42 43 43 44 44 45 46 47 47 48 50 50 51 51 52 52 52 52 52 53 53 53 53 52 52 51 50 49 48 48 47 46 45 44 42
39 39 40 41 41 42 43 44 45 45 46 47 48 49 50 51 52 52 53 54 55 56 56 55 55 55 56 56 56 55 55 54 54 52 51 50 49 48 47 47 46 44 43
39 40 40 42 42 44 45 45 46 47 48 49 50 52 53 54 55 56 56 57 58 59 59 59 59 59 59 59 58 57 56 55 54 53 51 50 49 49 48 47 46 45 43
39 40 41 41 42 43 45 46 48 49 51 52 54 55 57 58 59 60 60 61 62 63 63 63 62 61 61 60 59 58 57 55 54 53 52 50 49 48 48 47 45 44 42
39 40 41 42 43 45 47 49 51 52 53 55 56 57 58 59 60 62 63 63 64 65 65 65 64 63 62 61 60 59 58 56 54 53 51 50 48 48 47 45 44 42 41
40 42 43 45 46 48 50 51 53 54 55 56 57 59 60 61 62 63 64 64 64 65 65 65 65 64 62 61 60 58 57 54 52 50 49 48 47 46 45 43 42 41 39
42 44 45 47 48 50 51 53 55 56 57 58 59 60 61 61 62 62 63 64 64 64 63 63 62 61 59 58 57 56 54 52 50 49 47 46 45 43 42 41 39 38 37
45 46 48 50 51 53 54 55 56 57 58 59 59 60 60 61 61 61 61 61 60 60 59 58 57 56 54 53 52 50 49 47 46 44 43 42 41 40 39 38 37 36 35
48 49 51 52 53 55 55 56 57 57 58 58 58 59 59 59 59 58 58 57 56 54 53 52 51 49 48 46 45 43 42 40 39 39 38 37 37 37 35 35 34 34 33
50 51 52 53 54 54 55 55 56 57 57 57 57 57 56 56 54 53 52 50 49 48 47 45 43 41 40 39 38 37 35 34 33 32 32 32 32 31 31 31 30 30 30
51 52 53 54 54 54 55 55 55 54 54 53 53 52 51 50 49 47 45 44 42 41 40 38 37 35 34 33 31 30 28 27 27 27 26 27 27 27 27 28 28 28 29
51 52 52 53 53 53 53 53 52 51 50 49 48 47 45 44 42 41 40 38 37 36 34 33 32 31 29 28 26 24 23 22 22 22 23 24 24 24 24 25 25 26 27
49 50 50 50 49 49 49 49 48 47 45 44 42 40 39 38 37 36 34 33 32 30 28 27 25 24 22 20 19 18 17 18 19 20 21 22 22 22 22 23 24 24 25
47 47 46 46 45 44 44 43 42 41 40 38 36 35 34 33 32 31 30 28 27 25 22 21 19 17 15 14 14 14 15 16 17 17 17 18 19 20 21 22 22 23 23

GEFSGL_500_meanwind_102.txt.gz
Wind_Speed
10 11 11 12 12 13 13 13 13 13 13 14 14 15 16 17 17 18 19 20 20 21 22 23 23 23 23 23 23 23 23 23 23 23 23 23 23 23 22 22 23 23 24
11 12 13 13 14 14 15 15 15 16 16 16 17 18 19 20 21 21 22 23 24 25 25 26 26 26 26 26 26 25 25 25 25 26 26 25 25 24 24 24 25 25 25
12 13 14 15 15 16 16 17 18 19 19 20 20 21 22 23 24 24 25 26 27 28 28 28 29 29 29 28 28 28 28 27 28 28 28 27 27 27 26 26 26 26 27
14 14 15 16 17 17 18 19 20 21 22 23 24 24 25 26 26 27 28 29 29 30 30 31 31 31 31 31 30 30 30 30 30 30 30 30 29 29 29 28 28 28 29
16 17 17 18 19 19 20 21 22 23 24 25 26 27 27 28 29 30 31 31 32 32 32 33 33 33 33 32 32 32 32 32 32 32 32 32 31 31 31 31 31 30 30
18 19 20 20 20 21 22 23 25 26 27 27 28 29 30 30 31 32 33 33 34 34 34 34 34 34 34 34 34 34 34 34 34 34 34 34 33 33 33 33 33 33 32
21 22 23 23 23 24 25 26 27 28 29 30 31 31 31 32 34 35 35 35 35 36 36 36 36 36 36 36 36 36 36 37 37 36 36 36 36 36 36 35 35 35 34
25 25 26 27 27 28 28 29 30 31 31 32 33 33 34 34 34 36 37 38 37 37 38 38 38 38 38 39 39 38 38 39 40 40 39 38 38 39 39 39 38 38 37
28 28 29 30 31 31 31 31 32 33 34 34 35 35 36 36 37 38 38 38 38 39 39 39 40 41 41 42 42 42 41 42 42 42 41 41 41 41 42 42 41 41 39
31 31 32 34 33 34 34 34 35 35 36 36 37 38 38 38 38 39 39 40 40 41 41 41 42 43 44 44 45 45 44 44 45 44 44 44 43 43 44 45 45 45 43
34 35 36 36 36 36 36 36 36 36 38 38 38 38 38 38 39 39 41 43 44 44 44 44 45 46 46 47 47 47 47 48 48 48 48 47 47 47 47 47 47 48 47
36 37 37 38 39 39 39 38 38 38 40 41 39 38 38 39 41 42 42 43 45 46 46 46 47 48 48 49 50 50 51 51 51 51 51 51 50 50 50 50 49 49 49
36 38 38 38 39 39 39 40 40 40 40 40 39 40 41 42 43 44 45 46 47 49 48 48 49 50 52 53 53 53 54 54 55 55 54 53 53 53 53 53 53 52 50
36 36 35 36 38 37 37 38 40 40 40 41 42 43 44 46 47 47 48 49 49 50 51 51 53 54 55 55 55 56 56 57 57 57 57 56 56 56 55 54 53 52 51
35 36 36 36 37 37 37 38 39 40 41 41 42 44 45 46 47 48 50 50 51 52 53 54 55 55 56 57 57 58 58 58 59 59 59 58 57 56 55 54 53 51 50
35 35 36 36 37 37 37 38 40 41 41 42 43 45 46 46 48 49 50 51 53 54 55 55 56 57 58 58 59 59 60 60 60 59 59 58 57 56 54 53 52 51 51
37 37 38 39 39 39 39 40 41 41 42 43 44 45 46 47 49 50 52 53 55 56 57 57 58 59 60 60 60 60 59 59 59 58 57 57 56 55 53 51 51 50 50
37 38 39 40 40 41 41 42 43 43 44 44 46 47 48 49 50 52 53 55 56 57 58 59 59 60 60 60 59 58 58 57 56 55 54 53 52 52 51 50 49 49 48
37 38 39 39 40 42 43 44 44 45 46 47 48 49 51 52 53 54 55 56 57 57 58 58 58 58 58 57 57 56 55 54 53 52 50 49 48 47 47 46 46 46 45
39 40 41 42 43 44 45 45 46 47 48 49 51 52 53 55 55 56 57 56 56 56 55 55 54 53 52 52 52 51 50 49 48 47 46 45 44 43 43 42 42 42 42
40 41 42 43 44 45 46 47 48 49 50 51 52 53 54 55 55 54 54 53 53 52 51 51 49 48 47 46 45 44 44 43 43 42 41 40 39 38 37 36 37 36 36
42 43 44 45 46 47 48 49 50 51 51 52 52 52 52 52 51 50 50 49 48 47 46 45 44 43 42 41 41 40 39 37 37 37 36 35 34 34 33 32 31 31 30
44 45 46 47 48 49 49 49 50 50 50 50 49 50 50 49 48 47 46 45 43 42 41 40 40 39 38 38 36 35 34 33 32 32 31 30 29 28 27 27 27 26 26
45 46 46 47 47 47 47 48 47 47 47 47 47 47 47 46 44 43 41 40 39 38 38 37 36 35 34 33 31 30 30 28 28 28 27 25 24 23 23 24 23 23 23
45 45 45 45 45 45 45 45 44 44 44 44 44 43 42 40 39 38 37 35 35 35 34 33 31 30 30 29 27 26 25 24 24 23 22 20 19 19 20 20 20 21 21
42 42 42 42 42 42 41 41 40 40 40 39 38 37 35 34 33 32 30 30 29 29 28 26 25 25 24 23 22 21 20 20 20 19 17 16 16 16 17 17 18 19 20

GEFSGL_500_meanwind_108.txt.gz
Wind_Speed
12 12 12 13 13 14 15 16 17 17 17 17 17 16 17 17 17 17 17 17 17 17 17 17 18 18 18 18 18 18 18 18 18 18 18 18 18 18 18 19 19 19 19
12 12 12 13 13 14 15 17 18 18 19 19 19 19 19 19 19 20 20 20 20 20 21 21 21 21 21 21 21 21 21 21 20 21 21 21 21 21 21 22 22 22 22
12 13 13 14 14 15 16 17 19 19 20 21 21 22 22 22 22 22 22 23 23 23 24 24 24 24 24 24 24 24 24 24 24 24 24 24 24 24 24 24 25 25 25
12 13 14 15 15 16 17 19 20 21 22 23 23 23 24 24 24 25 25 26 26 27 27 27 27 27 27 27 27 27 27 27 27 27 27 27 27 27 27 27 27 27 27
12 12 14 15 16 17 18 19 21 22 24 25 25 26 26 26 27 27 28 28 29 30 30 30 30 30 30 30 30 30 30 30 30 30 30 30 30 30 30 30 30 30 30
13 14 15 17 18 19 20 21 23 24 24 25 27 28 28 29 30 30 31 31 31 32 33 33 33 33 33 33 32 32 32 32 32 33 32 33 33 33 34 34 34 33 33
15 16 18 19 20 21 22 22 23 26 27 27 28 29 30 32 33 34 33 33 34 34 34 34 35 35 35 35 35 35 34 34 35 35 35 35 36 37 37 37 37 37 36
18 19 20 22 23 24 24 24 26 27 29 29 30 31 32 32 33 34 35 35 35 35 36 36 37 37 38 38 37 37 37 37 38 38 38 38 39 40 41 41 41 41 40
22 22 22 24 25 26 26 26 27 28 29 30 31 31 32 34 35 36 36 37 37 37 38 38 39 38 39 40 39 39 39 40 41 41 41 41 41 42 43 44 44 45 43
24 25 26 26 28 28 28 29 30 30 31 32 33 34 34 35 36 36 37 36 36 37 37 38 38 39 40 41 41 41 41 42 43 44 44 44 44 45 46 48 48 49 48
27 28 29 30 30 31 32 33 33 33 34 34 34 36 36 37 38 38 38 38 37 38 38 39 39 40 41 43 43 44 44 45 46 46 47 47 47 49 50 51 52 53 53
29 29 30 31 31 32 34 33 32 33 33 34 35 35 35 36 37 38 38 38 39 39 39 40 41 42 44 45 45 46 47 47 48 48 49 49 50 51 53 54 55 56 56
30 31 31 32 32 33 32 33 33 34 34 35 35 35 35 36 37 38 39 40 41 41 41 42 44 45 46 47 48 48 48 49 50 51 52 53 54 55 56 57 58 58 59
31 31 32 32 33 34 34 35 35 35 35 36 36 36 37 38 38 39 39 40 41 42 43 44 45 46 47 47 48 50 51 52 53 54 54 55 57 58 58 59 60 60 60
32 33 34 34 35 35 36 36 36 37 38 38 38 39 39 40 40 41 42 43 44 45 46 47 48 48 49 50 51 52 53 54 55 56 57 58 59 59 60 61 61 62 62
33 34 34 34 35 36 36 37 38 38 38 38 39 41 41 42 43 44 45 45 46 47 48 49 49 50 51 52 53 54 55 56 57 57 58 58 59 60 60 61 62 62 61
34 35 36 36 37 38 38 38 39 40 40 41 42 43 44 44 45 46 47 47 48 49 49 50 51 53 54 55 56 56 57 57 58 58 58 58 59 59 59 59 59 58 58
34 35 36 37 38 39 40 40 40 41 42 43 44 44 45 45 46 47 48 49 50 51 52 53 54 55 56 57 57 57 57 57 57 58 58 58 58 57 56 55 55 55 55
35 37 38 39 40 41 41 41 42 43 43 44 45 45 46 47 48 49 49 50 51 52 53 54 54 55 55 56 56 55 55 56 55 55 55 55 55 54 53 52 51 51 50
37 38 39 40 40 41 41 42 43 43 44 45 46 48 49 49 50 50 51 51 51 51 51 52 52 52 52 52 51 51 51 51 51 51 51 51 50 49 48 47 46 45 45
39 40 41 41 42 42 43 44 45 46 47 47 48 49 50 51 51 51 51 51 51 51 52 51 51 50 49 48 47 47 47 47 47 47 46 45 44 42 42 41 40 40 40
40 41 41 42 43 43 44 45 46 47 47 48 49 49 50 49 49 49 49 50 49 49 49 47 46 44 44 44 43 43 43 43 42 41 39 38 38 37 36 35 35 34 33
40 40 41 41 42 43 44 45 45 46 46 46 46 46 46 46 46 46 46 46 46 45 43 42 40 39 38 38 38 37 37 36 35 35 34 33 31 30 30 29 29 29 28
39 40 41 41 42 42 43 43 43 43 43 44 44 44 44 44 43 43 42 41 40 38 37 36 35 34 33 33 32 32 31 29 29 28 28 27 26 26 26 26 25 24 24
40 40 40 40 41 41 41 41 41 41 41 41 41 40 40 39 38 38 37 35 33 32 31 30 29 29 28 27 27 26 25 24 23 23 23 22 22 22 22 21 21 20 19
38 38 38 39 39 39 38 38 38 37 37 36 35 34 34 33 32 31 30 29 27 27 26 26 25 24 23 23 22 21 21 21 20 20 19 18 17 17 17 17 17 17 16

GEFSGL_500_meanwind_114.txt.gz
Wind_Speed
14 15 16 16 16 17 18 19 19 19 19 19 19 20 20 20 20 20 20 20 20 20 21 21 21 21 21 21 21 22 22 22 22 22 22 22 22 22 22 22 22 23 22
15 16 16 16 16 17 18 19 19 20 20 21 21 22 22 22 23 23 23 23 23 24 24 24 25 25 25 25 26 26 26 26 26 26 25 26 26 26 26 26 26 26 26
15 16 17 17 18 18 18 19 20 21 21 21 22 23 24 25 25 25 26 26 26 27 27 28 28 29 29 29 29 30 30 30 30 30 30 29 29 29 29 29 29 30 30
14 15 18 18 19 19 19 19 20 21 21 23 24 25 26 27 27 28 28 29 29 30 30 31 32 32 33 33 33 34 34 34 34 34 34 33 33 33 33 33 33 33 33
13 14 16 18 19 20 20 20 20 21 22 24 25 27 28 29 30 30 31 31 32 32 33 34 35 35 36 36 37 37 37 37 37 37 37 36 36 36 37 36 36 37 37
13 14 16 17 19 20 20 21 21 22 23 24 27 28 29 30 32 33 34 34 35 36 35 36 37 38 38 39 39 40 40 40 40 39 39 39 39 40 40 40 40 40 40
13 14 16 18 18 19 20 21 23 24 24 26 27 29 31 31 32 34 34 35 36 37 38 38 39 40 41 41 41 41 42 42 42 42 42 41 42 44 44 44 44 44 43
16 17 18 19 20 21 22 23 24 25 27 28 29 30 32 33 35 36 37 37 37 38 39 40 41 42 42 43 43 44 44 44 44 44 44 44 45 46 47 47 46 46 45
19 19 20 21 22 23 24 25 27 28 29 30 31 33 33 34 36 37 38 39 40 41 41 42 43 43 44 45 45 45 45 46 46 46 46 47 47 48 49 49 49 49 48
22 23 23 24 24 25 26 28 29 29 30 31 33 34 35 37 38 38 40 42 43 43 43 44 44 45 46 47 47 47 47 47 48 48 48 48 48 49 50 51 51 51 51
25 26 26 27 28 29 30 31 32 32 32 33 34 36 37 38 38 39 40 43 44 44 45 45 46 46 47 48 48 49 49 49 49 49 50 50 51 51 52 53 53 54 54
26 28 28 29 29 30 31 31 31 32 33 34 35 36 36 36 38 40 41 42 43 44 45 46 46 46 46 47 48 49 50 50 50 50 51 51 52 53 54 55 56 56 56
27 27 28 29 31 32 32 33 33 34 34 35 35 37 37 38 39 40 41 42 43 44 45 45 46 46 46 47 48 48 49 50 50 51 52 53 54 55 56 56 57 58 58
27 28 29 30 32 33 34 35 35 36 36 36 37 38 39 39 40 41 41 42 43 45 46 46 46 47 48 48 48 49 50 51 52 53 54 55 56 57 57 58 59 59 59
29 30 32 33 34 34 35 36 37 37 38 38 39 39 40 41 42 43 43 44 44 45 46 48 48 48 49 50 50 52 52 53 54 54 55 55 56 58 60 61 61 61 61
31 32 33 34 35 36 37 38 38 38 39 40 40 41 42 43 43 44 44 45 45 46 47 48 49 50 51 52 52 53 53 54 55 56 57 59 60 61 62 62 62 62 62
33 34 35 36 37 38 38 39 40 41 41 42 43 44 45 45 45 45 46 46 47 47 48 49 50 51 52 53 53 54 54 55 56 58 59 60 60 60 60 61 62 62 62
34 35 37 38 38 39 40 41 42 43 44 45 46 46 46 46 46 47 48 48 49 50 50 50 51 52 53 54 54 55 55 56 56 57 58 58 58 58 58 58 59 59 60
35 36 37 38 39 41 42 44 45 45 46 46 47 47 47 48 48 49 49 49 50 51 51 52 52 53 53 54 54 54 55 55 55 55 55 55 55 55 55 55 55 55 55
36 37 39 40 41 43 44 45 45 46 46 47 47 48 48 49 49 50 50 51 51 52 53 53 53 53 53 54 54 54 54 53 53 52 52 51 51 51 51 50 50 50 49
38 39 41 42 43 43 44 45 45 46 46 47 48 48 49 49 50 51 51 52 52 52 52 52 52 52 52 52 51 50 49 49 48 48 47 47 47 47 46 45 45 43 42
40 41 42 43 43 44 45 45 46 47 47 48 48 48 49 49 49 49 49 49 49 49 49 48 48 48 47 46 45 44 43 43 42 42 42 42 41 41 40 39 38 36 34
41 42 43 44 44 45 46 46 47 47 47 47 47 47 47 47 47 46 46 46 45 45 44 43 42 41 40 39 38 37 37 36 36 35 35 35 34 33 32 32 31 30 29
42 43 43 44 44 45 45 45 45 45 45 44 44 44 43 43 43 42 41 41 40 39 37 37 36 35 34 33 32 32 31 30 30 30 30 29 29 28 27 27 26 27 27
42 43 43 43 43 43 43 43 43 42 41 41 41 40 40 39 38 37 36 35 34 33 32 31 30 29 28 27 26 26 25 25 25 24 24 24 23 23 23 22 22 22 23
41 41 41 41 41 41 40 40 40 39 38 38 37 36 35 34 33 32 31 30 29 28 27 25 24 24 23 22 22 21 21 20 20 19 19 19 19 19 19 19 19 19 19

GEFSGL_500_meanwind_120.txt.gz
Wind_Speed
10 11 13 15 17 17 17 16 16 17 16 16 17 18 18 18 18 18 19 19 19 19 19 19 20 21 21 21 21 22 22 23 23 24 24 24 24 24 24 25 25 25 25
10 11 12 14 15 16 16 17 17 17 17 18 18 18 19 19 20 21 22 22 22 22 22 22 23 24 25 25 25 26 26 26 27 27 27 28 28 28 28 28 28 29 29
10 11 12 14 15 16 17 17 18 18 18 18 19 19 20 21 22 23 24 24 25 25 25 26 27 27 28 28 29 29 29 29 30 30 31 31 31 32 32 32 32 32 33
12 12 13 14 15 17 18 19 19 20 20 20 21 21 22 22 23 24 26 26 27 27 28 29 30 30 31 32 32 32 32 33 33 34 34 34 34 35 35 35 36 36 36
13 13 14 15 16 17 19 20 21 21 22 22 22 23 23 24 25 26 26 28 29 30 31 31 32 33 33 34 35 35 35 35 36 36 37 37 38 38 38 38 38 38 38
13 13 14 15 16 18 20 21 21 22 22 23 23 24 25 26 27 28 29 30 31 32 33 34 35 35 35 36 36 37 38 38 38 39 39 39 40 41 41 41 40 40 40
13 14 14 15 16 18 20 21 22 22 23 24 24 25 26 27 29 30 31 32 33 34 35 35 36 37 37 38 39 40 40 40 41 42 42 42 42 42 42 42 43 43 43
14 15 16 16 17 18 20 21 23 24 25 26 27 27 29 30 31 32 32 33 33 34 35 37 38 39 40 41 42 42 43 44 44 44 44 44 45 46 45 46 46 46 46
16 17 17 18 18 19 20 21 22 24 26 27 28 29 30 30 31 32 34 35 36 37 37 39 40 41 41 43 44 44 44 45 46 47 47 47 47 48 48 48 48 49 49
19 19 19 20 20 21 21 23 24 25 27 29 30 31 32 32 33 34 36 37 39 40 40 41 42 43 44 45 46 46 46 47 49 49 49 50 49 49 49 50 50 50 50
22 22 22 22 23 24 25 25 26 28 29 31 32 33 34 35 35 36 37 39 41 42 43 44 44 45 45 46 47 48 49 51 51 51 51 50 50 50 50 51 51 51 51
24 24 24 25 25 26 27 28 29 30 31 32 33 35 36 37 38 39 41 42 43 44 44 45 45 46 47 48 49 50 51 52 53 52 51 51 52 52 52 52 52 52 52
26 25 26 27 27 28 29 30 32 33 33 34 36 37 38 39 40 41 42 43 44 45 46 46 47 48 48 49 49 50 51 52 52 52 52 52 53 54 54 54 54 53 53
26 27 27 28 29 30 31 32 33 34 35 36 37 38 39 40 42 43 44 45 45 46 47 48 48 49 50 50 51 51 52 52 52 53 53 53 54 54 55 56 56 56 56
28 28 28 30 30 31 32 33 34 35 36 37 38 39 40 41 42 44 45 46 47 48 48 49 49 50 51 51 52 53 53 53 53 54 54 55 55 55 56 56 56 56 56
29 29 30 31 31 32 34 35 36 37 38 39 40 41 42 43 44 45 46 47 47 49 49 50 51 52 52 53 53 54 54 54 54 55 55 55 56 56 57 57 57 57 57
29 30 31 32 33 34 35 36 37 38 39 41 42 43 44 45 45 46 47 48 49 50 51 51 52 52 53 53 53 53 54 54 54 55 55 55 55 56 56 56 57 57 56
28 29 30 32 33 34 35 37 38 40 41 42 43 44 45 46 47 48 49 50 50 51 51 52 52 52 52 52 53 54 54 54 54 55 54 54 54 54 55 55 54 54 54
28 30 31 32 34 36 37 39 40 42 43 45 46 47 47 48 49 49 50 50 50 50 50 51 51 51 52 52 52 52 52 52 53 53 52 52 51 51 51 51 51 50 50
30 31 33 35 36 38 39 41 42 43 44 45 47 48 48 49 49 49 49 49 49 49 49 49 49 50 50 50 50 50 49 49 49 49 49 49 48 48 47 47 47 46 45
31 33 35 36 38 39 41 42 43 44 45 46 47 47 48 48 48 48 48 48 48 47 47 46 46 46 46 45 45 45 45 45 45 44 44 44 43 42 42 42 41 41 40
33 35 36 37 39 40 42 43 44 44 45 46 47 47 47 47 46 46 45 45 44 43 43 42 41 40 39 39 39 39 38 38 38 38 37 37 37 37 36 35 34 34 34
35 36 38 39 40 41 42 42 43 44 44 44 44 45 44 44 43 42 41 41 40 38 37 36 35 34 34 34 33 33 32 32 32 32 31 31 31 31 31 30 30 29 28
36 37 38 39 40 41 41 42 42 42 42 43 43 42 41 39 38 38 37 36 34 33 32 31 31 30 29 29 29 28 28 27 27 26 25 26 26 26 26 25 25 25 25
37 38 39 40 41 41 41 42 41 41 41 41 40 39 37 36 34 33 32 31 30 29 28 27 26 25 25 24 24 23 23 22 21 21 22 22 22 21 21 21 21 21 20
38 38 39 39 40 40 40 40 39 38 38 37 36 34 33 32 31 30 28 28 27 26 25 23 22 22 21 20 20 20 19 19 19 19 18 18 17 17 17 17 17 17 17

GEFSGL_500_meanwind_126.txt.gz
Wind_Speed
7 9 10 12 14 14 15 15 15 15 16 16 16 16 15 15 15 15 16 17 17 18 18 18 19 19 20 20 20 21 21 22 22 22 22 22 22 23 23 23 23 23 23
7 9 10 12 12 14 14 15 15 15 16 16 16 16 15 15 15 16 17 18 18 19 19 20 20 21 22 23 23 24 25 25 25 26 26 26 26 26 27 26 26 26 27
7 8 8 9 11 13 15 16 16 15 15 16 16 16 17 18 18 18 19 19 20 21 21 22 23 23 24 25 26 26 27 27 28 29 29 29 30 30 30 30 30 30 30
8 8 9 10 12 13 14 16 16 16 16 17 17 17 18 19 20 20 20 21 22 23 24 24 25 25 26 28 28 29 30 30 31 31 31 32 32 32 32 33 33 33 33
10 11 10 11 11 12 13 14 15 16 17 17 18 19 20 21 21 22 22 22 23 24 25 26 27 27 29 30 31 32 32 33 33 33 34 34 35 35 35 35 36 36 36
11 11 12 12 12 13 13 14 15 16 17 18 19 21 22 22 22 23 23 24 24 25 26 27 28 29 30 31 33 33 34 34 35 36 36 37 38 39 39 39 39 39 38
12 11 12 13 13 14 14 15 16 17 18 19 20 21 21 22 23 24 24 25 26 27 28 29 30 31 32 33 34 35 36 37 38 39 39 39 40 41 41 42 42 42 42
13 13 13 13 13 15 16 16 17 18 19 20 20 20 21 23 23 24 25 26 27 29 30 31 32 33 34 35 36 37 37 38 40 41 41 41 42 43 44 45 45 45 45
14 15 15 16 16 16 17 17 18 19 19 20 21 22 23 24 25 26 28 29 30 31 32 33 34 35 36 37 38 39 40 41 42 43 43 44 45 46 47 47 47 47 46
17 17 17 18 18 18 18 18 19 19 20 21 22 24 26 26 27 28 30 31 32 33 35 36 37 38 39 40 41 42 43 44 45 46 46 46 47 48 49 49 50 50 49
19 19 19 19 18 19 20 20 21 21 22 24 24 25 27 29 30 31 32 33 34 35 36 37 39 40 41 43 44 45 46 46 47 48 49 49 49 49 50 51 51 51 52
21 22 22 21 21 23 24 24 24 25 26 27 27 28 29 30 31 33 35 36 37 37 38 40 41 43 44 45 46 47 48 49 50 50 51 51 52 52 52 53 53 53 53
24 24 24 24 25 25 26 27 27 28 28 29 30 31 31 32 34 35 36 37 38 39 40 42 43 44 46 47 48 49 50 51 51 52 52 53 54 54 54 54 54 55 55
26 26 26 26 26 27 28 28 29 30 31 32 33 34 34 35 36 37 38 39 41 42 43 44 45 46 47 49 50 51 52 53 53 54 54 55 55 55 55 55 55 55 55
26 26 26 27 27 28 28 29 31 32 33 34 35 36 37 37 38 40 41 42 43 44 45 47 48 49 50 51 52 53 54 54 54 54 55 55 55 55 56 56 56 56 56
26 26 26 27 28 29 30 31 32 33 34 35 35 36 38 39 40 41 43 44 45 47 48 49 50 51 52 53 54 55 55 55 55 55 55 55 56 56 56 56 56 55 55
26 26 27 28 29 31 31 32 33 34 35 35 37 38 39 41 42 44 45 47 48 49 50 51 52 52 53 54 54 55 55 54 54 55 55 55 55 55 54 54 54 54 53
25 26 27 29 30 32 33 33 34 36 36 37 38 40 41 43 44 45 47 48 49 50 50 51 52 53 53 54 54 54 54 54 53 52 52 51 51 52 51 51 51 51 50
26 27 29 30 32 33 34 35 36 37 38 39 40 41 42 43 44 45 47 48 48 49 50 51 52 52 53 53 53 52 52 51 50 49 48 48 47 47 47 46 46 45 44
28 29 30 31 32 33 34 35 36 37 39 40 41 42 43 44 45 46 46 47 47 48 49 50 50 50 50 49 48 48 47 46 46 46 45 45 44 43 42 41 40 39 39
28 29 29 30 31 32 34 35 36 38 39 40 41 42 44 45 45 45 46 46 46 47 47 46 46 45 45 44 43 42 42 41 41 40 40 40 40 38 37 36 36 36 36
27 28 29 30 31 33 34 35 37 38 40 41 42 43 44 44 45 45 45 46 45 44 43 43 42 41 40 39 38 37 36 37 36 35 35 35 34 34 33 33 33 33 33
27 28 30 31 33 34 35 37 38 40 41 41 42 42 43 43 43 43 43 42 41 41 41 39 38 36 35 34 33 32 33 32 32 31 31 30 30 30 29 29 28 28 28
28 29 31 33 34 35 36 38 39 39 40 40 41 41 41 41 40 39 39 38 37 36 35 34 33 32 31 30 30 30 29 28 27 27 27 27 26 25 24 24 24 24 24
30 31 33 34 35 36 37 38 38 38 38 38 38 38 37 36 35 34 33 33 32 32 31 30 30 29 29 28 27 27 26 26 25 25 24 24 23 23 22 22 21 21 20
32 33 34 34 35 35 35 35 35 35 35 35 34 34 33 32 31 30 30 29 29 28 27 27 26 26 26 25 25 25 24 24 23 23 22 22 21 21 20 20 19 19 18

GEFSGL_500_meanwind_132.txt.gz
Wind_Speed
7 9 10 12 15 17 19 20 20 20 19 19 19 19 19 19 18 18 18 18 18 18 18 18 18 18 18 18 18 18 18 18 19 19 20 20 20 20 21 21 22 22 22
7 8 8 10 13 16 17 19 20 20 20 20 19 19 19 19 19 20 20 20 20 20 19 19 20 20 21 21 21 21 21 21 21 22 23 23 23 23 23 24 25 25 25
6 7 8 9 11 14 16 17 18 19 19 20 20 20 20 19 19 20 21 21 21 21 21 21 22 22 23 23 24 24 24 24 24 25 25 26 26 26 26 26 27 28 28
5 7 9 10 11 13 14 16 17 19 19 19 20 21 21 21 21 21 22 22 23 23 23 23 23 24 24 25 25 26 26 27 27 27 28 28 29 29 29 30 30 30 31
7 8 9 11 12 13 14 15 17 18 19 19 20 20 21 22 22 23 22 23 24 24 24 24 25 25 25 26 26 27 28 29 30 30 30 31 31 32 32 33 33 34 34
10 10 11 11 12 13 14 16 16 16 17 19 20 21 21 21 22 23 24 25 25 25 25 25 25 26 27 28 28 29 30 31 32 32 33 33 34 36 37 37 37 37 37
13 13 13 13 13 13 15 16 18 17 17 18 19 20 21 22 23 24 25 25 25 25 26 26 26 27 29 30 31 32 33 33 34 35 35 36 37 38 39 40 40 40 39
14 14 14 14 14 15 16 16 18 19 19 20 21 22 23 23 24 24 24 24 25 26 27 28 29 30 31 32 33 34 35 36 37 38 39 39 40 41 41 42 42 42 42
15 14 14 14 14 15 16 18 19 19 20 21 22 22 23 24 23 23 24 25 26 28 28 29 30 31 33 34 35 35 37 38 40 41 42 42 43 44 44 45 45 46 46
17 16 15 15 15 16 17 18 19 19 20 21 21 23 23 24 24 24 25 26 27 29 30 31 32 33 35 36 37 38 39 40 41 42 43 44 45 46 47 48 49 50 50
18 17 17 17 17 18 18 19 19 20 20 20 21 22 23 23 24 25 26 27 29 31 32 33 35 36 37 38 39 40 41 42 43 44 46 47 48 49 50 51 52 53 54
19 19 19 19 19 19 20 20 21 21 22 22 22 23 23 24 26 27 28 30 32 34 35 36 37 38 39 40 41 42 43 44 45 46 48 49 50 51 52 53 54 55 56
21 21 20 21 21 21 21 21 22 22 23 24 24 26 28 29 30 31 32 33 34 35 36 37 39 40 42 43 44 45 46 47 48 49 51 52 53 54 54 55 56 57 58
22 22 22 22 22 22 23 23 24 24 25 26 27 28 30 31 32 32 34 35 36 38 39 40 41 42 43 44 46 47 48 49 50 51 52 53 55 56 57 57 58 58 58
22 22 22 22 23 24 24 24 24 25 25 26 27 28 29 31 32 34 35 37 38 40 41 42 43 45 46 47 48 49 50 50 51 52 53 54 55 56 57 57 57 57 56
22 22 22 22 23 23 24 24 25 26 26 27 28 29 31 32 34 37 38 39 40 41 41 43 45 46 47 48 49 50 51 52 52 53 54 55 56 56 57 56 55 54 54
20 21 21 22 23 23 25 26 27 27 29 30 31 32 33 35 37 38 39 40 41 42 44 45 46 47 48 49 50 50 51 52 53 55 56 56 56 56 55 53 52 51 51
20 20 21 22 24 25 26 26 27 28 30 31 33 34 35 36 38 39 40 41 43 44 45 46 47 47 48 49 50 51 52 52 53 54 54 53 52 51 50 49 48 47 46
20 21 23 24 25 25 27 28 29 30 32 33 34 35 36 37 39 40 41 42 43 44 45 46 47 48 49 50 50 51 51 51 50 50 48 47 46 45 45 44 44 44 43
20 21 22 24 25 26 27 29 30 31 32 33 34 36 37 38 39 40 41 43 44 44 45 46 47 48 48 48 48 48 48 47 46 45 44 42 41 41 40 39 39 39 39
19 20 22 24 25 26 28 29 31 32 33 34 35 36 37 38 39 41 42 43 43 44 44 45 45 45 45 44 44 43 42 41 41 39 38 37 36 36 35 34 34 34 34
19 21 23 25 26 28 29 30 31 32 33 34 35 36 38 39 39 40 41 42 42 42 42 41 41 41 40 39 39 38 37 36 35 34 34 33 33 32 31 30 30 30 30
19 21 23 24 25 27 28 29 31 32 34 35 36 37 38 39 39 40 40 40 39 39 38 38 37 36 36 36 35 34 33 33 32 32 31 31 29 29 28 28 27 27 27
21 22 23 25 26 28 29 31 32 33 34 35 36 36 37 37 37 37 37 36 35 35 34 33 33 33 32 32 31 31 30 29 29 29 28 27 27 27 26 26 25 24 23
22 23 25 27 28 30 31 32 33 33 34 34 35 35 35 35 35 34 33 32 32 31 31 30 30 29 29 28 27 27 27 26 26 25 25 24 24 24 23 23 22 21 20
23 25 27 28 30 31 32 32 33 33 34 34 34 34 33 32 31 30 30 30 29 29 28 27 27 26 26 26 25 25 25 24 24 24 23 22 21 21 21 20 19 18 18

GEFSGL_500_meanwind_138.txt.gz
Wind_Speed
9 10 11 13 15 16 16 18 20 21 22 22 22 22 22 21 20 20 20 20 20 20 20 20 20 20 20 20 20 20 21 21 21 22 22 22 22 23 23 24 24 25 25
9 10 10 10 12 13 14 17 19 21 22 22 22 23 23 22 22 22 22 22 22 22 22 22 22 22 22 22 22 22 23 23 24 25 25 25 26 26 26 27 27 28 29
8 8 9 9 11 12 12 15 18 19 21 22 22 23 23 23 23 23 23 23 23 24 23 23 23 24 24 24 24 25 25 25 26 26 27 28 28 29 29 30 30 31 32
9 8 9 10 11 12 12 14 17 18 19 20 21 22 23 23 23 22 22 22 22 23 23 24 24 25 25 26 26 27 27 27 27 28 29 30 30 31 31 32 32 33 34
10 9 9 10 11 13 13 14 16 18 19 19 21 22 22 23 22 22 23 23 23 23 24 24 25 26 26 27 28 29 29 29 30 30 30 31 33 33 34 34 35 36 37
11 10 11 11 11 12 13 14 15 17 18 19 21 22 21 21 21 22 23 24 24 24 25 26 26 27 28 29 31 31 31 31 32 32 33 34 35 36 37 37 38 39 40
11 11 12 12 12 12 13 14 15 17 18 18 20 20 20 20 20 22 23 24 25 26 27 28 28 29 31 31 32 32 32 33 34 35 36 36 38 39 39 40 41 41 42
12 12 13 13 13 14 14 15 16 17 18 19 19 20 21 21 22 24 26 27 28 28 29 30 31 32 33 33 33 33 34 35 36 37 38 39 41 42 43 43 44 44 45
13 14 14 14 15 14 15 15 16 17 18 18 19 20 21 22 23 25 27 28 29 29 30 30 31 32 33 34 35 36 37 38 39 40 41 42 43 44 45 46 47 48 48
15 15 15 15 14 15 15 16 17 18 19 20 21 22 23 24 25 27 27 28 29 30 31 31 32 33 35 35 37 38 40 40 41 42 43 44 45 46 47 48 49 51 52
17 17 16 16 16 16 17 18 19 20 20 21 22 23 23 24 25 26 27 28 29 31 31 32 33 34 36 38 39 40 41 41 43 44 45 47 48 49 50 51 52 53 54
18 18 17 17 18 18 19 19 20 21 21 22 23 24 24 25 26 27 28 30 31 32 33 33 34 34 36 38 39 41 42 43 44 46 48 50 51 52 53 53 55 56 57
20 19 19 19 19 20 21 21 22 23 23 24 24 25 26 27 27 28 29 30 31 32 33 34 35 37 38 40 41 42 43 45 47 49 50 52 53 53 54 55 57 58 60
20 20 20 21 21 22 23 23 23 23 24 25 26 26 26 27 28 29 30 31 32 33 35 36 38 39 40 42 43 44 46 47 49 50 52 53 55 55 56 57 58 59 60
21 21 22 22 23 24 24 24 25 26 26 26 27 27 27 28 30 31 32 33 35 36 38 39 40 42 42 43 45 46 47 49 50 51 52 53 55 56 57 58 58 59 59
22 22 22 22 23 24 25 25 26 26 26 27 28 29 29 31 32 34 35 36 37 39 41 42 42 43 43 44 45 46 48 49 50 51 52 53 54 55 56 57 57 57 57
21 21 21 22 23 24 25 26 26 27 28 29 30 31 32 33 34 35 36 37 38 39 39 40 42 43 44 45 46 47 48 49 50 51 52 53 54 54 54 53 53 54 53
20 21 22 22 22 22 23 24 25 26 27 28 29 31 32 33 34 35 36 36 38 39 40 41 43 44 45 45 46 47 48 49 50 50 50 50 50 50 50 50 49 49 48
18 19 19 20 21 22 23 25 26 27 28 29 29 31 33 34 35 36 37 38 39 40 41 42 43 44 45 46 46 47 47 47 47 47 47 46 46 45 45 44 43 42 41
18 18 20 20 21 23 24 24 26 27 29 30 31 32 33 35 36 37 38 39 40 41 42 42 43 44 44 44 44 44 44 44 43 42 42 41 41 40 39 38 37 37 36
18 20 21 21 21 22 23 24 26 28 29 30 32 33 34 35 36 37 38 38 39 40 41 41 42 42 42 41 41 41 40 39 38 38 38 37 37 36 35 34 34 33 33
18 18 20 21 22 23 24 26 27 28 30 31 32 33 34 35 36 37 38 38 39 39 39 40 39 39 38 38 37 36 35 35 35 34 34 33 32 32 31 31 30 30 30
18 19 21 22 23 24 26 27 28 29 30 32 33 34 35 36 36 37 37 37 38 38 38 37 36 35 35 34 33 32 32 31 31 31 30 30 30 29 29 28 27 27 27
18 20 21 23 24 25 26 28 29 30 31 32 33 34 35 35 35 35 36 36 36 35 34 34 33 32 32 31 30 30 29 28 28 28 27 27 27 27 26 26 25 25 25
20 21 23 24 26 27 28 29 30 31 32 33 33 34 34 34 34 33 33 33 32 32 32 32 31 29 29 28 28 27 26 26 26 26 26 25 25 25 24 24 23 23 23
23 24 25 26 27 28 29 30 31 32 32 32 32 32 32 32 32 31 31 31 31 31 30 29 28 27 26 26 25 25 25 24 24 25 25 24 24 23 23 22 22 22 21

GEFSGL_500_meanwind_144.txt.gz
Wind_Speed
10 11 12 13 14 15 16 18 19 20 20 20 22 22 22 22 22 22 21 21 20 20 20 20 20 21 21 21 22 22 22 21 21 22 22 21 21 22 22 22 22 23 23
10 11 12 12 13 15 15 16 18 19 20 20 21 22 22 23 23 23 23 23 23 22 22 22 22 22 22 23 23 23 23 23 23 24 24 24 24 24 25 25 25 26 26
11 12 13 13 13 14 15 16 16 17 19 20 21 22 22 22 24 24 25 25 24 24 24 24 24 24 24 24 24 25 25 25 25 26 26 26 26 27 27 27 27 28 29
12 12 12 12 13 14 15 15 16 17 18 20 21 22 23 23 24 25 25 25 26 27 27 27 27 26 26 26 26 26 26 27 27 28 28 28 28 28 29 30 30 31 32
11 11 12 12 12 12 13 14 16 17 19 20 20 21 22 22 22 24 25 25 26 27 27 28 28 27 27 26 26 27 27 28 29 29 30 30 31 31 32 33 33 34 35
12 12 12 12 12 13 13 14 15 17 18 20 21 21 22 22 22 23 24 25 25 26 27 27 27 27 28 28 28 28 29 30 31 31 32 32 33 34 35 35 36 36 38
13 13 13 13 13 13 14 15 16 17 17 18 20 21 22 23 23 24 24 25 25 25 26 28 28 28 29 30 30 30 31 33 34 34 34 35 36 37 37 38 39 39 41
14 14 14 14 14 15 15 15 16 17 18 19 20 21 22 23 24 24 24 26 27 27 27 27 29 30 30 31 32 33 33 34 35 36 36 37 39 40 41 41 42 42 43
16 16 16 16 16 16 16 16 16 17 18 19 19 21 22 23 24 25 25 26 26 26 26 28 29 30 31 32 33 34 35 36 37 38 39 40 41 42 42 43 43 44 45
18 18 17 16 16 16 17 17 18 18 19 20 20 21 22 23 25 25 26 26 26 27 28 29 29 30 31 33 34 35 36 36 37 38 39 40 41 42 43 44 45 45 46
19 19 19 19 18 18 18 18 19 20 20 21 22 22 22 24 25 26 26 26 27 28 29 29 29 30 32 33 33 34 35 36 36 38 38 40 41 43 44 45 46 47 48
20 19 19 19 20 19 19 19 19 19 20 21 23 24 25 26 27 27 27 28 28 29 29 30 30 31 33 33 34 35 36 38 39 41 42 43 44 45 46 47 48 49 50
21 20 20 20 20 20 20 21 21 21 22 23 24 25 26 27 27 27 28 28 29 30 30 31 33 33 34 35 36 36 38 39 40 41 43 44 45 46 47 48 49 50 52
21 21 21 21 21 21 22 23 23 23 24 24 24 24 25 26 27 28 29 29 30 31 32 34 35 36 36 37 37 38 40 41 42 43 44 45 47 48 49 50 51 52 53
22 22 22 22 22 22 23 24 25 24 24 24 24 25 26 27 28 29 30 31 32 32 33 35 35 36 37 38 39 40 41 42 43 45 46 47 48 48 49 49 50 51 51
22 23 23 22 22 22 23 24 24 24 24 25 26 27 28 29 30 31 31 32 32 33 34 34 35 36 37 38 39 41 42 43 45 46 47 47 47 48 47 47 48 48 49
21 22 22 22 22 22 23 24 25 25 25 26 27 28 29 29 30 32 33 33 33 34 34 34 35 36 38 38 39 41 42 43 44 44 44 44 45 45 45 46 46 47 47
20 20 20 20 21 21 22 23 24 25 25 25 26 27 29 30 31 32 32 34 34 34 35 35 37 37 38 39 40 40 41 42 42 43 43 43 43 43 43 43 43 43 43
18 19 19 20 21 21 22 23 23 24 24 25 26 27 28 29 30 30 31 32 33 34 35 36 37 38 38 39 39 40 40 40 40 40 41 41 40 40 39 39 39 38 38
18 18 18 19 20 21 21 21 22 23 25 25 26 27 28 29 29 30 31 32 33 34 35 36 36 37 37 38 38 38 39 38 38 38 38 37 37 36 36 35 35 34 34
17 17 17 18 18 19 20 21 22 24 25 25 26 26 27 29 30 30 31 32 33 33 33 34 35 35 36 36 36 36 36 36 36 35 34 34 33 32 32 31 31 30 30
16 17 18 18 19 20 22 22 23 24 24 25 26 27 28 29 30 30 31 31 31 32 32 33 33 34 34 35 35 35 34 34 33 32 31 30 30 29 29 29 29 28 27
16 16 17 18 19 21 22 23 24 24 25 26 26 27 28 28 29 29 29 30 30 31 32 32 33 33 33 33 32 32 31 30 29 29 28 28 28 27 27 26 26 26 26
15 16 17 19 20 21 22 23 24 24 25 25 26 27 27 28 28 29 29 30 30 31 31 31 32 32 31 31 30 29 28 28 27 27 27 27 26 26 25 25 25 25 24
17 18 19 20 21 22 22 24 24 25 25 26 26 27 27 28 28 29 29 29 29 29 30 30 30 30 29 29 28 27 26 26 26 26 25 25 25 25 24 24 24 24 23
19 20 21 21 22 23 24 25 25 26 26 26 27 27 27 28 28 28 28 28 28 29 29 28 28 28 27 26 26 25 25 25 25 24 24 24 23 23 23 23 23 23 23

GEFSGL_500_meanwind_150.txt.gz
Wind_Speed
12 12 13 12 11 11 12 14 15 16 18 19 20 20 20 19 21 21 21 21 21 21 21 21 21 21 21 21 22 21 22 22 22 22 21 22 22 22 22 22 22 22 22
13 13 13 13 12 12 13 14 15 16 18 19 20 20 19 19 21 21 22 22 22 23 23 23 23 23 23 23 23 24 24 24 24 23 23 23 23 24 25 25 25 25 25
14 13 13 13 14 13 13 14 14 15 17 18 20 20 19 19 20 21 21 22 23 24 25 25 24 24 25 25 25 25 26 26 26 26 26 26 26 26 27 27 28 28 28
14 15 14 14 13 13 13 14 14 15 16 17 19 18 19 19 20 20 21 22 23 24 24 24 24 25 26 27 27 27 27 27 28 28 28 28 29 29 29 29 30 31 31
15 15 15 15 14 14 14 14 15 15 16 16 17 18 19 19 19 20 22 22 23 23 24 24 25 25 27 28 29 29 29 29 29 29 30 30 30 31 31 32 32 33 33
17 17 16 16 16 16 15 15 15 15 15 15 17 18 19 19 19 20 21 22 23 24 24 25 25 26 28 29 29 30 31 31 31 31 31 32 33 33 33 33 33 34 35
18 18 17 17 16 16 15 15 15 15 15 15 16 17 18 18 19 20 21 23 24 24 25 26 27 28 29 29 30 31 32 32 32 32 32 33 33 33 34 36 37 37 37
19 18 18 17 17 16 16 15 15 15 15 16 16 17 18 18 20 21 23 24 25 25 27 28 28 29 30 30 28 29 30 31 31 32 32 33 33 34 35 37 38 39 40
20 19 18 17 17 17 17 17 17 17 17 16 17 17 18 18 19 21 22 24 24 25 27 27 28 28 28 28 29 29 30 31 33 33 34 34 34 35 36 38 39 40 41
21 20 20 19 19 19 18 18 18 18 18 18 18 19 20 20 21 21 22 23 24 25 26 27 28 29 29 29 29 30 30 31 32 32 34 35 35 36 37 39 40 41 42
22 21 20 19 19 19 19 19 20 20 20 20 20 20 20 21 21 22 23 24 25 26 26 27 27 28 30 30 31 31 31 32 33 34 35 36 37 38 39 41 42 42 43
22 21 21 21 21 20 20 19 20 21 21 22 22 21 21 21 22 23 24 25 26 26 26 27 28 29 30 31 32 32 33 34 35 35 36 37 38 39 40 41 42 43 44
23 23 22 22 22 22 21 21 21 21 21 21 22 23 23 23 23 24 25 25 26 27 28 29 29 30 31 32 32 33 33 34 35 36 37 39 40 41 41 42 43 44 45
23 23 23 23 23 22 22 22 23 23 23 22 22 23 24 24 24 25 26 28 28 29 29 30 31 32 32 33 34 34 34 35 37 38 38 39 40 41 42 43 45 46 46
23 23 23 22 22 22 22 22 23 23 23 24 24 25 25 25 26 27 28 29 30 30 30 31 32 33 33 34 34 34 35 36 37 37 38 39 40 42 42 43 45 45 45
23 23 22 22 22 22 22 22 23 24 24 24 24 25 25 26 27 27 28 29 30 31 32 33 34 34 35 35 35 35 35 36 37 38 39 40 41 42 43 43 44 44 44
22 22 22 22 22 22 22 22 22 22 23 24 24 25 25 26 26 28 29 30 31 32 33 34 34 34 35 35 36 36 36 37 38 39 39 40 41 41 41 41 41 41 41
21 21 21 21 21 20 20 20 21 21 22 23 24 25 25 26 27 29 29 30 31 32 33 34 34 34 35 36 37 37 37 38 38 38 38 39 39 39 39 39 39 38 38
20 20 20 20 20 19 19 19 20 21 22 23 24 24 25 27 28 28 29 30 31 32 33 34 34 35 35 35 36 35 36 36 37 37 37 37 37 37 36 36 36 35 35
18 18 19 19 19 19 19 20 21 21 22 24 24 25 26 27 28 29 30 31 32 33 33 33 33 33 33 34 34 35 35 36 36 36 36 35 35 34 34 33 32 32 32
18 17 18 18 18 19 19 20 21 22 23 24 25 26 26 27 28 29 30 31 31 31 32 32 32 33 33 34 34 35 35 35 35 35 34 34 33 32 32 31 31 30 30
17 18 19 19 20 20 21 22 23 24 24 25 26 27 28 28 29 29 30 31 31 31 32 32 33 33 34 34 34 34 34 34 33 32 32 32 31 31 30 30 29 29 28
18 19 19 19 20 21 22 23 24 25 26 27 28 29 29 29 29 29 29 30 30 31 32 32 32 32 33 34 34 33 33 32 31 31 31 31 30 30 29 28 27 27 26
19 19 19 20 21 22 22 23 24 26 26 27 28 28 28 28 28 28 29 30 30 30 31 32 32 32 33 32 32 31 31 31 30 30 30 29 29 28 27 27 26 25 25
18 19 19 20 22 23 24 25 25 26 26 27 27 27 27 27 28 28 29 29 30 30 30 31 31 31 31 31 30 30 30 29 29 29 28 28 27 27 26 25 25 25 24
18 19 20 21 22 23 23 24 25 25 25 26 26 26 27 28 28 29 29 30 31 31 31 31 31 30 30 30 30 29 29 28 28 27 27 26 25 24 24 24 24 24 24

GEFSGL_500_meanwind_156.txt.gz
Wind_Speed
10 10 9 8 8 9 9 10 11 12 13 14 16 18 19 20 20 21 21 20 20 21 21 21 21 22 23 23 23 23 23 23 23 22 22 23 23 24 24 24 24 25 25
10 10 10 10 10 10 10 10 11 12 13 14 16 17 19 20 21 22 22 22 22 23 23 23 23 24 24 24 24 24 24 24 24 24 24 25 25 25 26 27 27 27 27
12 11 11 11 11 12 11 12 12 13 14 15 16 17 18 20 21 21 22 23 22 22 23 22 23 24 25 25 25 25 25 25 26 26 26 27 27 27 28 28 29 29 30
13 13 13 13 13 13 13 13 13 14 14 15 16 17 19 21 21 22 22 22 22 22 21 22 23 24 24 25 26 26 27 27 27 28 28 29 29 29 30 30 31 31 32
14 14 14 14 14 14 14 15 15 15 15 16 16 17 17 19 20 21 22 22 21 22 22 22 23 24 25 25 26 26 27 28 28 28 29 30 30 31 31 31 32 32 33
15 15 15 14 14 14 14 15 15 16 16 16 16 16 16 17 18 18 19 19 20 20 21 22 23 23 24 25 25 26 26 28 29 30 31 31 31 32 32 32 32 32 33
16 15 14 14 15 15 15 15 15 15 15 15 15 15 15 15 16 16 17 18 19 20 20 21 22 23 24 25 26 26 26 27 29 29 30 30 31 31 32 33 33 33 34
16 15 15 15 15 15 15 15 15 15 15 15 15 15 15 15 16 16 17 18 19 20 21 23 23 24 26 26 27 27 27 28 28 28 29 30 31 32 33 33 34 35 36
17 16 16 15 16 15 15 15 15 15 15 15 15 15 15 16 16 16 17 19 20 21 22 23 24 25 25 26 27 27 27 27 28 29 30 31 32 33 33 34 35 36 37
18 17 17 16 16 15 15 14 15 15 15 15 15 15 16 16 17 17 18 19 21 22 23 24 24 25 25 26 26 27 28 29 30 31 31 32 33 33 34 35 36 37 38
19 19 18 18 17 16 15 15 15 16 16 16 17 17 17 18 18 19 20 21 22 22 24 24 25 25 26 27 28 29 29 30 30 31 32 32 33 34 35 36 37 38 40
20 19 19 18 17 16 16 16 16 16 16 17 18 18 18 18 19 20 21 22 22 23 24 25 25 26 27 29 30 30 30 31 32 33 33 34 35 36 37 38 39 40 40
20 19 19 18 18 18 18 18 18 18 18 18 18 18 19 20 20 22 22 22 23 24 25 26 27 28 29 29 30 31 32 33 33 34 35 36 36 37 38 39 40 41 42
20 20 20 19 19 19 19 18 18 18 18 18 18 19 20 20 21 22 23 24 24 25 26 27 28 29 30 31 31 32 33 34 34 35 36 37 38 39 39 40 40 41 41
21 20 20 19 19 19 19 19 19 19 20 19 20 20 20 21 22 22 24 24 25 26 27 28 29 30 31 31 32 34 34 35 36 36 37 37 38 39 39 39 39 40 40
21 20 20 20 20 19 19 19 19 19 20 20 20 20 20 21 21 22 23 24 26 27 28 29 30 31 32 33 33 34 34 35 36 36 37 37 37 37 38 38 39 40 40
20 20 20 20 20 19 19 18 19 20 20 20 20 20 21 22 23 24 25 26 27 28 29 30 31 32 33 33 33 33 34 35 35 36 37 37 38 38 38 38 38 39 39
19 19 19 19 19 19 18 18 18 19 19 19 20 21 22 23 24 25 26 27 29 30 30 31 32 32 32 33 34 34 35 35 36 37 38 38 37 37 38 38 38 38 37
17 17 18 18 18 18 18 18 18 18 19 20 21 22 23 24 25 26 28 29 29 30 31 31 31 32 32 33 34 34 35 36 36 37 37 36 37 37 37 37 37 37 36
17 17 17 17 17 17 17 17 18 18 20 21 22 23 24 25 26 27 28 29 30 30 31 31 32 32 33 33 34 34 35 35 36 35 35 36 36 36 35 35 35 35 34
16 16 15 15 15 16 17 18 19 20 21 23 24 25 26 27 27 28 28 29 29 29 30 31 31 32 32 33 34 34 34 34 34 34 34 34 34 34 34 34 33 33 32
15 15 15 16 17 18 19 20 21 22 23 23 24 25 26 27 27 28 28 28 28 28 29 30 31 31 31 31 32 32 33 33 33 32 32 32 32 32 32 31 31 30 29
15 16 17 18 19 19 20 21 22 22 23 24 25 26 26 26 27 27 27 28 28 28 29 29 29 30 30 31 31 32 32 32 31 31 31 31 31 30 29 28 28 27 26
16 16 18 18 19 20 20 21 22 22 23 24 25 25 25 26 26 26 27 27 27 28 29 30 31 32 32 32 32 31 31 30 30 30 29 29 29 28 27 26 25 25 25
16 17 18 18 19 19 20 21 22 22 23 24 24 24 25 25 26 26 27 28 28 29 30 31 32 32 32 32 31 30 30 29 29 28 27 27 26 25 24 24 24 24 24
17 18 18 18 19 19 20 21 22 23 23 24 24 25 25 26 26 27 27 28 29 30 31 31 31 31 31 30 30 29 28 27 27 26 26 25 24 23 23 23 23 23 24

GEFSGL_500_meanwind_162.txt.gz
Wind_Speed
9 9 10 10 10 10 11 12 12 13 13 14 15 16 18 19 20 20 21 21 21 22 22 23 23 24 24 24 24 25 25 26 25 26 27 27 27 27 27 28 28 28 28
10 10 10 11 12 12 12 12 12 12 13 14 15 16 17 19 20 21 22 23 23 23 24 24 24 25 26 26 26 26 27 27 26 26 27 28 28 29 29 29 30 30 30
11 10 11 12 12 13 13 13 13 13 13 14 14 16 17 19 21 21 22 23 24 25 26 26 26 26 26 26 27 27 27 27 27 28 28 29 30 31 31 31 31 32 32
11 10 12 13 13 13 13 13 14 14 15 15 16 17 18 19 20 21 23 24 25 26 26 26 27 27 26 26 27 27 27 28 28 28 29 30 30 31 32 32 33 32 33
11 11 12 13 13 13 14 15 15 16 16 16 17 18 19 20 20 21 22 23 23 24 25 26 26 26 26 26 26 27 27 27 28 28 29 30 31 31 32 33 33 33 33
12 12 13 13 13 14 14 15 16 17 17 18 18 19 19 20 21 21 21 21 21 22 22 23 24 25 25 25 26 27 28 28 28 29 30 31 31 31 32 33 33 34 34
13 14 14 14 14 15 15 15 16 17 18 18 19 19 19 20 20 20 20 19 19 19 21 23 24 24 25 26 27 27 27 28 29 30 31 30 31 31 31 32 33 34 34
15 16 16 16 16 16 16 16 17 18 18 18 18 18 19 19 19 19 19 19 20 20 21 22 23 24 25 26 27 28 29 29 30 31 31 31 31 32 32 33 34 35 36
16 16 17 18 18 17 17 17 17 17 17 17 17 17 17 18 18 18 18 19 20 20 21 22 23 24 25 26 28 29 29 30 31 31 31 31 32 32 34 35 36 36 36
17 17 18 18 18 18 18 18 19 19 18 17 17 17 18 18 18 19 19 19 20 21 23 24 24 25 26 27 28 29 30 31 32 32 32 33 33 33 35 35 36 36 36
18 18 19 19 19 18 18 18 19 19 19 18 18 18 19 19 20 20 20 21 21 22 24 25 26 27 27 28 29 30 31 32 33 33 34 34 35 35 36 37 37 38 38
19 19 19 19 19 19 19 19 19 19 19 19 19 19 19 20 20 21 21 22 23 23 24 25 26 26 27 29 30 30 32 33 34 34 35 36 36 37 37 38 38 39 40
20 20 20 20 20 20 20 20 20 20 20 20 20 20 20 20 21 22 22 22 23 24 25 26 27 28 28 29 30 31 32 33 33 34 35 36 36 37 38 38 39 40 40
21 21 21 21 21 21 20 20 21 21 21 21 21 21 21 21 21 22 23 24 25 25 26 26 27 28 29 30 30 30 31 32 34 35 36 36 37 37 37 38 38 39 39
21 21 21 22 21 21 21 21 21 22 22 22 21 21 22 22 22 23 24 25 25 26 27 28 29 29 30 31 32 32 33 34 36 36 36 37 36 37 37 38 39 40 40
21 21 21 21 21 20 20 21 21 21 21 21 21 21 21 22 23 24 24 26 27 28 29 30 30 31 32 32 33 34 35 35 37 37 37 37 38 39 39 39 39 40 41
21 21 21 21 20 20 20 21 21 21 21 21 21 21 21 22 23 24 26 27 28 29 30 31 32 32 33 33 34 34 35 36 37 37 37 38 38 39 39 39 39 39 39
21 20 20 20 20 20 21 21 20 20 20 20 20 21 22 23 24 25 27 28 29 29 30 31 31 32 33 33 33 33 34 34 34 35 36 36 37 37 38 38 37 37 37
20 20 20 20 20 20 20 20 20 20 20 21 21 22 23 24 25 26 27 28 29 29 30 30 31 31 32 32 32 32 33 33 34 35 35 36 36 36 36 36 36 36 35
20 20 20 19 20 20 20 20 20 21 21 22 22 22 23 25 25 26 27 28 28 29 29 30 30 31 31 31 31 32 33 34 34 35 35 35 35 35 35 35 35 34 34
19 19 19 20 20 20 20 20 20 21 21 22 22 23 24 25 26 26 27 28 28 29 29 30 30 31 31 32 33 33 33 34 34 35 35 35 35 35 34 34 33 33 32
19 19 20 19 19 19 19 20 20 20 21 21 23 24 25 25 26 27 27 28 28 29 29 30 30 31 32 32 33 33 33 34 34 34 34 33 33 32 32 31 31 30 29
19 19 19 19 19 19 20 20 21 21 22 22 23 24 25 26 26 26 27 27 28 28 29 30 30 31 31 31 31 32 32 32 32 32 31 31 30 30 30 29 28 28 27
19 19 19 19 19 19 20 21 21 22 22 23 23 24 25 25 25 26 26 27 27 28 29 29 30 31 31 31 31 32 32 31 31 30 29 29 28 28 27 27 26 26 25
18 18 19 19 19 20 20 21 21 22 23 23 23 24 24 24 25 25 26 27 28 29 30 30 30 31 31 31 31 31 30 30 29 28 28 27 27 26 25 25 24 24 23
18 18 18 19 20 20 20 21 21 22 22 23 23 23 24 25 26 27 27 28 29 30 30 30 30 30 30 30 29 29 28 27 27 26 26 25 24 24 24 23 23 23 23

GEFSGL_500_meanwind_168.txt.gz
Wind_Speed
11 11 11 12 12 13 13 13 14 14 15 16 16 17 18 19 19 19 19 19 20 21 22 22 22 23 23 24 24 24 24 24 24 24 25 26 27 27 27 27 27 28 28
11 12 12 13 13 13 13 13 13 14 15 16 17 18 18 18 18 19 20 21 22 22 23 23 23 24 25 26 26 26 25 24 25 25 26 27 27 27 28 28 28 29 29
11 12 13 13 13 13 13 13 14 15 15 16 18 18 19 18 19 20 20 21 23 23 23 24 25 25 26 26 27 27 27 26 27 27 27 28 28 29 28 28 29 30 30
11 12 13 12 12 12 13 13 14 15 16 17 18 18 19 20 21 21 22 22 23 24 24 25 25 26 26 26 27 26 26 26 27 28 28 29 29 29 29 29 30 31 31
12 13 13 13 12 13 13 14 15 16 17 17 18 18 19 20 21 22 22 22 23 24 24 25 24 24 25 26 26 26 25 26 26 27 28 28 28 29 29 30 30 31 32
13 14 14 15 15 15 15 16 16 17 17 17 17 18 20 21 21 22 23 23 24 24 24 23 24 24 24 24 25 25 25 25 26 26 27 27 28 28 29 30 31 32 33
15 15 15 16 16 16 17 17 18 18 18 18 19 20 21 21 22 23 23 24 24 24 24 24 24 23 22 22 23 24 26 26 27 28 28 29 29 30 31 31 31 32 33
16 17 17 16 17 18 18 18 18 18 19 19 20 21 21 21 21 22 22 23 23 24 24 24 23 22 22 23 25 26 27 28 28 29 30 30 31 32 32 32 32 33 34
17 17 17 18 18 18 18 18 18 19 19 20 21 20 21 21 21 21 22 21 22 22 22 23 23 23 23 23 24 26 27 28 28 29 30 31 32 33 33 34 35 36 36
18 18 19 19 19 19 19 19 20 20 20 21 21 21 21 20 20 20 21 20 20 21 21 22 22 23 23 24 25 26 27 28 28 29 30 31 32 33 34 35 35 36 36
20 20 20 20 21 21 21 21 22 22 22 22 22 21 21 21 21 20 21 20 20 21 22 22 22 22 23 24 25 26 27 28 28 29 30 31 32 33 34 35 36 37 38
20 21 21 22 22 22 22 22 23 23 23 22 22 22 21 21 22 22 21 21 22 22 23 23 24 24 25 25 26 27 28 29 30 31 31 32 33 34 34 35 36 37 37
21 22 22 23 23 23 23 23 23 23 23 22 22 22 22 22 22 22 22 23 23 24 24 24 25 26 26 27 28 28 29 31 32 32 32 33 34 35 36 36 37 37 38
22 23 23 23 23 23 24 23 23 22 22 22 22 22 22 22 22 22 22 23 23 24 25 26 27 27 28 28 29 30 31 32 32 33 33 34 36 36 37 37 37 37 38
22 23 23 23 24 24 23 23 23 22 22 22 22 21 21 22 22 23 23 23 24 24 26 27 27 28 29 29 30 31 31 32 32 33 34 35 36 36 36 36 36 37 37
23 23 23 23 23 24 23 23 22 22 22 21 21 21 21 22 22 23 23 24 24 25 26 27 28 29 29 30 30 30 31 32 32 33 33 34 35 35 35 35 35 35 35
24 24 24 24 24 23 23 23 22 22 22 21 21 21 22 22 22 23 24 24 25 26 26 28 28 29 29 29 30 30 31 31 31 32 32 33 33 34 34 34 34 34 34
24 24 24 24 23 23 23 23 22 22 21 21 21 22 22 22 23 24 24 25 26 26 27 28 28 28 29 29 30 30 31 31 31 32 33 33 33 33 33 33 32 33 33
24 24 23 23 22 22 22 22 22 22 22 22 22 22 23 23 24 24 25 25 26 27 27 27 27 28 28 29 29 30 30 31 31 32 32 32 32 33 32 32 31 31 31
25 24 23 23 22 22 22 22 22 22 22 23 23 23 23 24 24 24 24 25 26 26 26 26 27 27 28 28 29 30 30 31 31 31 31 32 32 31 31 30 30 29 29
24 24 24 23 22 22 22 22 22 22 23 23 22 23 23 24 24 25 25 25 26 26 26 26 27 27 28 29 30 30 30 30 30 31 31 30 30 29 29 28 29 28 29
24 24 23 23 23 22 22 22 22 22 22 23 22 23 23 24 25 25 25 26 26 26 26 27 27 27 28 29 29 29 29 29 30 30 29 29 28 28 28 27 27 27 27
23 23 23 23 22 22 23 22 22 22 22 22 23 23 24 24 24 25 25 25 25 25 26 26 27 27 28 28 28 28 28 28 28 28 28 27 27 26 26 26 26 26 26
23 23 23 22 22 22 22 21 22 22 22 23 23 23 24 24 24 23 24 24 25 26 26 27 27 28 28 28 28 28 28 28 27 27 26 26 26 25 25 25 25 24 24
23 22 22 22 21 21 20 21 21 21 22 22 22 23 23 23 23 23 24 25 26 27 27 27 27 27 28 28 28 27 27 26 26 26 25 25 24 24 24 24 24 23 23
22 22 21 20 20 20 20 21 21 21 21 22 22 23 23 24 24 25 25 26 27 27 28 28 27 27 27 27 27 26 26 25 25 25 24 24 24 24 23 23 23 22 22

GEFSGL_500_meanwind_174.txt.gz
Wind_Speed
13 13 12 12 13 13 13 13 13 13 13 13 14 15 16 16 17 17 18 18 19 20 20 20 21 21 21 21 22 22 22 22 21 22 24 25 24 24 25 25 26 26 26
14 14 14 14 14 14 14 14 14 14 14 14 15 16 17 17 18 18 19 19 20 20 21 21 22 22 22 22 23 24 24 24 23 23 24 26 25 25 26 26 26 27 28
15 15 15 15 14 14 14 14 14 14 15 16 16 17 17 18 18 19 19 20 20 21 22 22 22 23 23 23 23 24 24 25 25 25 25 27 27 27 27 27 27 28 29
15 16 16 15 15 15 15 15 15 16 16 17 17 18 18 18 18 19 20 21 22 22 23 23 23 24 24 24 25 25 25 26 25 26 26 27 29 29 29 28 28 29 29
16 17 17 16 16 16 16 16 16 16 16 17 18 19 19 19 19 20 20 22 23 24 24 24 24 25 24 24 25 25 26 27 27 28 28 28 30 29 29 29 30 30 31
17 18 17 16 16 16 16 17 17 17 17 18 19 19 20 20 20 21 22 23 23 23 23 24 24 24 24 25 26 26 26 27 27 27 28 29 29 29 29 30 30 30 31
18 17 17 17 17 17 18 18 18 19 19 19 19 19 20 21 21 22 23 23 23 23 23 24 24 25 25 26 26 26 27 27 27 26 27 28 29 29 29 30 30 30 31
18 18 18 19 19 19 19 19 19 19 19 20 20 21 21 22 22 23 23 24 24 23 23 23 24 24 24 25 26 26 26 26 26 26 27 28 29 29 29 30 31 31 32
19 19 19 20 20 20 20 20 20 20 20 21 21 22 23 23 23 23 23 23 23 23 23 23 23 23 24 24 25 25 25 26 26 26 27 28 28 29 30 31 31 32 32
20 20 21 21 21 21 21 21 21 21 22 22 23 23 23 24 24 24 23 23 23 22 23 23 23 22 23 24 24 25 25 25 26 27 27 28 29 30 31 32 33 34 34
21 21 22 22 21 21 22 22 23 22 23 23 23 24 24 24 24 24 23 23 23 23 23 24 24 24 24 24 25 25 25 26 26 27 28 28 29 30 31 32 34 35 35
22 22 22 22 22 22 22 23 23 23 23 24 24 24 24 25 24 24 24 23 23 24 25 24 24 24 24 24 25 26 27 28 28 29 29 30 30 31 32 33 34 35 35
24 24 23 23 23 23 23 23 24 24 24 24 24 24 25 25 25 24 24 24 24 24 25 25 25 25 26 27 27 28 29 29 29 30 31 31 32 33 34 34 34 34 34
25 25 25 24 24 24 23 24 24 24 24 25 25 25 25 25 25 24 24 24 24 24 24 25 25 26 27 28 29 30 30 31 31 31 32 32 33 33 33 33 33 33 33
25 26 25 24 24 24 24 24 24 24 25 25 25 26 26 25 25 25 25 25 24 24 25 26 26 27 28 29 29 30 31 31 32 32 32 32 32 32 32 32 32 32 32
27 27 26 25 25 24 24 24 24 25 25 26 26 26 25 25 25 25 25 26 26 26 27 27 28 29 29 29 29 29 30 31 31 31 32 32 33 33 32 32 32 32 32
27 27 26 25 25 24 24 25 25 25 26 26 26 25 25 24 25 25 26 27 27 27 28 28 29 29 29 29 29 30 30 31 31 31 32 32 33 32 32 32 32 31 31
28 27 27 26 25 25 25 25 25 26 26 25 25 24 24 24 25 25 26 26 27 28 28 28 28 29 29 29 30 30 30 31 31 31 32 32 32 31 31 31 31 31 30
29 28 27 26 26 26 26 26 26 26 26 25 25 25 25 25 26 26 26 26 27 27 28 28 29 29 29 29 30 30 30 30 31 31 31 31 31 30 30 29 28 28 28
29 28 28 27 27 27 27 26 26 25 25 25 25 25 26 26 26 26 26 27 27 27 28 28 28 29 29 30 30 30 30 30 31 31 30 30 30 29 28 28 27 27 27
28 27 28 28 28 27 27 26 26 25 25 25 26 26 26 26 26 26 27 27 27 28 28 29 29 29 30 30 30 30 30 30 31 30 30 29 29 28 28 27 27 27 27
27 27 27 27 26 26 26 26 26 26 26 26 26 26 26 26 26 27 27 28 28 27 28 29 29 29 29 29 30 30 30 30 30 29 29 28 28 28 28 28 28 27 27
27 27 26 26 25 25 26 25 25 25 26 26 25 25 26 27 27 27 27 28 27 27 28 29 29 29 30 30 30 30 29 29 29 29 29 29 28 28 27 27 27 26 26
26 25 25 25 25 25 25 25 25 25 25 26 25 26 26 27 28 27 27 27 27 28 28 29 30 30 30 30 30 30 29 29 29 29 29 29 28 27 27 26 25 25 25
25 25 24 24 25 24 25 25 25 25 26 26 25 26 27 27 27 27 27 27 28 29 29 30 30 30 30 30 30 29 29 29 29 28 28 28 27 26 26 25 24 24 24
24 24 24 24 24 24 24 24 25 25 25 26 26 26 26 27 27 28 28 29 29 30 30 30 30 30 30 29 29 29 29 29 28 27 27 26 26 25 24 23 23 23 23

GEFSGL_500_meanwind_180.txt.gz
Wind_Speed
10 9 9 8 9 8 8 8 8 8 8 8 9 10 11 11 12 13 14 15 16 16 17 18 19 20 20 20 20 20 21 21 21 21 22 22 23 23 23 23 24 26 27
10 10 10 9 9 8 8 9 9 9 8 9 10 11 12 12 13 14 15 16 17 18 18 19 19 20 20 20 21 21 22 22 22 23 23 24 24 25 25 25 26 27 27
10 11 11 11 10 10 9 10 9 10 10 10 10 11 12 13 14 14 15 16 17 18 19 20 19 20 19 20 21 21 22 23 23 23 24 25 26 26 27 27 27 27 27
11 11 12 12 11 11 10 10 10 10 10 11 11 12 13 14 15 15 15 16 17 18 19 18 19 20 20 20 21 21 22 23 24 24 25 26 26 27 28 28 28 28 29
11 12 12 12 11 11 11 11 10 11 11 12 12 12 13 14 15 15 16 17 18 18 19 19 20 20 21 22 22 22 23 23 24 25 26 26 27 28 29 29 29 29 30
13 12 13 12 12 12 12 12 12 12 12 13 13 13 14 15 15 16 17 18 19 19 20 20 20 21 22 23 23 23 23 23 24 25 26 27 27 29 29 30 30 30 31
13 13 13 13 13 13 13 13 13 13 14 13 14 14 15 15 17 17 18 18 19 19 20 20 21 21 22 22 23 23 23 23 24 25 26 27 28 28 29 30 30 30 30
14 14 14 14 14 14 14 14 14 14 14 14 15 16 16 17 17 17 18 18 18 19 20 20 20 20 21 21 21 22 23 23 24 24 25 26 26 27 28 29 30 30 31
15 16 15 15 15 14 15 15 15 15 15 15 16 17 17 18 17 17 18 19 19 20 20 20 20 21 21 21 21 22 23 23 23 24 25 25 27 28 28 28 29 29 30
16 16 16 16 16 16 16 16 16 16 16 17 17 17 18 18 18 18 18 19 19 20 20 20 21 21 21 21 22 22 23 23 24 25 25 26 27 27 28 28 29 30 31
17 18 18 17 16 17 17 17 17 18 18 18 18 18 18 19 18 18 19 20 20 21 21 21 21 22 22 22 22 23 23 24 25 25 27 27 27 28 28 29 30 30 31
19 19 18 18 18 18 18 18 18 19 19 19 19 19 19 19 19 20 20 21 21 21 21 21 21 22 22 23 23 24 24 25 26 27 28 28 28 28 29 29 30 31 31
20 20 20 20 20 20 19 19 19 20 20 20 19 19 19 19 20 21 21 22 22 22 22 22 22 23 24 24 24 25 26 26 27 28 28 28 29 29 30 29 29 30 30
21 21 21 21 21 21 21 21 20 20 20 20 20 20 20 21 21 22 22 23 23 23 23 23 23 24 25 25 25 26 27 28 28 29 29 30 30 30 30 29 29 30 30
21 22 22 22 22 22 22 21 21 21 22 22 22 22 22 22 23 23 23 23 23 23 23 24 24 25 25 26 26 27 28 29 29 29 30 30 30 30 30 29 29 29 29
22 22 22 22 23 23 22 22 22 23 23 23 24 24 23 23 23 24 24 24 24 24 24 25 25 25 26 27 28 28 29 29 29 29 29 29 29 29 29 29 29 29 29
24 24 24 24 24 24 23 23 24 24 25 25 24 24 24 24 24 25 25 25 25 25 25 25 25 26 27 27 28 29 29 29 29 29 29 29 29 29 29 29 28 28 28
24 24 24 24 24 24 24 24 25 25 25 25 25 25 25 25 25 25 25 25 26 26 26 26 26 27 27 28 29 29 29 29 29 29 29 29 28 28 28 28 28 27 27
25 25 25 25 25 25 25 25 26 26 26 26 26 26 26 26 25 25 26 26 26 26 26 27 27 28 29 29 29 30 29 29 29 29 29 28 29 28 28 28 27 27 27
26 26 26 26 26 26 26 26 27 26 26 26 26 27 26 26 26 26 27 27 27 27 27 27 28 29 29 29 30 30 29 28 28 29 29 28 29 29 28 28 27 27 26
27 27 27 27 27 27 27 27 27 27 27 27 27 27 27 27 27 27 27 27 27 27 28 28 29 29 29 29 30 29 28 28 28 29 29 29 28 28 27 27 27 26 26
28 27 27 27 28 27 27 27 27 27 27 27 27 27 27 27 27 27 27 28 28 28 28 29 29 30 30 30 29 29 29 29 29 29 28 28 28 27 26 26 26 26 25
27 27 27 28 28 27 27 27 27 27 27 27 27 27 26 27 27 28 28 27 27 28 29 29 29 30 30 29 29 29 29 28 28 28 28 27 27 27 26 26 25 24 24
28 28 28 28 27 27 27 27 27 27 26 26 27 27 26 27 27 27 27 27 27 28 29 29 29 30 29 29 29 29 29 28 28 27 27 27 26 26 26 25 24 24 24
28 27 27 27 28 27 27 26 26 26 26 26 26 26 26 25 25 26 26 27 28 28 29 29 29 29 29 29 28 28 28 27 27 27 27 26 25 25 25 25 24 24 23
27 26 26 27 27 26 26 25 25 24 24 24 25 25 25 25 26 26 27 28 28 28 29 29 29 29 29 28 28 27 27 27 26 26 26 26 25 25 25 24 24 24 23

GEFSGL_500_meanwind_186.txt.gz
Wind_Speed
8 9 8 8 8 8 8 8 8 8 9 9 10 10 11 12 13 14 15 15 16 17 17 18 18 19 19 20 21 21 22 22 23 23 25 25 26 27 27 28 28 28 29
9 9 9 9 9 9 8 8 9 9 10 10 10 11 12 13 14 15 15 16 17 17 18 18 19 19 20 20 21 21 22 23 23 24 25 26 27 27 27 28 28 28 29
9 9 9 9 9 9 8 8 9 10 11 11 12 12 12 13 14 15 15 16 17 17 18 19 19 19 20 21 22 22 23 23 23 24 24 25 26 27 27 28 29 29 30
10 11 11 10 9 9 9 9 10 10 11 11 12 12 12 13 14 15 15 16 18 19 19 20 20 20 21 21 22 23 23 23 23 24 25 25 25 26 27 29 30 30 31
11 11 12 11 10 9 9 10 10 11 11 11 12 12 13 13 14 16 16 17 18 19 20 20 20 20 21 21 22 23 23 23 24 24 24 25 25 27 28 29 30 31 32
12 12 12 11 11 11 11 11 12 12 12 12 12 13 14 15 16 17 18 18 19 19 19 20 20 20 21 22 22 23 23 23 24 24 25 25 26 27 28 29 30 31 32
13 13 13 12 12 12 12 12 13 13 14 14 14 14 15 16 17 18 18 19 19 19 20 20 21 21 22 22 22 23 23 23 24 24 25 26 27 28 29 30 30 31 31
14 13 13 13 14 14 13 14 14 14 14 14 15 15 15 16 17 17 19 20 20 20 20 21 22 22 22 23 23 24 24 24 24 25 26 27 28 28 29 30 31 31 32
13 14 14 15 15 14 14 15 15 15 15 16 16 16 16 17 17 18 19 19 20 21 21 22 22 22 23 23 24 24 24 25 25 26 27 27 28 28 29 30 31 31 31
15 15 16 16 15 15 15 15 15 16 16 17 17 17 18 18 18 19 20 20 20 21 21 22 23 23 24 24 24 25 25 25 26 26 27 28 29 29 29 31 31 31 31
17 17 16 16 16 16 16 16 16 17 17 17 18 18 19 19 20 20 21 21 21 22 22 22 23 24 24 24 25 25 25 26 27 27 28 29 30 30 31 31 31 31 32
18 18 18 17 17 17 17 17 18 18 18 19 19 19 19 20 21 21 22 22 22 23 23 24 24 24 25 25 25 26 26 27 28 28 29 30 30 31 31 31 31 31 31
19 18 18 18 18 18 19 19 19 19 19 19 20 20 20 21 22 22 23 23 24 24 25 25 25 25 26 26 26 27 27 27 28 29 29 30 30 31 31 30 30 30 30
19 19 19 19 19 19 20 20 20 20 20 20 20 21 22 22 23 24 24 24 25 26 25 25 26 26 27 27 27 27 27 28 29 29 29 30 30 30 30 30 29 29 29
20 20 20 20 20 20 20 21 21 20 21 21 22 22 23 23 24 25 25 25 26 26 27 27 27 27 27 28 28 28 29 29 29 30 30 30 29 29 29 29 29 29 29
21 21 21 21 21 21 21 22 21 22 22 23 23 23 24 24 25 26 26 26 27 28 28 28 28 28 28 28 28 29 29 29 30 30 30 30 30 30 29 29 29 29 29
22 22 22 22 22 23 23 23 23 23 24 24 25 25 25 25 26 27 27 28 28 28 29 29 29 28 28 28 29 29 30 30 31 30 30 30 30 30 29 29 29 29 29
22 22 23 23 23 24 24 24 24 25 25 25 25 26 26 26 27 28 29 29 29 29 29 29 29 29 29 29 30 30 30 31 31 30 30 30 29 29 29 29 29 29 29
23 23 23 23 24 24 24 25 25 26 26 27 27 27 27 28 28 29 30 30 30 29 29 29 29 29 29 30 30 30 31 31 31 31 30 29 29 29 29 29 29 28 28
24 24 24 25 25 25 25 26 26 27 28 28 29 28 28 29 29 29 29 29 29 29 28 28 29 29 29 30 30 30 31 31 31 30 30 29 29 29 29 29 28 28 28
26 26 26 26 27 27 27 27 28 29 29 29 29 29 29 29 29 29 29 29 29 29 29 29 29 29 29 30 30 30 30 30 30 30 30 29 29 29 29 29 28 28 27
27 27 27 28 28 28 29 29 29 29 29 29 30 29 29 29 29 29 29 29 29 29 29 28 28 28 29 29 30 30 30 30 30 30 29 29 29 29 29 28 28 27 26
27 27 28 28 29 29 29 29 29 30 30 30 30 29 30 30 30 29 29 29 28 28 28 28 28 28 29 30 30 30 30 30 30 30 29 29 29 28 28 27 27 26 25
27 28 28 28 28 28 29 29 29 29 30 29 29 29 29 29 29 29 28 28 28 28 28 28 28 29 29 30 30 30 30 30 29 29 28 28 28 28 28 27 26 26 25
28 29 29 28 28 28 28 29 29 29 29 29 28 28 28 28 28 27 27 27 27 27 28 28 29 29 30 30 30 30 30 29 29 28 28 28 28 28 27 27 26 26 26
29 29 29 29 29 28 28 28 28 28 28 28 28 28 27 27 27 27 27 27 28 28 28 28 29 30 30 30 30 30 30 29 29 28 28 28 28 28 27 27 27 27 27

GEFSGL_500_meanwind_192.txt.gz
Wind_Speed
11 10 11 11 10 10 9 9 9 9 9 9 9 10 11 11 12 12 13 14 14 15 15 16 17 17 16 17 17 18 19 19 20 20 21 22 22 23 24 25 25 25 25
11 11 11 11 10 10 9 9 9 10 10 10 10 10 11 12 12 13 13 14 15 15 16 16 17 17 17 18 18 19 19 20 20 20 21 22 23 23 24 24 24 25 25
12 11 11 11 11 11 11 10 10 10 10 10 11 12 12 12 12 13 14 15 15 16 16 16 17 17 18 19 19 19 19 20 20 21 22 22 23 23 24 24 25 25 26
13 12 12 12 12 12 12 12 12 11 11 11 12 12 12 12 13 14 14 14 15 16 16 17 18 18 18 19 19 20 20 21 22 22 22 23 23 24 24 25 26 27 28
13 12 12 12 13 13 13 13 13 12 12 13 13 13 13 13 13 14 14 15 16 17 18 18 18 18 18 19 20 20 21 22 22 22 23 24 24 25 25 26 27 28 29
13 13 13 13 14 14 14 14 13 13 13 13 13 13 13 14 14 14 15 16 17 18 18 19 19 19 20 20 20 21 21 22 22 23 24 25 25 26 27 27 27 28 29
14 14 15 15 15 15 15 16 15 14 14 14 14 14 14 15 16 16 16 17 18 18 18 19 19 20 20 21 21 21 22 22 23 24 24 25 26 27 28 28 28 29 29
15 15 16 16 16 16 16 16 14 15 15 15 15 15 16 16 17 17 18 18 19 19 19 20 21 21 22 22 22 22 23 23 24 24 25 26 27 27 28 28 28 29 30
16 16 17 17 17 17 17 15 15 15 15 16 16 16 16 17 17 18 19 19 19 20 20 21 21 22 22 22 22 23 23 23 24 25 26 27 27 28 28 29 29 29 29
17 17 18 18 18 18 16 16 16 16 16 16 17 17 18 18 18 19 19 19 20 20 20 21 22 22 23 23 23 24 24 24 25 25 26 27 28 28 29 29 29 29 29
18 18 18 18 18 18 17 17 17 17 17 18 18 19 19 19 19 19 19 19 20 21 21 22 22 23 23 24 24 24 24 24 25 26 27 27 28 28 28 29 29 29 29
19 19 19 19 19 19 19 18 18 18 18 19 19 19 19 20 20 20 20 20 21 22 23 23 24 24 24 24 24 24 24 24 25 26 27 27 28 28 29 29 29 29 29
20 20 21 21 21 21 20 20 20 19 19 19 20 20 20 21 21 21 22 22 23 23 24 25 25 25 24 24 24 25 25 26 26 27 28 28 29 29 29 29 29 28 28
22 22 22 22 22 21 21 21 21 20 20 21 21 21 22 22 22 23 23 23 24 24 25 26 26 26 26 25 25 25 26 27 27 28 28 28 29 28 28 29 29 28 28
23 23 23 23 23 22 21 22 22 21 22 22 22 22 23 23 24 24 24 25 25 26 27 27 27 26 26 26 26 26 26 27 27 28 28 29 29 29 29 29 28 28 28
23 24 24 24 23 23 23 23 23 23 23 23 23 24 24 24 25 25 26 26 26 27 28 28 27 27 27 27 27 27 27 27 28 28 29 29 29 29 29 28 28 28 27
24 25 25 24 24 25 24 23 24 24 24 24 25 25 25 26 26 26 27 27 27 28 28 28 28 27 27 27 27 27 28 28 29 29 29 29 28 28 28 28 27 27 27
26 26 26 25 25 25 24 24 24 25 25 26 26 26 27 27 27 28 28 28 28 28 27 27 27 27 27 27 28 28 28 29 29 29 29 29 28 28 28 28 27 27 27
27 26 26 26 26 25 25 25 26 26 26 27 27 27 28 28 28 29 29 29 29 28 28 28 28 28 28 28 28 29 29 29 29 29 29 29 29 28 28 28 27 27 27
27 26 27 27 27 27 27 27 27 27 28 28 28 29 29 29 30 30 29 29 29 29 29 29 29 29 29 29 29 29 29 29 30 30 30 29 29 29 28 28 28 27 27
27 27 27 27 27 27 27 28 28 29 29 29 30 29 30 30 30 30 30 30 29 29 29 30 30 30 29 28 28 29 29 29 30 30 30 29 29 28 28 28 28 27 27
29 28 28 27 27 28 29 29 29 30 29 30 30 30 30 30 30 30 30 30 30 30 30 30 30 29 29 28 28 28 29 29 30 30 29 29 29 28 27 27 27 26 26
29 28 28 28 28 29 29 29 29 29 29 30 30 30 30 30 29 29 29 30 30 31 30 30 29 29 28 28 28 28 29 29 30 30 30 29 29 28 27 27 27 26 26
29 29 29 29 29 29 29 29 29 29 29 30 30 30 30 29 29 30 30 31 31 30 30 29 29 29 29 28 29 29 29 29 30 30 30 29 29 28 28 27 27 27 26
30 30 31 31 30 30 29 29 29 29 29 29 29 29 29 29 29 30 30 31 30 29 29 29 29 29 29 29 29 29 29 29 30 30 29 29 29 28 28 27 27 26 26
31 31 32 31 31 30 30 30 29 30 30 30 30 30 29 29 29 30 30 30 29 29 29 29 29 28 29 29 29 29 29 30 30 30 29 29 28 28 28 27 27 27 27

GEFSGL_500_meanwind_198.txt.gz
Wind_Speed
15 14 14 13 13 13 12 11 11 11 11 11 11 11 11 11 11 12 12 13 13 14 15 15 16 17 17 17 17 17 17 17 17 18 19 19 19 20 20 20 21 21 22
15 15 15 14 14 13 12 12 12 12 12 12 11 12 12 12 12 12 12 13 14 14 15 16 17 17 17 17 17 17 17 18 19 19 19 19 20 21 22 22 22 23 23
15 15 15 15 14 14 13 13 13 12 12 12 12 12 13 13 13 13 14 14 15 15 16 16 16 17 17 17 17 17 18 19 20 20 21 21 22 22 23 23 24 25 25
16 16 16 16 16 15 15 14 14 13 13 13 13 13 14 14 14 15 15 15 16 16 16 16 17 17 17 18 18 19 19 20 21 22 23 23 23 23 23 24 25 26 26
16 17 17 18 17 16 16 15 15 15 15 15 14 14 14 14 14 15 15 15 16 16 17 17 18 18 18 19 19 20 20 21 22 22 23 23 23 24 25 25 26 27 28
17 18 19 19 19 17 17 17 16 15 15 16 15 15 15 15 15 15 16 16 16 17 18 18 19 19 20 20 20 20 21 22 22 22 23 24 24 24 25 26 27 28 29
18 19 20 20 19 18 18 18 18 16 16 16 17 16 16 17 17 16 17 17 17 18 18 19 20 20 20 20 21 21 22 22 23 23 23 24 25 25 26 27 28 29 29
19 20 20 20 19 19 19 19 18 17 17 18 18 17 17 18 18 18 18 18 19 19 20 21 21 21 21 21 22 22 23 23 23 23 24 24 25 26 27 27 28 29 30
21 21 22 21 20 19 19 20 19 18 18 18 18 18 18 18 18 19 19 19 19 20 20 21 21 21 22 22 23 23 24 24 24 24 25 25 26 26 27 28 29 30 30
22 22 22 21 20 20 20 20 20 20 20 19 19 19 19 19 19 19 20 20 20 20 21 22 22 22 23 23 24 24 24 24 25 25 25 26 27 28 28 29 30 31 31
23 23 22 21 21 20 20 20 21 21 21 20 20 20 20 20 20 20 21 21 21 21 22 23 23 23 24 24 25 25 25 25 25 25 26 27 27 28 29 30 31 31 31
24 23 22 22 21 21 21 21 21 22 22 21 21 20 20 21 21 22 22 22 23 23 24 24 24 25 25 25 25 25 25 25 26 26 27 27 28 29 30 30 31 31 31
23 23 22 22 22 22 22 22 22 22 22 22 21 21 21 22 22 23 23 24 24 24 25 25 25 26 26 26 26 26 26 26 27 27 28 28 29 30 30 31 31 31 30
24 24 23 23 24 24 23 23 22 22 23 22 22 23 23 23 23 24 25 25 25 25 26 26 26 26 27 27 27 27 27 28 28 28 29 29 29 30 30 30 30 30 30
25 25 25 25 25 25 25 24 24 24 24 24 23 23 24 24 24 25 26 26 26 26 27 27 28 28 27 27 28 28 29 29 29 29 30 30 30 30 30 30 30 30 29
26 26 26 27 27 26 26 26 26 26 26 26 25 25 25 26 26 26 27 27 28 28 28 28 29 29 29 28 29 29 29 30 30 30 30 30 30 30 31 31 31 30 30
27 27 27 27 27 27 28 28 28 28 28 27 27 27 27 27 28 28 28 29 29 29 29 30 30 30 30 30 30 30 30 30 30 30 30 31 31 31 31 31 30 30 30
28 28 28 28 28 29 29 29 29 29 28 28 28 29 29 29 29 29 30 30 30 30 30 30 31 31 31 31 31 31 30 30 31 31 31 31 32 32 31 31 31 31 31
29 29 29 29 29 30 30 30 30 29 29 29 29 30 30 30 30 30 31 31 31 31 31 31 31 31 31 31 31 31 31 31 31 31 31 32 31 31 31 31 31 31 32
30 30 30 30 30 31 30 30 30 29 29 30 30 30 30 31 31 32 32 32 31 31 30 30 30 30 31 32 32 32 32 32 32 32 32 32 32 31 31 32 32 32 32
32 32 32 32 32 31 31 30 30 30 30 30 30 31 31 32 32 33 32 32 31 31 30 30 31 31 32 33 33 33 32 32 32 32 32 32 31 31 32 32 31 31 32
33 34 33 33 32 31 31 30 30 30 31 30 30 31 32 32 32 31 31 31 31 31 31 31 31 32 32 33 33 33 32 32 32 32 32 32 32 31 31 31 31 31 31
35 34 34 32 31 31 31 31 31 31 31 31 31 32 32 32 31 31 31 31 31 31 31 32 32 32 33 33 33 33 33 33 32 32 32 32 31 31 31 31 31 31 31
35 34 33 33 33 32 32 32 32 32 32 32 32 32 31 32 32 32 32 31 31 32 32 33 33 33 33 33 33 33 33 32 32 32 32 31 31 31 31 31 31 31 31
34 33 33 33 33 33 33 33 33 33 33 33 33 32 32 32 32 33 33 32 32 33 33 32 33 33 33 33 33 33 33 32 32 32 31 31 31 32 32 32 32 31 31
34 34 33 33 33 33 33 33 33 33 33 33 32 32 32 33 33 33 33 33 33 34 33 33 33 33 32 32 32 32 32 31 31 31 32 32 32 32 32 31 31 31 31

GEFSGL_500_meanwind_204.txt.gz
Wind_Speed
12 12 12 12 12 11 10 9 8 7 7 7 7 8 8 9 9 9 9 10 11 11 12 12 12 12 13 13 13 14 15 15 16 16 17 17 17 18 19 19 19 20 21
12 12 12 13 13 12 11 10 9 9 9 8 8 8 8 9 9 9 9 10 11 11 12 12 12 12 13 13 14 14 15 15 16 17 18 18 19 19 19 20 21 21 22
11 12 13 13 13 14 13 12 11 10 9 9 9 9 9 9 9 10 10 11 11 12 13 13 13 13 14 14 14 15 15 16 16 18 18 19 20 20 21 21 22 22 22
12 13 13 13 14 14 14 13 12 11 11 10 10 9 9 10 10 11 11 12 12 12 13 13 14 14 14 14 15 16 16 17 17 18 19 20 20 21 22 22 23 23 24
12 14 14 14 14 14 14 13 12 11 11 11 10 10 10 11 11 12 12 12 12 13 13 14 14 14 15 15 16 16 17 17 18 18 19 20 21 21 22 22 23 24 25
14 14 15 15 15 15 15 14 13 12 11 11 11 12 12 12 12 12 13 13 13 13 14 14 15 15 16 16 17 17 17 18 18 19 19 20 21 22 22 23 23 24 26
15 15 16 15 16 15 16 16 14 13 12 12 12 12 13 13 13 13 13 14 14 14 15 15 16 16 16 16 17 17 18 19 19 20 19 20 21 22 23 24 24 25 26
15 16 16 17 17 16 16 15 14 13 13 13 13 13 14 13 14 14 14 15 14 14 15 15 16 16 17 18 18 18 18 19 20 21 21 21 22 23 24 25 26 27 27
16 17 17 17 17 17 16 15 14 13 14 15 15 15 15 15 15 15 15 15 15 15 16 16 17 17 18 18 19 19 19 20 20 21 21 21 22 24 25 26 27 27 28
17 17 17 18 18 17 16 15 15 15 15 15 16 16 16 16 16 16 16 16 16 16 17 17 18 18 19 19 19 20 20 20 21 21 22 22 23 24 25 26 27 27 28
19 18 17 18 17 17 17 16 16 16 16 16 16 16 16 17 17 17 17 17 17 17 17 18 18 19 19 19 20 20 21 21 22 23 23 24 24 25 26 27 27 28 28
20 19 18 18 18 18 17 17 17 16 17 17 17 17 17 17 18 18 18 18 18 18 18 19 20 20 20 20 21 21 22 23 23 24 25 25 26 26 27 27 28 28 29
21 20 19 19 19 18 18 18 18 18 18 18 18 18 19 19 19 19 19 19 19 19 19 19 20 20 21 22 22 23 23 24 25 25 26 26 26 27 27 28 28 28 28
21 21 20 20 19 19 19 19 20 20 19 20 20 20 20 20 20 20 20 20 20 20 21 21 21 21 22 23 23 24 24 24 25 26 26 27 27 27 28 29 29 29 28
22 22 21 21 21 21 21 21 22 21 21 21 21 22 22 21 21 21 21 21 21 21 22 22 23 23 24 24 25 25 25 25 25 26 27 28 28 28 29 29 30 30 29
24 23 23 22 23 23 23 22 22 23 23 22 23 23 23 23 22 21 21 22 22 23 23 23 24 25 25 25 26 26 26 26 27 27 28 28 28 28 29 29 30 30 29
24 25 24 25 25 25 24 24 24 25 24 25 25 24 24 24 23 23 23 24 24 24 24 25 25 25 26 26 26 27 28 28 28 28 29 30 30 30 30 30 29 29 29
26 26 26 26 27 26 25 25 26 26 26 26 26 26 26 25 25 25 25 25 25 25 26 26 26 26 27 27 27 28 28 29 29 29 30 30 30 30 30 29 29 29 29
28 28 27 27 27 27 26 26 27 27 27 27 27 27 26 26 25 25 26 26 26 26 26 26 27 27 27 28 28 28 29 29 30 30 30 31 31 30 30 29 29 29 29
30 29 28 27 28 28 28 28 28 28 28 28 27 27 26 26 27 27 27 27 27 28 28 28 28 28 28 28 29 29 29 30 30 30 30 31 31 30 30 30 30 30 30
31 30 30 29 29 29 30 29 29 28 28 28 28 28 28 28 28 28 28 28 28 28 28 28 28 28 29 29 29 29 29 30 30 30 31 31 31 31 31 30 30 30 30
32 32 31 31 31 30 31 30 30 30 30 30 30 29 29 29 29 28 29 29 29 28 28 28 28 28 28 29 29 29 30 30 30 31 31 31 31 31 31 31 31 30 30
33 33 33 32 32 32 32 31 31 30 31 31 30 30 29 29 29 29 29 29 29 28 28 28 28 29 28 29 29 30 30 30 31 31 31 31 30 30 31 31 31 31 31
34 33 33 33 32 32 32 33 32 31 31 30 30 30 30 29 29 29 28 28 29 29 29 30 29 30 30 30 31 31 31 31 32 31 31 31 31 30 31 31 32 32 32
35 34 34 33 33 33 33 33 32 32 31 30 31 31 30 30 30 29 29 30 30 31 30 30 30 30 31 31 31 31 32 32 32 31 31 31 31 31 31 32 32 32 31
35 35 34 33 33 33 32 32 32 31 31 31 31 30 31 30 31 31 31 31 31 31 31 31 31 32 32 32 33 33 33 33 32 32 32 32 32 32 33 33 32 32 31

GEFSGL_500_meanwind_210.txt.gz
Wind_Speed
12 13 13 13 13 14 13 12 12 11 10 10 9 10 11 11 11 11 11 12 12 12 13 14 15 15 16 16 16 16 17 17 17 17 18 19 19 19 19 19 20 21 22
12 13 13 13 14 15 14 14 13 12 12 12 11 11 11 11 11 12 12 12 12 13 14 14 14 15 15 15 16 16 17 17 18 18 19 19 19 19 20 20 21 22 22
13 14 14 14 14 15 15 13 13 13 13 13 12 12 11 11 11 11 11 12 12 13 13 14 15 16 15 16 16 17 17 17 18 18 19 19 20 20 20 21 22 22 23
14 15 15 15 15 16 15 14 14 13 14 13 13 13 12 11 12 12 13 13 13 13 14 15 15 16 16 17 17 17 17 17 18 18 18 19 19 20 21 21 22 23 24
15 15 15 16 16 16 15 15 15 15 15 14 14 12 12 12 13 13 14 14 14 15 15 16 16 16 16 17 16 17 17 17 18 18 19 19 20 20 21 21 22 23 23
15 16 16 16 17 16 16 17 16 16 16 14 13 13 13 13 13 14 14 15 15 15 16 16 16 16 17 17 17 17 17 18 18 18 19 20 20 20 21 22 23 24 25
17 17 17 17 17 17 16 16 16 17 15 14 14 13 13 14 14 15 15 15 16 16 17 16 16 17 18 17 17 18 18 18 18 19 19 20 20 21 22 23 24 25 26
18 19 19 18 18 18 17 17 16 16 15 14 14 14 14 15 15 15 16 16 16 16 17 17 17 18 18 18 18 18 18 18 19 20 20 21 21 22 23 24 25 26 27
19 21 20 19 19 19 17 16 16 16 16 15 14 14 15 16 16 16 16 17 16 17 17 18 18 19 19 18 19 19 19 19 20 21 21 22 22 23 24 25 26 27 27
21 21 21 21 20 19 17 17 17 16 16 16 15 16 16 16 16 16 16 17 17 18 18 18 18 19 19 19 19 19 20 20 21 22 22 23 24 24 24 25 26 26 27
24 23 22 22 22 20 18 17 17 17 17 17 17 17 17 17 17 17 17 18 18 18 18 19 19 19 19 20 20 20 21 21 22 22 23 23 24 24 24 25 25 26 27
24 24 24 24 24 21 19 18 18 18 18 18 18 18 18 18 18 18 19 19 19 20 20 20 20 20 20 21 21 21 22 22 23 23 23 24 24 25 25 26 26 27 28
26 25 26 26 25 23 21 20 20 20 20 19 19 19 20 20 20 20 20 21 21 21 21 21 22 22 22 22 22 23 23 24 24 24 24 25 25 26 27 27 28 29 29
28 28 26 24 23 23 22 21 21 21 21 20 20 20 21 21 21 21 21 22 22 22 22 23 23 22 23 23 23 24 24 25 25 25 25 26 27 27 28 28 29 30 30
28 27 25 24 23 22 22 21 22 22 22 22 22 21 22 22 23 23 23 24 23 23 23 23 23 23 24 24 25 25 25 26 26 26 27 28 28 29 29 29 30 31 30
28 26 24 23 22 22 21 21 22 23 23 23 23 23 23 24 24 24 25 24 24 24 24 24 24 24 25 25 25 26 26 26 26 27 28 29 29 29 29 29 30 30 31
27 25 23 23 23 24 23 23 24 23 23 24 24 24 24 25 25 25 25 25 25 25 26 26 26 26 26 26 26 27 27 27 28 29 29 30 30 30 30 30 31 31 31
26 26 26 26 25 25 25 25 25 25 24 25 25 25 25 26 26 26 26 26 27 27 27 27 27 27 28 27 27 27 28 28 29 29 30 30 30 31 31 31 31 32 32
28 28 29 28 27 28 28 27 26 26 26 26 26 26 27 27 28 28 28 28 28 28 28 28 28 28 28 28 29 29 29 30 30 31 31 31 31 31 31 31 31 31 31
29 29 29 29 29 29 28 28 28 28 28 28 28 28 28 29 30 30 29 29 29 29 29 29 29 28 28 29 29 30 30 31 31 31 31 31 31 31 31 31 31 31 31
30 31 31 31 31 31 30 30 30 30 30 30 30 30 31 31 31 31 30 31 31 30 30 30 30 30 30 30 31 31 31 32 32 31 31 31 31 31 31 31 31 31 31
32 32 33 33 33 32 32 32 31 31 32 33 33 33 32 32 32 32 32 32 32 32 31 31 31 31 32 32 32 32 32 32 32 32 32 31 31 32 32 32 32 32 32
33 33 34 35 35 34 33 33 33 33 34 35 35 34 33 33 32 32 32 32 33 33 32 32 32 32 32 32 33 33 33 33 33 33 33 32 32 32 33 33 33 32 32
35 35 35 36 36 36 34 34 34 34 35 35 34 34 34 33 33 32 32 32 33 33 33 33 32 33 33 33 34 33 34 34 34 33 33 33 33 33 33 33 33 33 33
36 36 37 37 37 37 36 36 36 36 35 35 34 34 34 34 33 32 32 32 33 34 34 34 33 33 34 34 34 34 34 35 35 34 34 33 33 33 33 33 33 34 33
37 37 37 38 37 37 36 36 36 35 35 34 34 34 34 34 33 33 33 33 33 33 34 34 34 34 34 34 34 34 35 34 34 34 34 33 33 33 33 33 33 33 33

GEFSGL_500_meanwind_216.txt.gz
Wind_Speed
11 11 12 12 12 12 13 13 12 12 11 11 10 11 11 11 11 11 12 12 13 14 14 14 14 14 14 15 15 15 15 15 16 16 16 17 17 17 17 18 19 19 20
11 12 12 12 12 13 14 14 13 13 13 13 12 12 12 11 11 11 12 12 12 13 14 13 13 14 14 15 15 15 15 15 15 16 16 17 17 18 18 19 20 20 20
11 12 12 12 13 13 14 14 15 15 14 14 14 13 13 12 12 12 12 13 13 13 13 13 14 14 15 15 15 15 15 16 16 16 16 17 18 18 18 19 19 20 20
12 13 13 13 14 14 15 15 16 17 16 15 15 14 13 13 13 13 14 14 14 14 14 14 14 15 15 15 16 16 16 16 17 17 17 17 17 17 18 18 19 20 20
13 14 14 15 15 15 16 16 17 17 16 15 15 15 14 14 13 14 14 14 14 14 15 15 16 16 16 16 16 16 16 16 16 17 17 17 17 18 18 19 20 20 21
15 15 15 16 17 17 16 17 17 18 18 16 16 15 14 14 14 14 15 14 15 15 15 16 16 16 16 16 16 16 16 16 17 17 17 17 18 18 19 20 20 21 22
17 16 17 17 17 17 18 19 19 19 18 17 17 16 15 15 15 14 14 16 16 16 16 16 16 16 16 17 17 17 17 17 17 18 18 18 18 19 20 20 21 22 23
19 18 18 18 18 19 19 20 21 20 19 18 17 16 16 15 15 15 15 16 16 16 16 16 16 17 17 18 18 17 17 18 18 18 18 19 20 20 21 22 23 23 24
21 21 20 20 20 20 21 21 22 21 19 19 18 17 17 16 16 16 17 17 17 17 17 17 18 18 18 18 18 18 19 19 19 20 20 20 21 21 22 23 24 25 25
23 22 21 21 20 21 22 22 22 22 21 20 19 18 18 17 17 18 18 18 18 18 18 18 19 19 19 19 19 20 20 20 20 21 21 21 22 22 23 23 24 25 26
25 25 24 23 23 23 23 23 22 22 21 21 20 20 19 19 19 19 19 19 19 19 20 20 20 20 20 20 21 21 21 21 21 21 22 22 23 23 23 24 25 25 26
27 26 25 25 25 24 24 23 23 22 22 22 21 21 21 21 20 20 21 20 20 21 21 21 21 21 21 22 22 22 23 23 23 23 23 23 23 23 24 25 26 26 27
29 28 27 27 26 26 26 26 24 24 24 24 23 23 22 22 21 21 22 22 21 21 22 22 23 23 22 22 22 23 23 24 24 24 24 24 24 25 26 27 27 28 28
30 29 29 30 29 28 27 27 26 26 25 24 23 22 22 23 22 22 23 22 22 23 23 23 22 22 22 23 23 23 24 25 25 26 26 25 26 26 27 28 28 28 29
32 32 31 31 30 29 29 30 29 27 25 25 24 23 23 23 23 23 24 24 24 24 24 24 24 24 24 24 24 25 25 26 26 26 26 26 27 28 28 28 28 29 29
34 33 32 32 31 31 31 30 29 28 27 25 24 24 25 25 25 25 25 25 25 25 25 25 25 25 26 26 27 27 27 26 27 27 27 28 28 28 29 29 29 29 30
34 33 33 33 32 32 31 30 28 27 25 24 24 25 26 26 26 27 26 25 25 26 26 26 27 27 27 28 28 28 27 28 28 28 29 29 29 29 30 30 30 30 31
34 33 33 33 33 32 31 30 29 29 28 26 26 26 27 28 28 28 27 27 27 27 27 27 28 28 28 28 28 28 28 29 29 30 30 30 30 30 31 31 31 31 31
34 34 33 32 31 31 31 30 30 30 29 27 28 28 28 29 28 28 28 28 28 28 28 28 29 29 29 29 29 29 30 30 31 31 31 31 31 31 31 31 31 31 31
35 34 33 32 32 30 30 29 29 30 30 29 28 29 30 30 29 29 29 29 29 29 29 30 29 29 30 31 31 30 30 31 31 31 31 31 31 31 31 31 31 31 30
35 33 32 30 30 30 29 30 30 31 32 31 30 31 30 31 31 30 30 30 30 30 30 31 30 31 31 31 32 32 32 32 32 32 32 32 32 32 32 31 31 31 31
33 33 31 30 30 30 30 30 31 31 31 32 32 33 33 33 32 32 31 31 32 32 32 32 32 32 32 32 33 33 33 32 32 32 32 32 33 33 32 32 32 32 32
33 33 32 32 32 31 31 31 32 32 32 33 34 34 34 34 33 33 33 33 34 34 33 33 33 33 34 33 33 32 32 32 33 33 33 33 33 33 33 32 32 32 32
33 33 33 32 32 32 31 32 33 33 33 34 34 35 34 34 34 34 34 34 34 34 34 34 34 34 34 34 34 34 33 33 33 33 33 34 34 33 32 32 32 32 33
34 34 33 32 32 31 31 31 31 31 32 33 33 33 33 33 34 34 35 35 35 35 36 36 36 35 35 35 35 35 34 34 35 35 34 34 34 33 33 32 32 32 33
34 33 32 31 32 32 31 31 31 31 31 32 32 32 33 33 34 34 34 35 35 36 36 36 35 35 35 36 36 36 36 36 36 35 35 34 33 33 33 33 33 33 34

GEFSGL_500_meanwind_222.txt.gz
Wind_Speed
14 14 14 14 14 14 14 15 15 15 16 15 15 15 14 14 14 13 13 14 14 14 15 15 15 16 16 16 16 16 16 16 15 15 16 15 15 15 15 15 16 16 16
14 15 15 14 14 14 14 15 16 16 17 17 16 16 16 15 14 14 14 14 15 15 15 15 15 15 15 15 15 15 16 16 15 15 15 16 15 15 15 16 16 17 17
15 15 15 15 15 15 15 16 17 17 18 18 18 17 17 16 16 16 15 15 16 16 15 15 15 15 15 15 15 15 16 16 15 16 16 16 16 16 16 16 16 17 18
16 16 16 16 17 17 17 18 18 19 19 19 20 19 18 17 17 18 17 17 17 16 16 15 15 15 15 15 16 16 16 16 16 16 16 16 16 17 17 17 17 17 18
17 17 17 18 18 18 19 19 20 20 20 21 21 21 21 20 19 19 18 17 17 16 16 16 16 15 15 16 16 16 16 16 16 16 17 17 17 17 18 18 18 18 18
19 18 18 19 19 20 20 21 21 21 21 21 21 22 22 22 20 18 18 17 17 16 16 16 16 16 16 16 17 16 16 16 16 17 17 17 18 18 18 19 19 19 19
19 19 20 20 20 21 21 22 22 23 22 22 22 22 22 21 20 20 19 18 17 17 17 17 16 17 17 17 17 17 17 17 18 18 17 18 18 19 19 19 20 20 21
21 21 21 21 21 23 23 23 23 23 23 23 23 23 22 22 21 21 20 19 19 19 18 18 18 18 18 18 19 19 19 19 19 19 19 19 19 20 20 21 21 22 22
23 23 23 23 23 24 24 24 24 23 24 24 24 24 23 23 22 21 21 21 20 20 20 20 20 19 20 20 20 20 19 19 19 19 20 20 21 21 22 22 22 23 23
24 24 24 24 25 25 25 25 25 25 25 25 25 25 24 24 23 22 22 21 21 21 21 21 21 21 21 21 21 21 20 20 21 21 22 22 22 22 23 23 23 24 24
27 26 26 26 26 26 27 26 26 27 27 27 27 26 26 25 24 23 22 22 21 21 22 22 22 22 22 21 21 21 21 22 22 23 23 23 23 23 24 24 24 25 25
30 29 28 28 28 28 28 28 28 28 29 29 28 27 26 26 24 23 23 23 22 22 22 22 22 23 22 21 22 22 23 23 23 23 23 24 24 24 24 24 25 25 25
32 31 31 31 30 30 30 30 29 29 29 29 28 27 27 26 26 25 24 24 23 23 22 23 23 23 22 22 22 23 24 24 24 25 25 25 26 26 26 26 26 26 26
33 33 33 32 32 32 32 32 31 31 31 30 29 28 28 27 27 26 25 25 24 23 23 24 24 23 23 24 24 24 25 25 25 26 26 27 27 27 27 27 27 27 27
34 34 33 33 33 33 33 33 32 31 31 31 31 31 30 29 27 27 27 26 25 25 25 25 25 25 25 25 25 25 25 26 26 27 27 27 27 28 28 28 28 28 28
34 34 34 34 35 34 34 33 32 32 32 32 32 32 31 31 29 28 28 28 27 27 28 27 27 26 26 26 27 26 26 27 27 28 28 28 28 28 28 28 29 29 29
35 35 35 35 35 35 35 34 33 33 33 33 32 32 32 31 31 31 30 30 29 29 29 28 27 28 28 28 28 28 28 28 28 28 28 29 29 28 28 28 28 29 29
35 35 35 35 35 35 34 34 34 34 33 33 32 32 32 32 32 31 31 31 31 30 30 29 29 29 29 29 29 29 29 29 29 29 29 29 29 29 29 29 29 29 29
36 36 36 35 35 34 34 35 34 34 34 34 33 32 32 33 32 31 31 31 31 31 30 30 30 30 30 30 30 30 30 30 30 30 30 30 30 30 30 31 31 30 30
36 36 36 36 35 35 34 35 35 34 34 34 34 33 33 33 32 31 31 32 32 32 31 30 30 31 31 31 31 31 31 31 31 31 31 31 31 31 31 31 31 31 31
37 37 37 37 36 35 35 35 35 35 35 34 34 34 33 33 32 30 30 31 32 32 31 31 30 30 31 32 32 33 33 32 32 33 32 32 32 32 31 31 32 32 31
35 36 36 35 35 35 35 35 36 37 36 34 34 34 34 33 33 32 32 32 32 31 31 31 31 32 33 33 34 34 34 34 34 34 34 33 33 33 33 33 33 33 32
35 36 36 36 36 36 35 36 36 37 36 35 35 34 34 34 34 33 32 33 33 33 33 33 33 34 34 35 35 35 36 36 36 35 34 35 34 34 34 34 34 34 33
35 36 36 35 36 36 35 35 35 35 36 35 35 34 34 34 34 33 33 34 34 34 34 34 34 34 35 35 34 35 36 36 36 36 35 35 35 35 35 35 35 35 34
33 34 33 33 33 32 33 33 33 33 33 32 32 33 33 33 34 34 34 34 34 34 34 34 34 35 35 35 34 34 35 35 36 37 36 36 36 36 36 36 36 36 35
31 31 31 31 31 31 32 32 31 32 32 31 32 32 32 33 33 33 33 33 34 34 34 34 34 33 34 33 33 34 34 35 35 36 36 36 36 36 36 36 36 36 35

GEFSGL_500_meanwind_228.txt.gz
Wind_Speed
10 10 11 12 12 12 12 12 13 13 13 14 14 13 13 13 12 12 12 12 12 12 13 13 14 14 14 14 14 14 14 14 15 15 15 14 13 14 14 14 14 14 14
10 10 10 11 12 12 13 13 13 13 13 14 14 14 14 14 14 13 13 13 13 13 13 14 14 14 14 14 14 13 13 14 14 15 14 13 14 14 14 15 15 15 15
10 11 11 11 12 13 13 13 14 14 14 14 15 15 15 15 15 14 14 14 14 14 14 14 14 15 15 14 14 14 13 13 13 14 13 14 14 15 15 15 15 16 16
11 12 12 12 13 13 14 14 14 15 15 15 15 15 16 16 15 15 15 15 15 15 15 15 15 15 15 15 15 14 14 14 14 14 13 14 14 15 15 15 16 17 17
13 14 14 14 14 14 15 15 16 16 16 16 16 16 16 17 16 15 15 15 15 15 16 16 16 15 15 15 15 15 15 15 14 14 14 15 15 15 15 15 16 16 16
15 15 15 15 16 16 17 17 17 17 18 18 18 18 18 18 17 17 16 17 17 17 16 15 15 15 15 15 15 15 15 15 15 14 15 15 16 16 16 17 17 17 17
17 17 17 17 18 18 19 18 18 18 19 19 19 19 18 18 18 18 18 18 18 17 16 15 15 14 14 14 15 14 14 15 15 16 16 16 16 17 17 17 18 18 19
20 20 20 20 20 20 20 20 20 20 20 21 20 20 20 20 20 19 19 19 19 18 16 15 15 15 14 14 15 15 16 16 17 17 17 17 18 18 18 19 19 19 20
23 23 23 23 22 22 22 22 21 21 22 23 22 22 22 23 22 21 20 20 19 17 16 16 16 16 15 16 16 16 17 18 18 18 18 18 19 19 20 20 19 20 20
26 26 26 25 25 24 23 24 24 24 24 24 24 24 24 24 22 22 21 20 20 18 18 17 16 17 17 18 18 18 18 18 19 19 19 20 20 20 20 20 21 21 22
29 28 28 28 27 27 26 25 26 26 25 26 26 26 25 24 24 24 23 22 21 20 19 18 18 18 19 19 20 20 20 20 20 20 20 21 21 21 21 21 22 23 23
31 30 29 29 29 28 28 28 28 28 28 27 27 27 27 26 25 25 25 24 23 22 22 21 20 20 20 21 21 22 22 22 22 22 22 22 21 21 22 22 23 23 24
32 31 31 30 30 30 30 30 29 29 29 29 29 29 28 29 28 27 26 26 25 25 24 23 23 23 23 23 23 23 23 24 23 23 22 22 22 22 23 23 24 24 25
32 32 32 32 32 31 30 30 30 30 30 30 30 30 30 30 29 28 28 28 27 26 25 25 25 26 26 26 25 25 25 25 24 24 23 23 23 24 24 25 25 26 25
33 33 33 33 31 31 31 32 32 32 31 31 32 31 31 30 30 29 29 28 28 28 27 27 27 27 28 27 27 27 26 26 25 25 25 25 26 25 26 26 26 27 26
33 33 32 32 32 32 32 32 32 33 33 33 33 32 32 31 32 31 30 30 30 29 29 28 28 29 29 29 28 27 27 27 27 27 27 27 27 27 27 27 27 27 27
33 32 31 32 32 32 32 32 32 32 32 33 33 33 33 33 33 32 31 31 31 30 30 30 30 30 30 29 29 28 28 29 29 29 29 28 28 28 29 28 28 28 27
33 32 33 33 33 33 33 33 33 33 32 32 33 33 33 33 33 32 32 32 32 32 31 31 31 30 31 30 30 30 30 30 30 30 30 30 30 30 30 30 29 29 29
34 34 34 34 34 33 33 34 34 34 33 33 33 33 33 33 33 33 32 32 33 32 32 32 32 32 32 32 32 31 31 31 30 31 31 31 31 31 30 30 30 30 30
35 34 34 34 33 33 33 34 34 34 33 33 33 34 34 34 33 33 33 33 33 32 31 31 32 33 32 32 31 32 32 31 31 30 30 30 30 30 30 31 31 31 30
35 35 34 34 34 34 34 34 35 35 34 34 34 34 34 34 33 33 33 33 33 32 32 32 32 32 31 31 31 32 31 30 30 29 29 30 30 31 31 31 31 32 31
35 35 36 35 34 33 34 34 35 35 34 34 34 35 34 34 33 33 33 34 34 33 33 33 33 32 31 31 31 30 30 31 31 31 31 31 32 32 32 32 32 32 32
34 35 34 33 32 33 33 33 33 33 34 34 35 35 34 33 33 33 34 34 34 33 32 33 33 33 33 32 32 32 32 31 31 32 32 32 33 33 33 33 33 33 33
32 33 33 33 32 32 33 33 33 33 33 34 34 34 33 33 33 33 34 33 33 33 33 33 33 33 32 32 32 32 32 33 33 33 33 33 33 33 33 33 33 33 33
30 30 31 31 31 32 32 32 32 32 32 33 34 34 33 33 33 33 32 32 32 33 32 32 32 32 32 32 32 31 32 32 33 33 33 34 34 34 34 34 34 34 34
28 29 29 29 30 30 31 31 32 32 32 32 33 33 32 32 31 31 31 32 32 32 31 31 32 32 32 32 31 31 32 32 32 33 33 34 34 34 34 34 34 34 35

GEFSGL_500_meanwind_234.txt.gz
Wind_Speed
7 7 8 9 9 10 11 11 12 12 13 13 13 13 13 13 14 14 14 15 15 16 15 15 15 15 16 16 17 17 17 17 17 17 17 18 18 17 17 17 16 16 17
9 9 9 10 11 11 12 13 13 14 14 14 13 13 13 14 14 14 15 15 16 16 16 16 16 16 16 17 17 18 18 18 18 17 17 17 17 17 16 16 16 16 17
12 12 12 12 13 13 13 13 14 14 15 14 13 13 13 14 14 15 16 16 17 17 17 17 17 17 17 18 18 19 19 18 18 17 17 17 17 17 16 16 16 17 17
14 15 14 14 15 15 15 14 15 15 16 16 16 16 15 15 16 16 17 18 18 18 17 17 17 18 18 18 19 19 18 18 18 18 17 17 17 16 16 16 16 17 18
15 16 16 17 17 17 16 16 17 17 17 17 17 17 17 17 18 18 18 18 19 19 18 18 18 18 18 18 18 17 17 18 18 18 18 17 16 16 16 17 17 17 18
17 18 19 18 18 18 18 18 18 19 19 19 18 19 18 19 20 20 20 19 20 20 20 19 19 19 19 18 17 16 17 17 17 17 17 16 16 16 16 17 18 18 18
19 20 21 21 21 21 21 21 20 20 20 20 21 21 20 20 20 21 21 21 21 21 21 21 21 20 20 19 18 17 17 16 16 16 16 17 17 17 17 18 18 18 19
22 23 23 23 23 23 23 23 23 23 22 22 22 22 22 22 22 22 23 23 22 22 22 23 23 22 21 20 19 18 17 17 17 16 17 17 18 19 19 19 19 19 20
25 24 25 25 26 25 25 26 26 25 24 24 24 23 23 24 24 24 24 24 24 23 23 24 24 23 23 22 20 19 18 18 19 18 18 19 20 20 20 20 21 21 21
27 27 27 28 28 27 28 28 27 26 26 26 26 26 26 26 26 26 26 25 25 24 25 25 25 25 24 23 21 20 20 20 20 20 20 20 21 21 21 21 22 22 22
29 29 29 29 29 29 30 29 28 28 28 27 27 27 27 27 27 27 28 27 26 26 25 26 26 24 24 23 23 21 21 22 22 22 23 22 22 22 23 23 23 24 23
30 30 31 31 31 31 32 31 30 29 29 29 30 29 29 29 29 28 28 29 28 27 27 27 26 25 25 25 24 24 24 23 23 24 24 24 24 24 25 25 25 25 25
31 32 32 33 33 33 33 32 32 32 32 31 31 31 30 31 30 29 30 30 30 29 28 27 27 26 26 26 26 26 26 26 25 25 26 26 26 26 26 26 26 26 27
33 34 34 34 35 34 33 32 32 32 33 32 32 32 32 32 31 31 31 31 31 30 29 29 28 27 28 27 27 28 28 28 28 27 27 28 28 28 28 28 28 28 28
35 36 36 36 36 35 34 34 34 33 33 33 33 34 33 32 31 31 31 31 31 30 31 30 29 29 30 30 30 30 30 29 29 29 29 30 30 30 30 29 29 29 29
36 36 36 36 35 34 34 33 34 33 33 34 34 33 32 32 32 32 32 32 31 31 31 31 31 30 30 31 31 31 31 30 30 30 30 31 30 30 30 30 30 30 30
37 36 36 36 35 35 35 35 35 35 35 35 35 34 34 33 33 33 33 33 32 32 32 32 32 32 32 32 31 31 31 31 31 30 30 30 30 31 31 32 32 31 31
38 38 37 36 36 36 35 35 36 35 35 36 35 35 35 34 34 34 34 33 32 32 32 32 32 32 32 32 31 32 32 32 32 32 32 32 32 33 33 33 33 32 33
39 38 37 36 36 36 36 36 36 35 36 36 35 35 35 35 35 34 34 33 33 33 33 32 33 33 33 32 32 33 33 32 32 33 33 34 34 34 33 33 33 33 33
39 38 37 36 36 36 37 36 35 35 35 35 35 35 35 35 35 34 34 33 33 33 33 33 33 33 33 33 33 33 33 33 33 34 34 34 34 33 33 33 34 34 33
38 38 37 37 37 36 36 36 36 36 36 36 36 35 35 35 34 34 34 33 34 33 33 33 34 33 33 33 33 34 34 34 35 34 34 35 35 34 34 34 34 34 33
37 37 37 37 37 36 36 36 36 36 36 36 36 36 35 35 34 34 34 34 34 34 33 33 33 32 32 33 34 35 35 35 35 35 34 34 35 35 34 33 33 32 33
36 36 36 36 36 36 36 36 36 36 36 36 36 36 35 34 34 34 34 33 33 33 33 33 32 32 33 34 35 35 35 34 33 33 33 34 35 34 34 33 32 32 32
35 35 35 35 35 35 35 35 36 36 36 35 35 34 34 34 33 33 32 32 33 33 32 32 32 32 32 33 34 34 34 33 33 33 33 33 34 34 33 32 32 32 33
34 34 34 34 34 34 35 34 34 34 34 34 34 33 33 33 33 33 32 32 32 32 31 31 32 32 32 33 33 34 33 32 33 33 33 33 33 32 32 32 32 32 32
31 32 32 32 33 32 31 32 33 32 32 32 32 32 32 32 32 33 33 32 31 31 31 32 33 33 33 34 34 34 33 32 33 33 33 33 33 33 33 33 33 33 33